Date StartTime U_cm/s V_cm/s W_cm/s Ustd_cm/s Vstd_cm/s Wstd_cm/s Uvar_(cm/s)^2 Vvar_(cm/s)^2 Wvar_(cm/s)^2 KE_(m/s)^2 TurbulentKE_(m/s)^2 HorizWindSpeed_cm/s FrictionSpeec_cm/s DragCoef SpeedOfSound_m/s SonicTemperature_C Pressure_mb 
09/21/2013  00:00:00      -68.939      -32.894       13.172       71.563       32.648       23.110     5121.256     1065.864      534.088        0.636        0.336       76.385       28.208        0.136      340.975       15.367      855.647
09/21/2013  00:01:00     -110.358      -84.522       -3.712       33.300       29.546       21.119     1108.907      872.941      446.020        1.088        0.121      139.006       10.345        0.006      341.019       15.441      855.682
09/21/2013  00:02:00      -86.536      -95.955       10.033       65.656       57.072       36.095     4310.691     3257.227     1302.844        1.283        0.444      129.213       39.334        0.093      340.914       15.263      855.717
09/21/2013  00:03:00     -157.603     -108.324       -0.798       80.464       61.762       52.489     6474.430     3814.590     2755.066        2.481        0.652      191.240       46.639        0.059      340.771       15.019      855.762
09/21/2013  00:04:00     -188.245     -100.421       -5.988       74.372       66.054       48.031     5531.188     4363.166     2307.024        2.888        0.610      213.355       48.904        0.053      340.689       14.881      855.787
09/21/2013  00:05:00     -106.768      -77.355       -2.071       59.144       47.195       31.345     3498.053     2227.390      982.489        1.205        0.335      131.845       16.765        0.016      340.707       14.913      855.741
09/21/2013  00:06:00      -28.277      -17.520        1.726       19.811       22.692       23.079      392.486      514.927      532.634        0.127        0.072       33.264       18.366        0.305      340.680       14.866      855.637
09/21/2013  00:07:00      -55.342      -29.910       -3.525       33.680       26.971       18.639     1134.343      727.439      347.418        0.309        0.110       62.907        8.382        0.018      340.719       14.934      855.618
09/21/2013  00:08:00       -0.737      -32.069       15.345       23.609       25.142       18.113      557.371      632.106      328.063        0.139        0.076       32.077       15.782        0.242      340.794       15.061      855.692
09/21/2013  00:09:00      -86.631      -85.785       -2.880       59.520       47.435       23.662     3542.620     2250.062      559.892        1.061        0.318      121.918       19.630        0.026      340.823       15.109      855.727
09/21/2013  00:10:00     -155.510     -139.886       -6.555       68.514       64.258       41.837     4694.118     4129.097     1750.369        2.718        0.529      209.168       33.752        0.026      340.714       14.920      855.719
09/21/2013  00:11:00     -103.031      -72.369       -1.857       59.597       43.046       31.135     3551.817     1852.967      969.376        1.111        0.319      125.907       30.799        0.060      340.665       14.842      855.692
09/21/2013  00:12:00     -104.681     -135.255       -2.878       59.233       40.573       31.057     3508.546     1646.183      964.511        1.769        0.306      171.032       27.974        0.027      340.701       14.902      855.694
09/21/2013  00:13:00      -77.663      -57.895       -9.874       46.135       32.095       18.861     2128.463     1030.074      355.719        0.650        0.176       96.868       14.009        0.021      340.739       14.968      855.710
09/21/2013  00:14:00      -75.436      -18.097      -11.919       19.599       29.904       13.289      384.130      894.226      176.593        0.381        0.073       77.577        9.101        0.014      340.741       14.972      855.701
09/21/2013  00:15:00      -83.844       -6.203      -14.236       20.167       15.512        9.180      406.706      240.634       84.271        0.400        0.037       84.073        4.532        0.003      340.713       14.923      855.658
09/21/2013  00:16:00      -18.610      -39.027       -6.120       25.413       13.685       10.074      645.805      187.277      101.476        0.142        0.047       43.237        4.439        0.011      340.725       14.943      855.675
09/21/2013  00:17:00       29.309      -73.114      -12.520       20.856       17.075       16.703      434.990      291.542      278.986        0.368        0.050       78.770       10.998        0.019      340.635       14.793      855.720
09/21/2013  00:18:00       26.405      -60.210       -9.395       26.169       25.599       18.934      684.832      655.319      358.501        0.305        0.085       65.745       12.802        0.038      340.551       14.649      855.762
09/21/2013  00:19:00      -60.776      -44.367        4.966       30.878       36.260       22.992      953.467     1314.811      528.630        0.424        0.140       75.247        2.333        0.001      340.590       14.716      855.746
09/21/2013  00:20:00      -42.769        2.088       16.726       26.390       24.393       15.071      696.408      595.038      227.125        0.182        0.076       42.820       12.398        0.084      340.601       14.735      855.665
09/21/2013  00:21:00      -79.701       64.317      -14.681       16.074       29.970       18.972      258.369      898.173      359.945        0.611        0.076      102.415       20.259        0.039      340.490       14.547      855.593
09/21/2013  00:22:00      -83.756       31.890      -14.212       16.200       47.459       12.890      262.447     2252.321      166.145        0.546        0.134       89.622       17.286        0.037      340.378       14.357      855.631
09/21/2013  00:23:00      -22.767      -51.648      -11.164       51.947       37.730       15.508     2698.534     1423.584      240.493        0.384        0.218       56.443       10.008        0.031      340.408       14.408      855.705
09/21/2013  00:24:00       61.550     -109.801      -12.178       41.926       39.922       33.129     1757.749     1593.802     1097.509        1.022        0.222      125.876       20.262        0.026      340.485       14.537      855.762
09/21/2013  00:25:00        5.979      -73.080        0.644       56.053       42.276       27.482     3141.974     1787.254      755.280        0.553        0.284       73.325       25.917        0.125      340.384       14.367      855.777
09/21/2013  00:26:00      -51.005      -74.553        0.980       32.330       54.328       22.929     1045.224     2951.478      525.760        0.634        0.226       90.330       10.280        0.013      340.527       14.610      855.800
09/21/2013  00:27:00      -18.918      -41.071       11.808       38.875       44.246       21.279     1511.234     1957.727      452.776        0.305        0.196       45.218       17.672        0.153      340.400       14.395      855.759
09/21/2013  00:28:00      -15.745      -89.917       10.838       47.063       39.803       26.915     2214.913     1584.292      724.432        0.649        0.226       91.285       25.591        0.079      340.505       14.573      855.685
09/21/2013  00:29:00      -32.982      -82.580       -7.499       35.711       26.548       14.897     1275.288      704.818      221.935        0.508        0.110       88.923       15.679        0.031      340.574       14.689      855.661
09/21/2013  00:30:00        1.229      -73.798       -6.086       23.240       27.090       24.700      540.077      733.846      610.090        0.368        0.094       73.808       18.081        0.060      340.482       14.535      855.663
09/21/2013  00:31:00       -3.673      -62.644      -19.131       29.003       30.432       21.301      841.178      926.127      453.750        0.326        0.111       62.752        9.361        0.022      340.467       14.508      855.689
09/21/2013  00:32:00       14.850      -70.268      -11.173       32.966       32.171       25.403     1086.764     1034.949      645.308        0.402        0.138       71.820       19.772        0.076      340.418       14.427      855.700
09/21/2013  00:33:00       41.899      -64.972       -2.629       44.883       45.942       30.703     2014.513     2110.706      942.656        0.552        0.253       77.310       34.381        0.198      340.468       14.507      855.698
09/21/2013  00:34:00      -14.345       -2.503        4.573       20.645       19.913       18.620      426.211      396.535      346.723        0.070        0.058       14.562       16.237        1.243      340.364       14.334      855.696
09/21/2013  00:35:00      -33.057       -4.144        6.245       16.655       16.673       11.671      277.383      277.995      136.205        0.092        0.035       33.316        9.931        0.089      340.427       14.441      855.709
09/21/2013  00:36:00      -10.376        8.120        6.091       44.626       21.123       12.227     1991.473      446.170      149.493        0.140        0.129       13.176       10.154        0.594      340.346       14.302      855.730
09/21/2013  00:37:00        5.709      -14.792       -1.760        8.412       22.162       10.821       70.757      491.159      117.086        0.047        0.034       15.855       11.274        0.506      340.304       14.231      855.751
09/21/2013  00:38:00        9.857       16.344       18.331        9.572       20.221       16.987       91.615      408.877      288.551        0.074        0.039       19.087       15.252        0.639      340.239       14.121      855.751
09/21/2013  00:39:00       -6.665       28.345       53.403       14.940       21.317       16.179      223.213      454.429      261.769        0.232        0.047       29.118       15.273        0.275      340.097       13.883      855.716
09/21/2013  00:40:00       10.339       15.295       29.701       28.459       20.600       15.002      809.904      424.364      225.072        0.134        0.073       18.462       15.923        0.744      340.140       13.955      855.681
09/21/2013  00:41:00       20.323       -5.222       10.738       16.417       31.538       14.864      269.509      994.645      220.941        0.102        0.074       20.983       17.996        0.736      340.209       14.070      855.623
09/21/2013  00:42:00      -88.718      -48.082       -3.277       39.779       30.427       15.410     1582.353      925.783      237.464        0.647        0.137      100.909       13.025        0.017      340.309       14.239      855.653
09/21/2013  00:43:00      -65.321      -50.982        7.935       42.063       39.014       25.046     1769.265     1522.110      627.288        0.542        0.196       82.861       23.628        0.081      340.270       14.175      855.704
09/21/2013  00:44:00      -62.455      -71.430       -1.243       48.245       35.172       23.616     2327.580     1237.036      557.706        0.656        0.206       94.883       23.270        0.060      340.443       14.466      855.694
09/21/2013  00:45:00       -2.988      -37.569        3.842       21.874       19.243       19.487      478.492      370.274      379.761        0.133        0.061       37.687       13.266        0.124      340.414       14.418      855.646
09/21/2013  00:46:00        7.966        2.322        1.001       13.525        9.824        6.911      182.938       96.515       47.767        0.020        0.016        8.297        3.389        0.167      340.319       14.256      855.590
09/21/2013  00:47:00      -46.450      -18.725        0.093       35.711       18.507       14.481     1275.301      342.525      209.704        0.217        0.091       50.083       11.414        0.052      340.435       14.453      855.585
09/21/2013  00:48:00        5.921      -24.441       18.573       22.866       24.241       18.652      522.872      587.622      347.907        0.122        0.073       25.148       19.078        0.576      340.370       14.343      855.614
09/21/2013  00:49:00       -6.979      -40.269       11.123       27.053       28.721       23.635      731.883      824.917      558.619        0.195        0.106       40.870       11.728        0.082      340.475       14.523      855.610
09/21/2013  00:50:00      -36.858      -70.442       -0.538       36.009       39.827       16.331     1296.684     1586.166      266.700        0.473        0.157       79.502       18.532        0.054      340.634       14.790      855.609
09/21/2013  00:51:00      -76.733      -97.608       -4.509       31.462       41.529       24.159      989.871     1724.690      583.648        0.937        0.165      124.159       18.698        0.023      340.660       14.835      855.640
09/21/2013  00:52:00      -73.863     -109.441       -4.418       36.604       40.384       22.135     1339.867     1630.864      489.970        1.046        0.173      132.034       23.291        0.031      340.633       14.789      855.697
09/21/2013  00:53:00      -98.431     -100.530       -4.505       40.387       40.707       26.802     1631.104     1657.068      718.353        1.191        0.200      140.694       22.017        0.024      340.655       14.828      855.733
09/21/2013  00:54:00      -67.098      -96.897        1.207       38.487       45.501       22.727     1481.267     2070.337      516.498        0.898        0.203      117.861       16.758        0.020      340.591       14.716      855.679
09/21/2013  00:55:00     -112.307      -26.663      -13.814       17.988       41.224       17.622      323.576     1699.395      310.530        0.792        0.117      115.429       15.012        0.017      340.603       14.738      855.577
09/21/2013  00:56:00     -110.127       -2.215       -7.240       22.051       22.574       17.717      486.234      509.575      313.905        0.675        0.065      110.150       12.705        0.013      340.615       14.758      855.530
09/21/2013  00:57:00     -125.083      -46.188       -5.370       34.712       41.983       16.761     1204.932     1762.585      280.931        1.053        0.162      133.338       11.493        0.007      340.510       14.580      855.537
09/21/2013  00:58:00     -135.550      -60.275        3.665       44.304       33.899       28.362     1962.843     1149.152      804.425        1.297        0.196      148.348       21.201        0.020      340.475       14.520      855.602
09/21/2013  00:59:00      -86.933      -11.979        3.040       36.905       48.029       24.446     1361.994     2306.802      597.592        0.599        0.213       87.755       31.290        0.127      340.429       14.443      855.603
09/21/2013  01:00:00      -38.942      -21.318       -1.678       19.165       17.990       10.621      367.311      323.635      112.806        0.139        0.040       44.395        8.790        0.039      340.466       14.506      855.542
09/21/2013  01:01:00      -72.394      -26.789       -6.912       23.065       27.995       12.907      531.982      783.711      166.582        0.374        0.074       77.192        7.391        0.009      340.496       14.557      855.504
09/21/2013  01:02:00      -42.736      -22.869        2.890       31.895       20.869       12.720     1017.278      435.502      161.792        0.199        0.081       48.470       11.235        0.054      340.397       14.390      855.502
09/21/2013  01:03:00      -48.104      -26.320        4.646       35.053       22.741       14.843     1228.688      517.172      220.325        0.250        0.098       54.834       15.719        0.082      340.330       14.276      855.503
09/21/2013  01:04:00      -41.818      -35.475        0.172       30.358       21.278       11.315      921.615      452.768      128.040        0.225        0.075       54.838       10.367        0.036      340.420       14.428      855.457
09/21/2013  01:05:00      -28.809      -48.781       -2.744       28.043       15.981       13.299      786.386      255.378      176.862        0.222        0.061       56.653        4.877        0.007      340.386       14.371      855.416
09/21/2013  01:06:00      -29.982      -63.642        4.076       34.125       43.710       22.840     1164.504     1910.591      521.688        0.428        0.180       70.351       24.487        0.121      340.424       14.433      855.432
09/21/2013  01:07:00      -50.205      -67.226        1.249       27.638       33.980       16.249      763.855     1154.607      264.031        0.461        0.109       83.904       12.608        0.023      340.400       14.395      855.423
09/21/2013  01:08:00      -74.819      -24.193      -13.429       22.367       20.777       14.919      500.262      431.692      222.579        0.376        0.058       78.633       10.413        0.018      340.388       14.375      855.361
09/21/2013  01:09:00      -91.084      -21.383       -3.872       27.934       34.707       18.455      780.313     1204.576      340.578        0.555        0.116       93.560       16.352        0.031      340.303       14.233      855.343
09/21/2013  01:10:00      -45.084      -40.591       11.603       36.671       32.009       18.571     1344.733     1024.607      344.891        0.326        0.136       60.664       17.340        0.082      340.309       14.241      855.402
09/21/2013  01:11:00      -52.356      -55.335        8.123       43.113       40.562       22.601     1858.759     1645.245      510.799        0.494        0.201       76.178       28.033        0.135      340.221       14.090      855.435
09/21/2013  01:12:00      -98.553     -101.623       -2.701       39.666       34.064       20.642     1573.400     1160.366      426.096        1.160        0.158      141.562       18.393        0.017      340.392       14.379      855.390
09/21/2013  01:13:00      -83.363      -20.882        0.862       36.693       23.288       19.364     1346.380      542.334      374.974        0.482        0.113       85.939       19.640        0.052      340.298       14.223      855.354
09/21/2013  01:14:00      -74.677      -28.754      -11.511       23.106       22.032       10.862      533.890      485.388      117.989        0.384        0.057       80.021        6.489        0.007      340.368       14.341      855.358
09/21/2013  01:15:00       -0.675      -33.023        7.560       24.920       15.114       12.534      620.996      228.432      157.106        0.108        0.050       33.030        8.901        0.073      340.260       14.157      855.361
09/21/2013  01:16:00       -5.343      -46.897        0.538       30.150       16.180       14.908      909.012      261.788      222.258        0.181        0.070       47.200       11.875        0.063      340.345       14.302      855.395
09/21/2013  01:17:00      -56.090      -92.970       -3.441       50.292       44.804       28.005     2529.288     2007.386      784.258        0.856        0.266      108.580       26.478        0.059      340.333       14.281      855.457
09/21/2013  01:18:00       -5.161      -29.239        8.647       19.649       40.036       25.108      386.084     1602.880      630.403        0.179        0.131       29.691       16.413        0.306      340.101       13.888      855.433
09/21/2013  01:19:00       -4.626       21.341       21.793        9.854       15.274       11.725       97.103      233.299      137.483        0.071        0.023       21.836        6.523        0.089      339.969       13.666      855.371
09/21/2013  01:20:00       -6.165       36.734        3.108       24.342       17.383       22.449      592.556      302.164      503.944        0.140        0.070       37.247       17.252        0.215      340.056       13.814      855.358
09/21/2013  01:21:00       31.102       18.103        3.573       15.337       13.703       14.141      235.209      187.764      199.981        0.097        0.031       35.987       12.445        0.120      340.078       13.852      855.339
09/21/2013  01:22:00        9.691       18.778        8.723       20.438       11.230        9.983      417.707      126.104       99.660        0.058        0.032       21.131        7.674        0.132      340.013       13.741      855.306
09/21/2013  01:23:00      -31.923        1.851       -3.472       11.605       16.745        7.022      134.672      280.405       49.306        0.075        0.023       31.976        5.143        0.026      340.093       13.876      855.330
09/21/2013  01:24:00       -9.911      -34.305        4.985       18.037       23.840       13.169      325.331      568.357      173.433        0.118        0.053       35.707        7.705        0.047      340.183       14.027      855.342
09/21/2013  01:25:00      -54.512      -38.229        0.701       24.078       18.032       10.663      579.753      325.147      113.695        0.273        0.051       66.581        7.681        0.013      340.229       14.105      855.339
09/21/2013  01:26:00      -24.652       -3.865        4.571       29.673       18.106        8.535      880.466      327.823       72.848        0.096        0.064       24.953        6.471        0.067      340.148       13.967      855.312
09/21/2013  01:27:00        6.553       44.685        2.126       10.179       34.140       13.241      103.611     1165.550      175.326        0.174        0.072       45.163       18.515        0.168      339.880       13.516      855.233
09/21/2013  01:28:00       21.902       66.231       -1.466       14.629       15.043       12.787      214.016      226.293      163.502        0.274        0.030       69.759       11.278        0.026      339.916       13.578      855.201
09/21/2013  01:29:00       -2.966       29.342        6.288       12.788       17.992       15.610      163.523      323.710      243.673        0.082        0.037       29.492       11.732        0.158      339.789       13.364      855.204
09/21/2013  01:30:00       -2.586       12.690        3.079        8.635       15.507        7.487       74.571      240.460       56.062        0.027        0.019       12.950        9.444        0.532      339.796       13.375      855.241
09/21/2013  01:31:00        8.266      -20.802       -3.585        9.066       17.362       10.425       82.185      301.436      108.680        0.050        0.025       22.384       10.071        0.202      339.764       13.321      855.293
09/21/2013  01:32:00       13.692       18.385       21.067       12.159       14.343       15.361      147.842      205.716      235.967        0.078        0.029       22.923       13.680        0.356      339.579       13.009      855.310
09/21/2013  01:33:00       66.180       40.937       26.763       31.193       12.871       13.074      973.001      165.673      170.919        0.404        0.065       77.818       11.650        0.022      339.496       12.870      855.242
09/21/2013  01:34:00       59.459       46.891       -4.478       19.789       14.906       12.477      391.600      222.175      155.672        0.326        0.038       75.724       11.409        0.023      339.579       13.008      855.163
09/21/2013  01:35:00        6.885       36.297       -9.283        6.796       22.966        6.468       46.184      527.449       41.833        0.103        0.031       36.945       11.107        0.090      339.913       13.574      855.179
09/21/2013  01:36:00       11.797       -6.692        0.160        8.184        7.399        2.768       66.981       54.750        7.660        0.016        0.006       13.563        4.164        0.094      339.979       13.683      855.232
09/21/2013  01:37:00       17.928        9.648       20.675       13.047       27.259       26.261      170.226      743.039      689.652        0.122        0.080       20.359       24.912        1.497      339.832       13.436      855.240
09/21/2013  01:38:00       60.723       40.012       24.270       31.796       21.569       23.049     1010.965      465.229      531.237        0.394        0.100       72.720       22.081        0.092      339.575       13.002      855.186
09/21/2013  01:39:00       66.347        7.251        6.643       23.093       27.047        9.609      533.291      731.528       92.334        0.293        0.068       66.742       12.488        0.035      339.622       13.082      855.151
09/21/2013  01:40:00       15.048       -9.350       11.668       11.981       12.431        9.617      143.545      154.525       92.494        0.042        0.020       17.716        8.610        0.236      339.562       12.979      855.202
09/21/2013  01:41:00      -10.619      -16.893       15.402       18.486       31.226       14.455      341.715      975.080      208.951        0.108        0.076       19.954       16.856        0.714      339.758       13.312      855.245
09/21/2013  01:42:00       -1.943      -37.064        2.013       13.643       14.728       11.817      186.126      216.908      139.652        0.096        0.027       37.115       10.972        0.087      339.893       13.538      855.279
09/21/2013  01:43:00       -7.881       10.944       10.394       19.582        8.935       10.066      383.436       79.838      101.325        0.043        0.028       13.487        6.880        0.260      339.777       13.344      855.273
09/21/2013  01:44:00       44.841       39.260       25.919       29.766       22.181       27.017      886.008      491.981      729.902        0.317        0.105       59.600       16.955        0.081      339.741       13.283      855.200
09/21/2013  01:45:00        3.683        5.820        9.894       18.198       31.527       13.559      331.166      993.943      183.839        0.083        0.075        6.887        7.026        1.041      339.592       13.032      855.132
09/21/2013  01:46:00       32.659       -2.943        6.789       32.923       19.587       16.799     1083.904      383.647      282.195        0.144        0.087       32.791       14.107        0.185      339.552       12.962      855.126
09/21/2013  01:47:00       27.333      -23.887        6.378       35.721       27.214       15.418     1275.964      740.593      237.715        0.181        0.113       36.299       11.477        0.100      339.640       13.112      855.211
09/21/2013  01:48:00        8.949        0.403       21.955       15.361       16.806       11.941      235.956      282.448      142.597        0.061        0.033        8.958        6.412        0.512      339.662       13.151      855.265
09/21/2013  01:49:00       38.947       31.353       29.019       29.775       16.084       14.446      886.572      258.683      208.690        0.235        0.068       49.999       14.335        0.082      339.623       13.084      855.203
09/21/2013  01:50:00       71.544       48.773        8.873       21.025       19.685       25.487      442.048      387.491      649.584        0.453        0.074       86.587       10.779        0.015      339.850       13.467      855.136
09/21/2013  01:51:00       72.160       48.040       31.304       13.946       12.800       17.698      194.488      163.835      313.206        0.458        0.034       86.688        8.821        0.010      339.828       13.429      855.140
09/21/2013  01:52:00       39.226       25.275        7.950       20.363       15.975       13.433      414.636      255.188      180.441        0.155        0.043       46.664        7.331        0.025      339.750       13.297      855.157
09/21/2013  01:53:00       18.687        7.604        0.625       21.291       15.231        8.159      453.294      231.990       66.564        0.058        0.038       20.175        8.062        0.160      339.789       13.364      855.154
09/21/2013  01:54:00       46.537       36.823       33.633       34.850       27.042       27.436     1214.498      731.275      752.743        0.368        0.135       59.343       25.460        0.184      339.721       13.248      855.141
09/21/2013  01:55:00       12.314       84.677       95.380       33.756       42.871       18.634     1139.438     1837.920      347.235        0.987        0.166       85.568       20.146        0.055      339.490       12.859      855.176
09/21/2013  01:56:00       34.736       51.234       67.347       32.826       34.758       21.132     1077.574     1208.095      446.552        0.555        0.137       61.899       18.437        0.089      339.503       12.880      855.216
09/21/2013  01:57:00       36.738       12.098       26.352       39.382       24.024       27.764     1550.936      577.164      770.854        0.254        0.145       38.679       20.545        0.282      339.466       12.817      855.192
09/21/2013  01:58:00        9.941       41.927       62.207       26.342       29.225       19.791      693.901      854.126      391.679        0.383        0.097       43.089       16.470        0.146      339.434       12.763      855.190
09/21/2013  01:59:00        5.664       18.802       40.738       20.230       43.100       35.239      409.272     1857.639     1241.763        0.278        0.175       19.636       34.495        3.086      339.356       12.632      855.241
09/21/2013  02:00:00       90.415       25.028       25.703       47.768       38.042       34.027     2281.811     1447.203     1157.817        0.717        0.244       93.815       27.524        0.086      339.321       12.573      855.251
09/21/2013  02:01:00      104.493       33.644       11.143       49.047       36.862       29.606     2405.611     1358.833      876.530        0.841        0.232      109.776       16.954        0.024      339.341       12.606      855.235
09/21/2013  02:02:00       58.054       25.251       22.921       42.812       33.962       34.020     1832.901     1153.429     1157.391        0.434        0.207       63.308       17.499        0.076      339.291       12.524      855.204
09/21/2013  02:03:00       70.174       37.651       15.430       47.897       43.334       30.086     2294.134     1877.855      905.187        0.583        0.254       79.637       24.299        0.093      339.219       12.401      855.134
09/21/2013  02:04:00       85.971       72.059       11.959       42.939       45.534       38.280     1843.792     2073.371     1465.383        0.905        0.269      112.176       32.081        0.082      339.449       12.789      855.081
09/21/2013  02:05:00       63.153       54.129       16.764       39.822       32.861       26.687     1585.821     1079.842      712.176        0.529        0.169       83.176       19.875        0.057      339.358       12.636      855.134
09/21/2013  02:06:00       41.899       49.903       43.037       35.642       27.044       27.287     1270.333      731.381      744.595        0.442        0.137       65.160       23.333        0.128      339.362       12.643      855.148
09/21/2013  02:07:00       22.101       45.863       64.759       30.811       30.761       19.616      949.326      946.244      384.779        0.453        0.114       50.910       17.679        0.121      339.430       12.758      855.182
09/21/2013  02:08:00        6.517       70.007       83.070       36.620       39.323       25.383     1340.995     1546.266      644.290        0.769        0.177       70.310       23.044        0.107      339.488       12.854      855.209
09/21/2013  02:09:00       31.026      -37.973       16.409       36.385       48.679       37.414     1323.875     2369.638     1399.829        0.388        0.255       49.037       36.572        0.556      339.468       12.822      855.221
09/21/2013  02:10:00        6.845      -76.610       -9.932       27.312       26.475       18.982      745.934      700.929      360.318        0.391        0.090       76.915       10.201        0.018      339.550       12.959      855.203
09/21/2013  02:11:00      -28.277      -24.241       11.101       14.748       31.805       20.422      217.502     1011.555      417.054        0.158        0.082       37.245       11.221        0.091      339.557       12.971      855.114
09/21/2013  02:12:00       -8.634        5.199      -13.301        9.917       13.018       10.885       98.337      169.461      118.485        0.033        0.019       10.079        5.740        0.324      339.435       12.765      855.120
09/21/2013  02:13:00       76.708       25.718       24.472       50.710       25.308       26.665     2571.479      640.476      710.996        0.553        0.196       80.904       19.588        0.059      339.510       12.893      855.135
09/21/2013  02:14:00      111.624       55.579       16.063       59.492       54.008       37.875     3539.300     2916.879     1434.541        1.185        0.395      124.696       14.967        0.014      339.622       13.081      855.089
09/21/2013  02:15:00       27.991       40.128       50.199       58.165       37.837       30.223     3383.173     1431.612      913.423        0.532        0.286       48.926       32.609        0.444      339.580       13.011      855.129
09/21/2013  02:16:00       68.126       -7.997       31.259       50.199       28.480       22.706     2519.961      811.123      515.545        0.476        0.192       68.594       24.268        0.125      339.596       13.036      855.173
09/21/2013  02:17:00       40.873       11.917       21.686       36.085       24.243       26.527     1302.141      587.731      703.671        0.244        0.130       42.575       10.460        0.060      339.594       13.035      855.130
09/21/2013  02:18:00       57.594       23.012       -0.767       46.306       37.768       22.573     2144.213     1426.384      509.535        0.396        0.204       62.021       13.268        0.046      339.672       13.166      855.050
09/21/2013  02:19:00       20.293      -41.859       -3.340       21.456       25.284       23.330      460.351      639.290      544.269        0.191        0.082       46.518       16.267        0.122      339.621       13.081      855.074
09/21/2013  02:20:00      -36.928      -10.319        1.306       34.811       15.657       12.869     1211.789      245.152      165.608        0.155        0.081       38.343       11.048        0.083      339.649       13.128      855.099
09/21/2013  02:21:00      -18.204        5.877       -0.521       11.708       11.820        8.471      137.068      139.715       71.753        0.036        0.017       19.129        6.417        0.113      339.627       13.091      855.095
09/21/2013  02:22:00       30.190       18.732       21.810       18.742       22.639       22.651      351.245      512.537      513.068        0.156        0.069       35.530       15.362        0.187      339.560       12.977      855.099
09/21/2013  02:23:00       -6.454        4.121        3.196       21.127       24.622       19.274      446.357      606.260      371.471        0.075        0.071        7.658       14.415        3.544      339.571       12.995      855.116
09/21/2013  02:24:00       30.752       11.726        8.828       20.534       23.681       16.626      421.640      560.797      276.436        0.121        0.063       32.912        7.991        0.059      339.741       13.282      855.111
09/21/2013  02:25:00       47.450       86.501       59.638       52.292       41.052       45.202     2734.465     1685.290     2043.182        0.988        0.323       98.661       42.711        0.187      339.613       13.065      855.046
09/21/2013  02:26:00        6.675       53.729       57.179       31.759       36.872       31.631     1008.609     1359.574     1000.544        0.478        0.168       54.142       27.590        0.260      339.561       12.978      855.042
09/21/2013  02:27:00       23.600       18.164       30.064       39.950       17.333       16.800     1595.991      300.421      282.231        0.198        0.109       29.780       11.501        0.149      339.589       13.027      855.093
09/21/2013  02:28:00       60.018       43.016       40.175       55.574       28.098       30.520     3088.485      789.483      931.443        0.594        0.240       73.841       36.460        0.244      339.743       13.287      855.111
09/21/2013  02:29:00       24.798      -85.756        9.769       29.957       55.287       37.356      897.399     3056.649     1395.472        0.671        0.267       89.269       36.659        0.169      339.745       13.289      855.068
09/21/2013  02:30:00        8.376        3.360       26.776       26.578       56.164       38.568      706.408     3154.448     1487.475        0.307        0.267        9.025       37.125       16.923      339.707       13.224      854.961
09/21/2013  02:31:00       11.219      -18.160       12.069       14.688       19.692       15.822      215.723      387.763      250.332        0.073        0.043       21.346        6.155        0.083      339.842       13.454      854.947
09/21/2013  02:32:00       55.072      -25.743        3.739       33.377       34.517       20.689     1114.014     1191.395      428.052        0.322        0.137       60.791       18.652        0.094      340.280       14.193      855.022
09/21/2013  02:33:00       18.107       34.265       68.233       34.867       40.748       32.295     1215.694     1660.437     1042.938        0.504        0.196       38.755       28.192        0.529      340.038       13.784      855.030
09/21/2013  02:34:00       60.378      130.448      110.285       67.385       66.471       43.896     4540.734     4418.387     1926.882        2.185        0.544      143.743       32.086        0.050      340.263       14.163      854.983
09/21/2013  02:35:00      107.503       48.787       58.238       57.677       39.126       34.942     3326.604     1530.849     1220.955        1.170        0.304      118.055       28.608        0.059      340.314       14.248      854.980
09/21/2013  02:36:00       59.987       23.929       16.384       42.699       38.492       31.280     1823.202     1481.657      978.467        0.436        0.214       64.583       18.215        0.080      340.277       14.186      854.970
09/21/2013  02:37:00      -67.810       17.143       -8.041       61.432       31.095       28.295     3773.892      966.875      800.631        0.525        0.277       69.944       32.264        0.213      339.997       13.715      854.928
09/21/2013  02:38:00     -102.919      -49.681      -16.674       38.211       23.716       18.577     1460.067      562.433      345.111        0.785        0.118      114.283       20.681        0.033      339.942       13.622      854.967
09/21/2013  02:39:00      -10.382      -47.030       10.620       30.230       27.106       22.806      913.859      734.756      520.104        0.230        0.108       48.163       16.621        0.119      340.177       14.018      855.050
09/21/2013  02:40:00      -28.160      -38.406       10.190       58.615       39.606       30.218     3435.768     1568.669      913.100        0.414        0.296       47.624       28.229        0.351      340.266       14.168      855.066
09/21/2013  02:41:00        7.867        4.387       19.081       27.708       13.808       15.300      767.734      190.663      234.093        0.082        0.060        9.008       16.117        3.202      340.019       13.750      855.010
09/21/2013  02:42:00       47.040       34.081       -3.664       15.027       11.226       18.270      225.803      126.034      333.790        0.204        0.034       58.088       12.899        0.049      339.888       13.531      854.989
09/21/2013  02:43:00       56.719       49.909        3.646       11.694       16.690       13.640      136.738      278.559      186.062        0.316        0.030       75.551       10.436        0.019      339.864       13.491      854.947
09/21/2013  02:44:00       43.839       25.048       18.537       30.592       26.460       21.227      935.846      700.147      450.573        0.249        0.104       50.490       20.996        0.173      339.896       13.544      854.902
09/21/2013  02:45:00       19.417       42.253       45.578       24.661       24.762       21.587      608.152      613.168      465.997        0.296        0.084       46.501       16.978        0.133      339.767       13.327      854.916
09/21/2013  02:46:00       -3.973       20.980       46.984       13.106       22.872       14.231      171.757      523.123      202.526        0.178        0.045       21.353       14.693        0.473      339.735       13.273      854.954
09/21/2013  02:47:00        3.020       22.224       50.874       21.009       23.345       15.829      441.359      544.974      250.571        0.216        0.062       22.428       14.627        0.425      339.626       13.090      854.954
09/21/2013  02:48:00       -3.743       22.631       59.729       13.708       27.058       14.497      187.912      732.141      210.167        0.261        0.057       22.938       16.479        0.516      339.689       13.194      854.957
09/21/2013  02:49:00       -1.691      -71.596      -15.258       55.396       42.171       21.258     3068.757     1778.364      451.914        0.533        0.265       71.616       19.920        0.077      340.059       13.817      854.976
09/21/2013  02:50:00      -93.457      -43.421        0.806       64.241       30.470       20.539     4126.966      928.400      421.837        0.805        0.274      103.051       26.142        0.064      339.752       13.301      854.978
09/21/2013  02:51:00      -89.056      -90.265        1.541       67.526       49.799       36.676     4559.774     2479.920     1345.158        1.223        0.419      126.802       33.695        0.071      339.719       13.244      854.997
09/21/2013  02:52:00       81.607       46.051       17.119       76.892       42.453       43.051     5912.417     1802.251     1853.350        0.932        0.478       93.703       34.376        0.135      340.369       14.343      854.909
09/21/2013  02:53:00      107.789       75.088       51.270       94.014       47.371       43.451     8838.694     2244.030     1888.016        1.643        0.649      131.365       30.604        0.054      340.229       14.103      854.814
09/21/2013  02:54:00       41.693       -3.968       17.861       35.404       19.562       14.952     1253.421      382.672      223.555        0.197        0.093       41.882       16.016        0.146      340.368       14.340      854.826
09/21/2013  02:55:00       37.038       -6.923       22.328       31.732       37.826       21.500     1006.941     1430.827      462.258        0.241        0.145       37.679       20.178        0.287      340.356       14.319      854.829
09/21/2013  02:56:00      -16.640        0.406       25.979       33.435       26.734       24.560     1117.891      714.706      603.196        0.169        0.122       16.645       25.103        2.275      340.370       14.345      854.849
09/21/2013  02:57:00      -38.745      -77.299       -8.395       41.628       49.923       21.458     1732.924     2492.277      460.446        0.612        0.234       86.465       22.060        0.065      340.780       15.037      854.888
09/21/2013  02:58:00      -19.353      -12.913        7.888       38.518       20.046       17.100     1483.628      401.841      292.412        0.139        0.109       23.265       23.095        0.985      340.458       14.493      854.890
09/21/2013  02:59:00        7.900       23.050       27.738       19.303       23.809       21.793      372.597      566.863      474.913        0.139        0.071       24.367       19.171        0.619      340.127       13.933      854.873
09/21/2013  03:00:00       16.430      -20.451       11.817       25.270       44.672       26.816      638.565     1995.605      719.107        0.209        0.168       26.233       32.533        1.538      339.864       13.490      854.867
09/21/2013  03:01:00      -40.117      -32.153       -8.628       43.668       37.608       17.821     1906.920     1414.368      317.579        0.318        0.182       51.412        8.894        0.030      339.970       13.668      854.887
09/21/2013  03:02:00       20.463       -3.982       11.294       12.931       21.846       13.571      167.215      477.260      184.162        0.070        0.041       20.847        7.943        0.145      339.980       13.685      854.900
09/21/2013  03:03:00       45.371        6.145        6.893       30.099       33.956       13.446      905.957     1153.030      180.798        0.219        0.112       45.785       15.011        0.107      340.265       14.164      854.927
09/21/2013  03:04:00        5.093       55.037       68.355       26.328       38.860       40.006      693.163     1510.126     1600.508        0.576        0.190       55.272       33.232        0.362      339.941       13.620      854.925
09/21/2013  03:05:00       35.550       14.617       12.991       24.522       24.605       23.951      601.353      605.407      573.652        0.171        0.089       38.438       15.256        0.158      339.993       13.708      854.861
09/21/2013  03:06:00       26.063       36.562       52.744       46.055       34.988       24.057     2121.026     1224.175      578.735        0.436        0.196       44.900       18.099        0.162      339.784       13.354      854.774
09/21/2013  03:07:00      -14.661       12.378       21.998       11.426       16.438       12.422      130.555      270.195      154.303        0.070        0.028       19.187        8.023        0.175      339.883       13.522      854.787
09/21/2013  03:08:00      -97.166       36.232       -7.146       46.843       23.978       11.486     2194.250      574.933      131.920        0.685        0.145      103.701        8.907        0.007      339.751       13.298      854.820
09/21/2013  03:09:00      -94.631       27.800      -11.413       51.142       20.242       16.239     2615.553      409.751      263.705        0.657        0.164       98.630        5.686        0.003      339.720       13.247      854.841
09/21/2013  03:10:00       37.344       23.043        1.854       33.884       78.226       22.594     1148.133     6119.275      510.484        0.485        0.389       43.881       15.197        0.120      340.078       13.851      854.824
09/21/2013  03:11:00      102.890     -147.707      -21.252       47.080       36.377       19.068     2216.566     1323.307      363.606        1.838        0.195      180.011       13.452        0.006      339.921       13.585      854.857
09/21/2013  03:12:00       33.213       50.186       80.963       53.528       68.655       66.253     2865.204     4713.500     4389.504        1.107        0.598       60.181       59.609        0.981      339.816       13.410      854.846
09/21/2013  03:13:00       56.855      -26.379       63.769       74.487       95.698       81.597     5548.273     9158.175     6658.009        1.468        1.068       62.677       78.310        1.561      339.813       13.404      854.851
09/21/2013  03:14:00       -8.385       19.922       72.652       38.510       77.815       49.641     1483.039     6055.238     2464.206        0.787        0.500       21.615       52.236        5.840      339.946       13.628      854.868
09/21/2013  03:15:00       -2.799       13.431       29.715       26.180       31.294       26.246      685.372      979.315      688.861        0.171        0.118       13.720       21.497        2.455      339.931       13.602      854.857
09/21/2013  03:16:00      -68.954       56.840      -29.304       71.401       30.648       21.519     5098.117      939.285      463.056        0.767        0.325       89.361       16.269        0.033      339.987       13.697      854.851
09/21/2013  03:17:00     -180.301       27.015      -15.568       42.571       28.357       18.928     1812.283      804.107      358.259        1.823        0.149      182.314       14.573        0.006      339.873       13.503      854.876
09/21/2013  03:18:00      -97.385       -5.847      -11.220       43.186       16.690       14.405     1865.000      278.566      207.490        0.600        0.118       97.560       17.108        0.031      339.906       13.560      854.885
09/21/2013  03:19:00      115.327       64.333       13.990       58.124       50.035       36.276     3378.438     2503.471     1315.959        1.241        0.360      132.057       32.234        0.060      339.895       13.541      854.812
09/21/2013  03:20:00       27.221       66.532       74.728       57.600       45.601       34.784     3317.802     2079.473     1209.960        0.868        0.330       71.885       26.678        0.138      339.902       13.554      854.759
09/21/2013  03:21:00       14.576       43.971       53.052       27.505       28.673       22.001      756.522      822.158      484.063        0.351        0.103       46.324       18.850        0.166      340.087       13.865      854.773
09/21/2013  03:22:00       36.454      -17.025       23.231       37.433       24.871       20.890     1401.200      618.545      436.372        0.231        0.123       40.234       18.505        0.212      340.227       14.101      854.786
09/21/2013  03:23:00       14.933      -11.991       12.844       17.329       17.592        9.322      300.295      309.465       86.903        0.061        0.035       19.152        7.372        0.148      340.248       14.138      854.788
09/21/2013  03:24:00      -34.691      -14.358       -6.615       21.378       14.432        5.957      457.034      208.288       35.482        0.108        0.035       37.544        6.322        0.028      340.160       13.988      854.763
09/21/2013  03:25:00      -17.756       56.928       -5.295       26.776       26.520        9.873      716.967      703.294       97.470        0.255        0.076       59.633        9.117        0.023      340.207       14.070      854.746
09/21/2013  03:26:00       67.941       54.626        9.795       24.529       14.011       14.598      601.668      196.304      213.103        0.435        0.051       87.178        8.417        0.009      340.251       14.143      854.745
09/21/2013  03:27:00       55.345       13.159        5.500       18.450       19.544        7.340      340.385      381.972       53.879        0.202        0.039       56.888        4.679        0.007      340.106       13.897      854.774
09/21/2013  03:28:00       22.099       29.937       42.714       34.377       27.370       35.765     1181.808      749.118     1279.101        0.321        0.161       37.210       35.511        0.911      339.910       13.567      854.774
09/21/2013  03:29:00      -10.730        0.583       58.602       14.918       49.355       23.607      222.534     2435.910      557.289        0.338        0.161       10.746       25.663        5.703      340.120       13.922      854.770
09/21/2013  03:30:00      -15.276      -33.953       24.655       22.310       32.964       23.603      497.743     1086.646      557.118        0.207        0.107       37.231       12.053        0.105      340.037       13.781      854.772
09/21/2013  03:31:00       24.739       43.798       17.176       28.509       26.168       21.945      812.762      684.780      481.566        0.240        0.099       50.301       10.130        0.041      339.966       13.663      854.739
09/21/2013  03:32:00        6.970      -36.114        5.034       15.846       22.487       17.810      251.099      505.661      317.213        0.123        0.054       36.780       16.222        0.195      340.049       13.801      854.733
09/21/2013  03:33:00       18.274      -10.297       18.700       29.127       35.060       27.430      848.406     1229.206      752.426        0.181        0.142       20.975       12.515        0.356      339.889       13.532      854.725
09/21/2013  03:34:00       38.135       21.995       20.125       47.567       35.463       27.735     2262.586     1257.612      769.207        0.332        0.214       44.023       23.278        0.280      339.767       13.328      854.693
09/21/2013  03:35:00       86.399       38.205       21.455       41.615       32.655       21.043     1731.798     1066.344      442.793        0.631        0.162       94.469       18.927        0.040      339.838       13.446      854.667
09/21/2013  03:36:00       73.544       35.490       24.034       34.258       23.490       19.985     1173.611      551.798      399.410        0.468        0.106       81.660       12.125        0.022      339.760       13.314      854.665
09/21/2013  03:37:00       41.652       -0.858       20.761       37.844       22.982       19.895     1432.136      528.161      395.791        0.226        0.118       41.661       13.813        0.110      339.756       13.308      854.670
09/21/2013  03:38:00       38.194       -0.347       20.619       20.105       23.060       15.409      404.201      531.752      237.444        0.153        0.059       38.195        6.728        0.031      339.741       13.282      854.695
09/21/2013  03:39:00       27.244      -23.484        5.317       19.084       11.321       10.544      364.205      128.174      111.167        0.096        0.030       35.969        3.544        0.010      339.824       13.424      854.735
09/21/2013  03:40:00      -29.580        2.023        5.951       33.289       22.613       13.237     1108.133      511.339      175.220        0.135        0.090       29.649       18.000        0.369      339.818       13.413      854.750
09/21/2013  03:41:00       69.011       31.356       13.627       28.666       23.205       18.174      821.753      538.456      330.301        0.381        0.085       75.800       19.328        0.065      340.184       14.030      854.696
09/21/2013  03:42:00       99.874       64.701       12.102       34.368       32.232       22.558     1181.169     1038.918      508.843        0.852        0.136      119.000       19.254        0.026      340.027       13.765      854.600
09/21/2013  03:43:00       32.033        6.429       26.061       40.116       25.227       19.061     1609.267      636.420      363.306        0.218        0.130       32.671       22.178        0.461      339.786       13.358      854.577
09/21/2013  03:44:00       36.823       21.890       24.596       26.142       31.818       22.065      683.401     1012.382      486.854        0.231        0.109       42.839       18.350        0.183      339.923       13.589      854.565
09/21/2013  03:45:00        1.611      -19.763       -5.260       16.608       28.659        8.644      275.810      821.330       74.721        0.080        0.059       19.829        7.095        0.128      339.861       13.485      854.555
09/21/2013  03:46:00       27.488       25.552       17.627       14.003       15.663        7.410      196.085      245.334       54.909        0.111        0.025       37.530        4.051        0.012      339.822       13.418      854.547
09/21/2013  03:47:00       45.479       34.543       12.072       16.057       11.926       10.239      257.832      142.225      104.831        0.196        0.025       57.111        9.119        0.025      339.769       13.328      854.555
09/21/2013  03:48:00      -49.671      -20.103        5.973       43.924       25.697       15.104     1929.300      660.313      228.126        0.286        0.141       53.585       15.737        0.086      339.804       13.388      854.605
09/21/2013  03:49:00      -20.857      -25.588        4.769       41.932       27.036       20.938     1758.270      730.928      438.395        0.202        0.146       33.012       19.611        0.353      339.718       13.243      854.607
09/21/2013  03:50:00        0.515       22.914       43.378       16.159       38.843       41.085      261.115     1508.809     1687.941        0.293        0.173       22.920       37.350        2.656      339.708       13.228      854.610
09/21/2013  03:51:00       17.054        4.896       40.743       24.165       34.407       32.852      583.966     1183.815     1079.259        0.241        0.142       17.743       25.709        2.100      339.813       13.405      854.578
09/21/2013  03:52:00      104.991      -80.267       -5.994       31.683       40.776       22.190     1003.789     1662.676      492.417        1.033        0.158      132.159       25.991        0.039      339.803       13.386      854.575
09/21/2013  03:53:00      121.217      -96.189      -19.687       66.886       59.696       44.385     4473.676     3563.629     1970.032        1.717        0.500      154.745       40.863        0.070      339.757       13.307      854.603
09/21/2013  03:54:00       49.691       24.078       77.027       58.726       68.096       60.021     3448.724     4637.051     3602.539        1.033        0.584       55.217       52.550        0.906      339.617       13.073      854.623
09/21/2013  03:55:00       21.693      106.116      131.075       59.162       56.779       45.071     3500.086     3223.904     2031.410        1.883        0.438      108.311       38.125        0.124      339.745       13.288      854.577
09/21/2013  03:56:00       92.886      -76.740       21.387       42.851       82.333       49.756     1836.222     6778.683     2475.707        1.303        0.555      120.486       55.998        0.216      339.847       13.461      854.565
09/21/2013  03:57:00       15.240      -86.037        7.110       68.727       43.150       28.542     4723.410     1861.957      814.630        0.754        0.370       87.376       19.091        0.048      339.933       13.607      854.602
09/21/2013  03:58:00     -119.784     -105.880       -4.557       57.913       60.082       32.775     3353.881     3609.901     1074.187        1.681        0.402      159.872       20.443        0.016      339.736       13.274      854.621
09/21/2013  03:59:00      -64.400      -90.384       -0.665       36.524       62.158       24.619     1334.018     3863.659      606.114        0.906        0.290      110.981       13.547        0.015      339.860       13.482      854.612
09/21/2013  04:00:00      -23.268      -74.331        3.351       32.168       40.908       19.881     1034.796     1673.500      395.234        0.459        0.155       77.888       16.755        0.046      339.992       13.707      854.594
09/21/2013  04:01:00      -12.503      -31.648       11.807       22.238       30.402       15.477      494.514      924.307      239.523        0.148        0.083       34.028       14.953        0.193      339.964       13.658      854.603
09/21/2013  04:02:00       18.317      -53.138       -4.483       20.289       33.824       14.547      411.625     1144.041      211.629        0.247        0.088       56.206        8.108        0.021      340.074       13.843      854.634
09/21/2013  04:03:00        8.709      -51.937        3.668       30.017       36.564       25.881      901.044     1336.927      669.845        0.285        0.145       52.662       12.836        0.059      340.102       13.890      854.671
09/21/2013  04:04:00      -37.973     -143.956       -1.636       67.142       48.247       35.755     4507.981     2327.761     1278.401        1.514        0.406      148.880       18.408        0.015      340.301       14.227      854.694
09/21/2013  04:05:00       81.660      -51.998       10.493       62.404       76.359       42.526     3894.213     5830.676     1808.430        1.051        0.577       96.810       47.791        0.244      340.423       14.432      854.652
09/21/2013  04:06:00       55.121      137.600      123.508       57.192       47.494       30.582     3270.960     2255.691      935.279        2.184        0.323      148.230       22.549        0.023      340.035       13.776      854.579
09/21/2013  04:07:00       33.427       57.415       94.347       41.142       62.765       39.536     1692.686     3939.408     1563.064        1.025        0.360       66.437       45.382        0.467      340.110       13.904      854.535
09/21/2013  04:08:00       22.833        4.089       46.825       39.472       46.848       32.640     1558.064     2194.772     1065.392        0.377        0.241       23.196       30.358        1.713      340.116       13.913      854.518
09/21/2013  04:09:00       76.466      -78.463        4.510       47.194       54.927       22.451     2227.273     3016.927      504.068        0.888        0.287      109.560       24.570        0.050      340.228       14.104      854.488
09/21/2013  04:10:00       85.040     -109.774       -7.107       41.547       33.216       24.396     1726.169     1103.291      595.165        1.138        0.171      138.860       22.768        0.027      340.309       14.239      854.502
09/21/2013  04:11:00       28.753      -88.199      -10.895       50.961       26.383       20.413     2597.050      696.060      416.693        0.622        0.185       92.768       10.935        0.014      340.165       13.997      854.555
09/21/2013  04:12:00       18.902      -59.644       -2.766       34.752       30.147       28.574     1207.720      908.828      816.456        0.343        0.147       62.568       19.114        0.093      340.138       13.950      854.573
09/21/2013  04:13:00       36.544      -88.348       -5.330       34.184       35.353       29.450     1168.534     1249.849      867.312        0.623        0.164       95.608       19.052        0.040      340.124       13.926      854.560
09/21/2013  04:14:00       71.955      -67.358        1.023       38.330       33.187       16.032     1469.164     1101.404      257.031        0.627        0.141       98.563       17.403        0.031      339.974       13.675      854.530
09/21/2013  04:15:00       22.993      -62.639      -18.668       24.746       32.758       21.148      612.350     1073.117      447.221        0.347        0.107       66.726       23.223        0.121      339.942       13.622      854.527
09/21/2013  04:16:00       -4.800      -10.552       -1.455       13.359       16.165       12.152      178.464      261.323      147.672        0.036        0.029       11.592       11.170        0.928      339.903       13.557      854.509
09/21/2013  04:17:00        4.250      -32.962        7.033       28.992       26.346       15.279      840.545      694.094      233.461        0.146        0.088       33.235       11.499        0.120      339.911       13.568      854.473
09/21/2013  04:18:00       41.714      -17.835       14.508       25.579       26.579       21.326      654.291      706.463      454.792        0.204        0.091       45.367       20.594        0.206      339.763       13.321      854.442
09/21/2013  04:19:00      -35.420      -21.220       10.542       37.264       27.258       14.446     1388.604      743.006      208.681        0.208        0.117       41.290       17.484        0.179      339.820       13.415      854.462
09/21/2013  04:20:00      -12.658      -23.379        3.500       22.848       19.645       10.435      522.022      385.923      108.898        0.087        0.051       26.586        6.651        0.063      339.867       13.493      854.491
09/21/2013  04:21:00       -0.537       19.318       27.037        9.363       12.025       14.095       87.661      144.612      198.663        0.077        0.022       19.326       10.224        0.280      339.738       13.278      854.441
09/21/2013  04:22:00        3.904       60.262       70.014       24.243       31.957       22.279      587.726     1021.261      496.360        0.533        0.105       60.388       19.061        0.100      339.651       13.129      854.314
09/21/2013  04:23:00        4.258       69.804       85.814       22.214       40.428       24.445      493.454     1634.458      597.580        0.749        0.136       69.934       28.065        0.161      339.664       13.153      854.291
09/21/2013  04:24:00       12.217       -1.481       25.072       18.632       40.900       28.001      347.166     1672.820      784.067        0.179        0.140       12.306       32.102        6.805      339.684       13.188      854.323
09/21/2013  04:25:00      -14.059      -20.282       -6.855       29.730       23.841       14.734      883.870      568.411      217.102        0.116        0.083       24.679       15.536        0.396      339.752       13.300      854.332
09/21/2013  04:26:00      -46.717       -2.396       -4.191       14.888       21.584        9.232      221.660      465.852       85.229        0.149        0.039       46.779        5.701        0.015      339.644       13.118      854.312
09/21/2013  04:27:00      -44.815      -16.015       -5.418       13.797       18.947        8.291      190.357      358.994       68.732        0.146        0.031       47.591        8.637        0.033      339.651       13.130      854.327
09/21/2013  04:28:00       -9.985      -58.200       -6.911       23.349       21.199       13.578      545.185      449.376      184.363        0.236        0.059       59.050        2.625        0.002      339.780       13.349      854.368
09/21/2013  04:29:00       16.539       -5.560       10.100       25.591       41.005       24.698      654.919     1681.385      609.967        0.168        0.147       17.449       29.335        2.826      339.797       13.378      854.350
09/21/2013  04:30:00      -21.473      -35.891       -0.659       33.490       22.119       11.539     1121.558      489.259      133.159        0.175        0.087       41.824        9.266        0.049      339.811       13.400      854.325
09/21/2013  04:31:00      -56.476      -49.967        4.424       41.316       28.623       16.516     1707.048      819.250      272.789        0.425        0.140       75.407       13.508        0.032      339.705       13.221      854.330
09/21/2013  04:32:00      -68.309      -46.522       -5.182       46.257       24.657       17.439     2139.716      607.968      304.108        0.495        0.153       82.646       20.128        0.059      339.704       13.220      854.332
09/21/2013  04:33:00     -102.684      -39.702      -12.646       17.523       35.520       13.186      307.068     1261.680      173.861        0.701        0.087      110.092       10.769        0.010      339.764       13.322      854.296
09/21/2013  04:34:00     -107.485       14.579       -6.511       14.803       17.482       11.730      219.143      305.632      137.584        0.624        0.033      108.470        9.690        0.008      339.739       13.279      854.238
09/21/2013  04:35:00      -81.350       13.455       -8.775       27.357       17.721       14.148      748.402      314.030      200.160        0.407        0.063       82.455        6.374        0.006      339.634       13.102      854.202
09/21/2013  04:36:00      -69.365       -1.000       -6.240       19.771       22.637        9.959      390.903      512.455       99.188        0.293        0.050       69.372       10.433        0.023      339.629       13.095      854.213
09/21/2013  04:37:00      -55.602      -27.762       -1.202       19.798       12.325        7.502      391.970      151.902       56.280        0.223        0.030       62.148        7.968        0.016      339.709       13.228      854.267
09/21/2013  04:38:00      -39.480      -26.700        7.703       33.311       21.800       14.942     1109.655      475.235      223.273        0.207        0.090       47.661       16.708        0.123      339.711       13.232      854.310
09/21/2013  04:39:00       22.505      -11.271       -2.265       20.367       41.372       18.421      414.814     1711.674      339.333        0.155        0.123       25.169       17.976        0.510      339.657       13.141      854.320
09/21/2013  04:40:00       54.908       62.143       51.539       59.083       54.582       42.492     3490.754     2979.240     1805.538        0.890        0.414       82.926       35.925        0.188      339.451       12.793      854.291
09/21/2013  04:41:00       94.019       38.055       10.544       58.482       47.942       25.753     3420.106     2298.429      663.235        0.839        0.319      101.429       16.256        0.026      339.353       12.627      854.284
09/21/2013  04:42:00       20.098       -5.732        3.563       22.992       21.384       16.513      528.644      457.254      272.684        0.085        0.063       20.899       12.737        0.371      339.519       12.907      854.294
09/21/2013  04:43:00       19.506        5.834       -3.426       10.823       10.187        5.965      117.138      103.771       35.586        0.034        0.013       20.360        4.020        0.039      339.595       13.038      854.303
09/21/2013  04:44:00       29.779       20.595        9.747        7.854        8.012        7.109       61.679       64.197       50.534        0.079        0.009       36.207        4.459        0.015      339.636       13.105      854.287
09/21/2013  04:45:00       28.524       24.746        6.966       19.098       10.167       10.676      364.715      103.372      113.982        0.103        0.029       37.762        6.808        0.033      339.606       13.058      854.244
09/21/2013  04:46:00       71.118       48.034        9.446       24.313       20.922       13.793      591.140      437.730      190.246        0.434        0.061       85.819       11.929        0.019      339.381       12.675      854.215
09/21/2013  04:47:00      105.662       57.304        9.618       35.062       19.974       17.731     1229.362      398.957      314.384        0.824        0.097      120.201        8.324        0.005      339.434       12.764      854.200
09/21/2013  04:48:00        4.560      -13.656        9.280       18.175       32.936       26.587      330.342     1084.752      706.847        0.121        0.106       14.398       20.856        2.098      339.382       12.678      854.238
09/21/2013  04:49:00      -10.174       15.977       -4.627       12.561       19.687        9.147      157.769      387.562       83.659        0.050        0.031       18.941       10.448        0.304      339.613       13.067      854.210
09/21/2013  04:50:00      -38.059       42.161      -12.668       25.728       23.686        9.233      661.937      561.031       85.246        0.235        0.065       56.799        5.755        0.010      339.534       12.934      854.182
09/21/2013  04:51:00      -55.702       -6.903       -5.940       16.151       21.594       11.461      260.844      466.311      131.354        0.202        0.043       56.128        9.175        0.027      339.472       12.829      854.232
09/21/2013  04:52:00        3.617      -20.620        1.984       19.819       15.624       15.807      392.794      244.124      249.857        0.066        0.044       20.935       12.048        0.331      339.535       12.935      854.231
09/21/2013  04:53:00       12.753       30.892        2.589       14.632       24.469       15.272      214.082      598.750      233.234        0.108        0.052       33.421        9.572        0.082      339.548       12.955      854.146
09/21/2013  04:54:00        4.975       59.672       -7.319       11.409       13.353       11.883      130.171      178.308      141.208        0.204        0.022       59.879        8.155        0.019      339.525       12.920      854.067
09/21/2013  04:55:00      -29.297       20.762      -12.797       26.664       34.115        5.277      710.979     1163.826       27.846        0.168        0.095       35.908        5.507        0.024      339.511       12.895      854.084
09/21/2013  04:56:00     -105.012      -24.497      -11.524       14.561       17.885       10.641      212.013      319.857      113.231        0.620        0.032      107.831        8.168        0.006      339.557       12.972      854.158
09/21/2013  04:57:00      -35.108       -7.885       -2.660       26.686       14.708        6.878      712.138      216.314       47.310        0.114        0.049       35.983       11.530        0.103      339.478       12.837      854.161
09/21/2013  04:58:00       -3.128       26.748        2.213       12.387        8.755        7.099      153.442       76.659       50.400        0.051        0.014       26.930        6.951        0.067      339.535       12.933      854.102
09/21/2013  04:59:00        6.016       33.598       -2.489       18.830       20.582       11.125      354.583      423.636      123.764        0.104        0.045       34.132       12.017        0.124      339.513       12.897      854.062
09/21/2013  05:00:00      -10.961       22.261       -3.806       13.245       32.843        9.983      175.418     1078.680       99.654        0.099        0.068       24.814        6.593        0.071      339.544       12.951      854.100
09/21/2013  05:01:00       23.082       22.919       25.239       20.212       48.721       39.315      408.513     2373.749     1545.696        0.301        0.216       32.528       42.353        1.695      339.493       12.865      854.130
09/21/2013  05:02:00        7.881       76.139       88.343       19.387       40.837       17.977      375.854     1667.625      323.168        0.801        0.118       76.546       22.194        0.084      339.361       12.643      854.110
09/21/2013  05:03:00       15.726        0.932       24.040       35.784       34.972       30.498     1280.526     1223.044      930.152        0.213        0.172       15.753       26.373        2.803      339.345       12.615      854.108
09/21/2013  05:04:00        4.466       20.971       29.844       16.710       15.779       10.711      279.219      248.991      114.728        0.100        0.032       21.442       10.328        0.232      339.375       12.667      854.122
09/21/2013  05:05:00        5.226       27.657       51.375       17.963       36.718       23.135      322.674     1348.229      535.208        0.282        0.110       28.146       26.417        0.881      339.367       12.652      854.128
09/21/2013  05:06:00        6.882       59.527       98.811       30.514       40.484       24.299      931.128     1638.955      590.455        0.826        0.158       59.923       25.442        0.180      339.453       12.797      854.125
09/21/2013  05:07:00       -4.118       57.810       88.515       22.926       39.343       23.417      525.620     1547.889      548.371        0.691        0.131       57.956       23.201        0.160      339.390       12.690      854.086
09/21/2013  05:08:00       34.635       57.408       63.769       36.839       40.473       33.277     1357.105     1638.052     1107.368        0.633        0.205       67.047       26.599        0.157      339.307       12.550      854.037
09/21/2013  05:09:00        9.278        8.119       40.371       31.442       36.282       29.356      988.614     1316.391      861.787        0.247        0.158       12.329       29.148        5.589      339.320       12.573      854.094
09/21/2013  05:10:00       24.668       27.762       49.427       58.366       27.775       23.828     3406.593      771.454      567.773        0.428        0.237       37.138       22.264        0.359      339.281       12.506      854.111
09/21/2013  05:11:00      109.577       32.277       18.160       48.679       36.347       29.113     2369.666     1321.131      847.587        0.896        0.227      114.231       16.347        0.020      339.188       12.352      854.064
09/21/2013  05:12:00       67.750       29.459       14.394       45.653       41.330       22.534     2084.219     1708.203      507.795        0.498        0.215       73.877       23.341        0.100      339.069       12.150      853.996
09/21/2013  05:13:00       10.435      -27.996       12.430       17.988       11.465       12.005      323.584      131.435      144.113        0.082        0.030       29.878        6.536        0.048      339.070       12.152      854.014
09/21/2013  05:14:00       29.598      -13.242        1.873       26.280       11.116       12.701      690.627      123.559      161.315        0.101        0.049       32.425       10.246        0.100      339.107       12.215      854.077
09/21/2013  05:15:00       71.247       22.076       30.776       24.682       25.996       21.537      609.213      675.805      463.839        0.413        0.087       74.589       19.287        0.067      339.087       12.181      854.079
09/21/2013  05:16:00       25.750       23.267       22.976       12.707       23.739       19.859      161.464      563.552      394.397        0.143        0.056       34.705       19.167        0.305      339.175       12.329      854.059
09/21/2013  05:17:00       54.164       39.672       21.052       17.804       13.963        9.605      316.999      194.976       92.256        0.278        0.030       67.139        2.116        0.001      339.109       12.217      854.082
09/21/2013  05:18:00       74.787       55.097       17.109       22.821       17.164       24.194      520.800      294.612      585.337        0.516        0.070       92.891       15.353        0.027      338.935       11.923      854.080
09/21/2013  05:19:00       22.142       61.740       -9.191       18.487       26.355       11.713      341.775      694.595      137.198        0.278        0.059       65.591       14.514        0.049      338.881       11.835      854.042
09/21/2013  05:20:00       97.838       66.898        0.183       44.774       25.705       23.932     2004.688      660.725      572.748        0.864        0.162      118.523       15.504        0.017      338.802       11.702      854.021
09/21/2013  05:21:00       73.799       48.526        6.943       63.745       26.774       21.828     4063.478      716.861      476.473        0.655        0.263       88.324       20.401        0.053      338.870       11.813      854.049
09/21/2013  05:22:00      -36.371       56.283       -9.008       26.516       32.259       18.274      703.081     1040.625      333.941        0.332        0.104       67.013       14.174        0.045      338.908       11.878      854.091
09/21/2013  05:23:00       22.717      107.050       -2.729       36.351       56.630       28.431     1321.392     3207.012      808.298        0.866        0.267      109.433       33.702        0.095      338.747       11.607      854.045
09/21/2013  05:24:00       73.853       54.320       21.264       33.702       22.871       30.030     1135.799      523.098      901.808        0.571        0.128       91.679       16.122        0.031      338.713       11.551      853.990
09/21/2013  05:25:00       -5.968       -6.359       37.350       16.928       28.365       18.989      286.557      804.563      360.600        0.146        0.073        8.720       15.515        3.165      338.875       11.823      853.994
09/21/2013  05:26:00        7.404      -41.976       23.784       22.830       22.400       21.862      521.192      501.744      477.933        0.194        0.075       42.624       10.287        0.058      339.009       12.048      854.015
09/21/2013  05:27:00       30.354      -23.378       15.657       22.053       31.924       25.338      486.319     1019.164      642.003        0.193        0.107       38.313       23.263        0.369      339.096       12.195      854.028
09/21/2013  05:28:00       16.517       69.865       91.140       44.263       57.223       46.019     1959.214     3274.451     2117.720        1.040        0.368       71.791       44.683        0.387      338.910       11.882      854.047
09/21/2013  05:29:00       37.771       98.292      104.228       49.973       45.620       31.481     2497.275     2081.221      991.067        1.376        0.278      105.299       29.906        0.081      338.917       11.894      854.002
09/21/2013  05:30:00       11.645       63.521       82.460       28.259       32.938       20.863      798.563     1084.936      435.270        0.664        0.116       64.579       19.223        0.089      338.817       11.726      853.998
09/21/2013  05:31:00       59.529       48.503       72.123       41.735       30.533       27.730     1741.796      932.249      768.969        0.727        0.172       76.787       20.779        0.073      338.821       11.733      854.033
09/21/2013  05:32:00       28.621       -3.556       49.556       32.421       40.744       23.982     1051.099     1660.081      575.132        0.329        0.164       28.841       22.766        0.623      338.926       11.908      854.071
09/21/2013  05:33:00       47.776       38.743       54.582       30.492       38.769       26.657      929.750     1503.011      710.610        0.495        0.157       61.511       24.933        0.164      338.968       11.981      854.064
09/21/2013  05:34:00       55.138       72.505       10.873       36.581       47.082       38.703     1338.194     2216.690     1497.888        0.673        0.253       91.088       29.904        0.108      338.961       11.969      853.971
09/21/2013  05:35:00       31.079      121.065       -8.433       56.040       62.637       40.611     3140.435     3923.364     1649.239        1.220        0.436      124.990       35.284        0.080      338.903       11.870      853.782
09/21/2013  05:36:00      -26.703       89.048      -16.292       30.072       67.928       21.906      904.310     4614.148      479.873        0.745        0.300       92.966       26.991        0.084      339.493       12.863      853.709
09/21/2013  05:37:00      -24.912       -9.218       -2.988       44.220       27.616       29.396     1955.372      762.617      864.150        0.215        0.179       26.563       23.239        0.765      339.124       12.243      853.809
09/21/2013  05:38:00      -17.108      -21.805        0.910       18.585       23.789       16.337      345.409      565.899      266.892        0.097        0.059       27.715        8.041        0.084      339.130       12.253      853.866
09/21/2013  05:39:00      -24.567      -90.433       -2.985       22.959       25.102       11.663      527.121      630.098      136.020        0.504        0.065       93.711        8.862        0.009      339.751       13.298      853.919
09/21/2013  05:40:00       37.323      -68.681       -4.903       35.752       36.046       21.201     1278.218     1299.309      449.495        0.458        0.151       78.167       23.514        0.090      339.724       13.255      853.959
09/21/2013  05:41:00       22.724       -8.172       38.673       38.384       40.454       41.099     1473.350     1636.527     1689.160        0.344        0.240       24.149        9.681        0.161      339.423       12.745      853.992
09/21/2013  05:42:00       20.060       45.061       79.082       31.521       53.658       32.260      993.571     2879.160     1040.697        0.680        0.246       49.325       32.822        0.443      339.289       12.518      853.977
09/21/2013  05:43:00       -7.674       51.973       72.396       11.456       31.710       23.074      131.231     1005.514      532.414        0.483        0.083       52.537       22.730        0.187      339.565       12.986      853.874
09/21/2013  05:44:00       10.744       17.932       18.452       18.195       14.829       14.830      331.042      219.906      219.919        0.077        0.039       20.905       12.077        0.334      339.833       13.437      853.801
09/21/2013  05:45:00      -10.280      -16.984       -1.836        8.990        9.370       10.752       80.819       87.794      115.598        0.034        0.014       19.853        4.831        0.059      339.762       13.318      853.806
09/21/2013  05:46:00       -5.414       -4.944       12.797       12.870       21.278       12.618      165.644      452.747      159.218        0.050        0.039        7.332       12.611        2.958      339.846       13.460      853.808
09/21/2013  05:47:00       74.171       70.313       41.246       30.678       28.855       24.701      941.166      832.632      610.123        0.726        0.119      102.202       15.742        0.024      339.511       12.895      853.828
09/21/2013  05:48:00      118.771       50.658       26.220       39.000       33.311       34.799     1521.038     1109.642     1211.001        1.060        0.192      129.123       25.470        0.039      339.721       13.249      853.792
09/21/2013  05:49:00       61.276       16.503       25.349       54.873       32.533       40.480     3011.078     1058.412     1638.598        0.519        0.285       63.459       27.070        0.182      339.949       13.634      853.806
09/21/2013  05:50:00       62.494       21.237       57.613       38.781       30.896       26.312     1503.934      954.590      692.305        0.541        0.158       66.004       17.355        0.069      340.194       14.047      853.853
09/21/2013  05:51:00       40.973       41.361       62.770       43.158       32.596       25.845     1862.590     1062.491      667.976        0.546        0.180       58.220       24.924        0.183      340.071       13.839      853.846
09/21/2013  05:52:00       28.298       52.809       72.882       37.128       35.350       21.283     1378.497     1249.654      452.985        0.599        0.154       59.913       25.371        0.179      339.696       13.207      853.847
09/21/2013  05:53:00       25.704       -6.432       31.341       32.282       30.774       25.226     1042.147      947.053      636.362        0.215        0.131       26.497       17.147        0.419      339.684       13.187      853.857
09/21/2013  05:54:00       11.735       39.268       66.336       33.573       47.525       38.384     1127.123     2258.673     1473.301        0.547        0.243       40.984       38.700        0.892      339.664       13.153      853.872
09/21/2013  05:55:00       94.654       98.430       82.683       75.645       45.659       56.322     5722.199     2084.735     3172.151        1.823        0.549      136.557       61.259        0.201      339.805       13.390      853.824
09/21/2013  05:56:00      202.537      148.588       24.155       69.835       43.122       47.645     4876.882     1859.502     2270.087        3.634        0.450      251.196       32.188        0.016      340.035       13.774      853.624
09/21/2013  05:57:00      124.417       82.010        0.983       71.472       54.343       44.564     5108.215     2953.144     1985.939        1.612        0.502      149.015       25.618        0.030      340.380       14.359      853.567
09/21/2013  05:58:00       13.471       62.746        0.798       49.961       22.881       22.134     2496.139      523.528      489.892        0.381        0.175       64.176       24.267        0.143      340.360       14.326      853.694
09/21/2013  05:59:00       21.775       95.386       -9.167       30.554       45.384       26.077      933.573     2059.724      680.008        0.666        0.184       97.840       24.097        0.061      339.966       13.662      853.686
09/21/2013  06:00:00      119.856       79.854       20.801       74.905       48.885       44.770     5610.710     2389.760     2004.378        1.559        0.500      144.022       36.054        0.063      339.599       13.040      853.597
09/21/2013  06:01:00       76.693       -3.268       16.037       68.784       76.601       33.429     4731.285     5867.678     1117.527        0.893        0.586       76.762       33.551        0.191      339.569       12.991      853.638
09/21/2013  06:02:00      -29.847      -51.496       -2.892       54.289       25.235       23.837     2947.313      636.819      568.205        0.385        0.208       59.521       18.504        0.097      339.761       13.315      853.792
09/21/2013  06:03:00      -98.030      -66.884       -1.054       60.800       37.124       22.566     3696.643     1378.197      509.244        0.983        0.279      118.673       14.518        0.015      339.926       13.594      853.892
09/21/2013  06:04:00     -118.641      -67.802       -0.413       67.727       38.328       26.724     4586.894     1469.070      714.171        1.272        0.339      136.649       31.353        0.053      339.999       13.717      853.897
09/21/2013  06:05:00       16.546       10.191       16.205       39.231       29.475       20.551     1539.053      868.754      422.345        0.173        0.142       19.432       15.946        0.673      339.828       13.430      853.831
09/21/2013  06:06:00       27.145       58.844       -4.396       16.353       20.398       21.880      267.409      416.086      478.721        0.269        0.058       64.803       13.928        0.046      339.893       13.538      853.771
09/21/2013  06:07:00       10.852       36.766       -6.626       29.687       20.541       14.253      881.328      421.929      203.142        0.151        0.075       38.334        9.858        0.066      339.977       13.680      853.733
09/21/2013  06:08:00     -125.728       35.186      -13.207       38.549       16.334       11.366     1486.012      266.802      129.188        0.955        0.094      130.559        5.456        0.002      339.935       13.609      853.693
09/21/2013  06:09:00     -158.382      -18.745      -12.453       27.371       33.425       14.754      749.169     1117.228      217.693        1.384        0.104      159.488       11.741        0.005      339.882       13.520      853.705
09/21/2013  06:10:00     -159.456      -59.560       -0.991       44.783       36.830       21.104     2005.506     1356.439      445.385        1.639        0.190      170.217       20.436        0.014      339.990       13.702      853.796
09/21/2013  06:11:00      -93.692      -39.390        3.919       30.521       32.014       20.636      931.542     1024.877      425.840        0.636        0.119      101.635       15.994        0.025      340.011       13.739      853.828
09/21/2013  06:12:00      -57.926      -16.343       -3.400       26.631       16.603       14.416      709.203      275.663      207.829        0.241        0.060       60.187       15.294        0.065      340.091       13.872      853.859
09/21/2013  06:13:00      -42.752       -6.213       -2.567       22.828       14.019        9.311      521.135      196.520       86.704        0.134        0.040       43.201       10.643        0.061      340.207       14.068      853.871
09/21/2013  06:14:00       46.731       29.337        9.012       23.977       18.417       12.955      574.902      339.181      167.823        0.210        0.054       55.176       11.278        0.042      339.977       13.680      853.758
09/21/2013  06:15:00       81.567       24.450        5.877       31.154       24.360       29.630      970.577      593.396      877.942        0.486        0.122       85.153       16.164        0.036      339.923       13.588      853.689
09/21/2013  06:16:00       56.036       46.454       31.808       25.836       19.589       23.715      667.479      383.710      562.414        0.396        0.081       72.788       17.626        0.059      339.902       13.553      853.700
09/21/2013  06:17:00       61.946       37.744       12.452       26.022       29.557       22.184      677.125      873.645      492.134        0.373        0.102       72.539       12.650        0.030      339.652       13.134      853.702
09/21/2013  06:18:00       19.419       10.253      -14.382       30.144       21.592       14.079      908.676      466.201      198.226        0.113        0.079       21.960        5.068        0.053      339.544       12.950      853.750
09/21/2013  06:19:00        9.399      -27.886       -7.938       10.662       21.022       15.302      113.668      441.928      234.159        0.086        0.039       29.427       10.169        0.119      339.801       13.383      853.798
09/21/2013  06:20:00       29.407      -57.284       -7.830       32.777       30.104       16.912     1074.358      906.236      286.007        0.324        0.113       64.391       10.874        0.029      339.800       13.382      853.790
09/21/2013  06:21:00       76.100     -109.887      -24.815       55.139       67.157       26.617     3040.357     4510.096      708.443        1.337        0.413      133.665       28.892        0.047      339.883       13.520      853.784
09/21/2013  06:22:00       31.796      -71.963      -22.478       62.545       65.462       28.450     3911.824     4285.325      809.386        0.785        0.450       78.675       38.064        0.234      339.965       13.661      853.801
09/21/2013  06:23:00      -13.698       -5.748       -1.814       23.828       25.605       13.296      567.785      655.632      176.774        0.081        0.070       14.855       11.199        0.568      339.976       13.679      853.774
09/21/2013  06:24:00       -2.423      -19.977       -1.573       32.260       22.417       17.754     1040.676      502.544      315.217        0.113        0.093       20.123       11.516        0.327      340.139       13.954      853.806
09/21/2013  06:25:00       41.305       45.784       20.926       33.921       30.100       22.306     1150.651      905.991      497.580        0.340        0.128       61.663       16.285        0.070      339.861       13.485      853.815
09/21/2013  06:26:00       33.484       57.246        1.048       18.259       21.245       14.560      333.376      451.358      211.992        0.270        0.050       66.320       11.389        0.029      339.975       13.677      853.789
09/21/2013  06:27:00       50.716       17.308       -0.148       27.952       24.837       11.453      781.309      616.893      131.166        0.220        0.076       53.588        7.150        0.018      340.061       13.823      853.804
09/21/2013  06:28:00       32.940       50.048        1.534       36.518       30.265       23.185     1333.530      915.947      537.533        0.319        0.139       59.915       15.889        0.070      340.511       14.582      853.758
09/21/2013  06:29:00       41.063       83.146       -9.305       45.323       37.901       21.391     2054.150     1436.487      457.589        0.632        0.197       92.734       16.978        0.034      340.517       14.591      853.681
09/21/2013  06:30:00       35.527       92.789      -15.736       36.035       23.282       16.266     1298.523      542.054      264.575        0.611        0.105       99.358       11.160        0.013      340.640       14.801      853.653
09/21/2013  06:31:00       11.621       20.542      -19.666       27.699       50.722       23.897      767.261     2572.761      571.089        0.243        0.196       23.601       13.458        0.325      340.834       15.128      853.676
09/21/2013  06:32:00       56.271      119.766      -19.470       25.342       36.167       25.904      642.201     1308.053      671.039        1.025        0.131      132.326       23.680        0.032      340.198       14.054      853.662
09/21/2013  06:33:00       79.995       95.296       -1.280       57.889       55.743       42.444     3351.105     3107.282     1801.452        1.187        0.413      124.421       38.348        0.095      340.226       14.100      853.580
09/21/2013  06:34:00       41.762      179.250      -22.479       56.956       97.525       42.866     3244.039     9511.144     1837.460        2.448        0.730      184.051       48.508        0.069      340.258       14.152      853.355
09/21/2013  06:35:00      -14.997      204.965      -27.151       47.444       78.246       30.362     2250.893     6122.402      921.859        2.613        0.465      205.513       37.766        0.034      340.248       14.134      853.346
09/21/2013  06:36:00      -15.400       11.775        4.764       36.033       43.919       28.454     1298.405     1928.881      809.656        0.222        0.202       19.386       26.564        1.878      340.285       14.199      853.578
09/21/2013  06:37:00       19.051        9.119       26.739       21.893       17.255       10.590      479.291      297.731      112.147        0.102        0.044       21.121       11.188        0.281      340.190       14.039      853.701
09/21/2013  06:38:00       12.085       46.063       46.165       25.334       31.565       31.209      641.817      996.356      974.015        0.351        0.131       47.622       20.931        0.193      340.225       14.098      853.708
09/21/2013  06:39:00       13.626       87.820       90.790       34.648       35.517       27.909     1200.486     1261.429      778.898        0.969        0.162       88.871       24.296        0.075      340.214       14.080      853.699
09/21/2013  06:40:00       87.620       75.890       45.862       84.456       49.012       50.643     7132.875     2402.203     2564.705        1.382        0.605      115.916       49.967        0.186      340.210       14.073      853.650
09/21/2013  06:41:00      169.843       82.988        4.627       57.059       56.156       40.525     3255.724     3153.493     1642.251        2.190        0.403      189.033       21.894        0.013      340.153       13.976      853.487
09/21/2013  06:42:00       94.977       60.533       17.639       62.841       43.781       33.476     3949.048     1916.738     1120.616        0.999        0.349      112.627       20.209        0.032      339.993       13.708      853.433
09/21/2013  06:43:00      -15.014       19.949       -1.130       30.047       47.856       16.679      902.852     2290.239      278.203        0.205        0.174       24.968       22.302        0.798      340.006       13.730      853.520
09/21/2013  06:44:00       35.170       62.506       -8.827       20.362       27.994       16.901      414.595      783.677      285.656        0.335        0.074       71.721        5.677        0.006      340.385       14.369      853.581
09/21/2013  06:45:00       34.034       27.335       15.424       28.579       22.077       28.206      816.761      487.395      795.573        0.212        0.105       43.652       17.561        0.162      340.264       14.166      853.608
09/21/2013  06:46:00       -1.154       60.427       80.868       17.259       32.859       29.349      297.882     1079.685      861.366        0.622        0.112       60.438       25.542        0.179      340.234       14.113      853.666
09/21/2013  06:47:00       82.502       81.930       57.835       59.996       48.760       51.227     3599.474     2377.538     2624.162        1.273        0.430      116.272       52.585        0.205      340.323       14.263      853.672
09/21/2013  06:48:00      168.931       63.791       38.561       62.833       49.410       44.722     3947.998     2441.335     2000.033        2.124        0.419      180.574       31.377        0.030      340.218       14.085      853.577
09/21/2013  06:49:00      165.338       79.198       41.782       59.050       49.097       36.591     3486.878     2410.468     1338.888        2.129        0.362      183.328       23.774        0.017      340.186       14.031      853.556
09/21/2013  06:50:00       80.840       39.268       24.889       48.185       32.178       24.908     2321.840     1035.421      620.403        0.634        0.199       89.873       17.706        0.039      340.145       13.963      853.600
09/21/2013  06:51:00       54.842       58.577        7.516       37.314       32.987       23.646     1392.324     1088.112      559.112        0.477        0.152       80.243       16.353        0.042      340.133       13.944      853.569
09/21/2013  06:52:00      102.454       89.580        4.560       46.977       41.972       41.923     2206.817     1761.620     1757.557        1.213        0.286      136.093       33.742        0.061      340.199       14.055      853.517
09/21/2013  06:53:00       58.312      116.100       -3.973       51.144       90.148       53.675     2615.756     8126.714     2880.995        1.526        0.681      129.921       49.207        0.143      340.357       14.321      853.528
09/21/2013  06:54:00        0.390      158.742      -21.517       75.393       87.458       46.650     5684.100     7648.929     2176.208        2.058        0.775      158.742       44.425        0.078      340.551       14.647      853.572
09/21/2013  06:55:00     -103.751      126.383      -24.312       44.667       63.821       35.709     1995.178     4073.099     1275.135        1.733        0.367      163.514       24.638        0.023      340.558       14.660      853.578
09/21/2013  06:56:00      -65.813      150.993      -14.319       45.819       58.086       32.292     2099.352     3373.950     1042.745        1.692        0.326      164.713       32.676        0.039      340.511       14.579      853.588
09/21/2013  06:57:00        8.466      175.239      -13.329       39.457       55.527       25.460     1556.846     3083.285      648.234        1.812        0.264      175.443       22.405        0.016      340.522       14.599      853.612
09/21/2013  06:58:00       41.936      172.115      -19.132       55.035       76.097       44.828     3028.842     5790.683     2009.588        2.129        0.541      177.151       46.753        0.070      340.508       14.574      853.642
09/21/2013  06:59:00       87.121       62.284       18.922       56.259       44.375       40.671     3165.070     1969.141     1654.107        0.931        0.339      107.095       29.333        0.075      340.647       14.813      853.691
09/21/2013  07:00:00       63.056       53.269        5.222       56.270       39.487       30.303     3166.301     1559.195      918.260        0.624        0.282       82.545       22.936        0.077      340.512       14.583      853.666
09/21/2013  07:01:00       82.166       70.786        9.496       50.360       40.837       37.393     2536.157     1667.627     1398.261        0.873        0.280      108.452       28.988        0.071      340.513       14.586      853.561
09/21/2013  07:02:00       71.915       97.450        0.561       57.096       78.297       50.404     3259.938     6130.380     2540.593        1.330        0.597      121.113       50.102        0.171      340.565       14.674      853.496
09/21/2013  07:03:00       28.551      112.285      -10.598       47.339       73.980       36.594     2240.941     5473.059     1339.101        1.129        0.453      115.858       42.789        0.136      340.594       14.722      853.484
09/21/2013  07:04:00      -11.154      123.864       -8.632       37.590       64.801       32.106     1412.972     4199.145     1030.805        1.109        0.332      124.365       29.441        0.056      340.551       14.650      853.497
09/21/2013  07:05:00      -18.436      103.893       -5.244       42.248       49.940       29.215     1784.889     2494.020      853.534        0.815        0.257      105.516       26.555        0.063      340.603       14.737      853.531
09/21/2013  07:06:00      -31.557       82.305      -12.758       32.364       48.483       24.507     1047.407     2350.599      600.611        0.596        0.200       88.147       14.680        0.028      340.684       14.874      853.545
09/21/2013  07:07:00      -11.759       54.422      -13.597       39.858       29.473       17.904     1588.626      868.648      320.536        0.303        0.139       55.678       17.340        0.097      340.679       14.866      853.519
09/21/2013  07:08:00      -67.100       32.680      -11.829       22.089       18.509       13.148      487.920      342.577      172.859        0.336        0.050       74.635        7.818        0.011      340.537       14.628      853.467
09/21/2013  07:09:00      -88.049       42.980      -13.702       29.154       22.204       17.671      849.959      493.010      312.249        0.572        0.083       97.980       13.701        0.020      340.590       14.716      853.441
09/21/2013  07:10:00      -83.109       78.732      -16.407       33.079       62.235       24.994     1094.219     3873.186      624.680        0.948        0.280      114.480       24.168        0.045      340.674       14.858      853.402
09/21/2013  07:11:00     -116.076       23.872      -11.599       39.572       36.183       17.147     1565.932     1309.210      294.028        0.867        0.158      118.506       17.567        0.022      340.772       15.024      853.417
09/21/2013  07:12:00     -160.039      -27.811      -13.784       34.810       35.497       25.458     1211.746     1260.003      648.102        1.485        0.156      162.438       18.497        0.013      340.748       14.983      853.474
09/21/2013  07:13:00      -95.354       -8.149      -11.968       31.208       51.599       21.825      973.930     2662.479      476.338        0.671        0.206       95.702       16.576        0.030      340.815       15.095      853.512
09/21/2013  07:14:00      -27.932       59.656        4.079       39.184       59.659       34.352     1535.357     3559.247     1180.052        0.531        0.314       65.871       35.002        0.282      340.804       15.078      853.532
09/21/2013  07:15:00      -83.060       71.914      -17.280       43.964       40.305       25.194     1932.861     1624.480      634.715        0.828        0.210      109.866       24.910        0.051      340.826       15.114      853.505
09/21/2013  07:16:00      -33.353       91.360       -9.861       54.801       37.013       24.678     3003.188     1369.983      609.023        0.727        0.249       97.258       23.321        0.057      340.914       15.264      853.467
09/21/2013  07:17:00        0.819      153.272      -10.183       25.688       29.812       16.799      659.857      888.781      282.206        1.271        0.092      153.275       15.691        0.010      340.862       15.176      853.447
09/21/2013  07:18:00       21.968      131.741      -13.808       35.703       39.272       24.556     1274.680     1542.266      602.991        1.072        0.171      133.560       23.702        0.031      340.815       15.096      853.431
09/21/2013  07:19:00       35.099       21.794       21.836       30.345       25.011       22.329      920.837      625.541      498.599        0.211        0.102       41.315        4.672        0.013      340.847       15.151      853.469
09/21/2013  07:20:00      -20.822       19.717       -0.723       22.255       13.360       13.074      495.302      178.497      170.930        0.083        0.042       28.676       14.260        0.247      340.839       15.135      853.492
09/21/2013  07:21:00      -19.559       54.827       -1.515       35.146       26.849       20.247     1235.229      720.848      409.954        0.288        0.118       58.211       21.296        0.134      340.790       15.052      853.471
09/21/2013  07:22:00       18.712       80.203       -4.806       27.837       50.878       29.376      774.874     2588.569      862.972        0.552        0.211       82.357       28.789        0.122      340.858       15.169      853.433
09/21/2013  07:23:00       14.967       88.331      -12.591       26.033       42.254       21.152      677.714     1785.363      447.415        0.555        0.146       89.590       21.279        0.056      340.782       15.040      853.391
09/21/2013  07:24:00        1.268      160.303      -17.867       22.797       22.021       13.080      519.710      484.923      171.078        1.360        0.059      160.308       11.787        0.005      340.803       15.075      853.361
09/21/2013  07:25:00      -16.698      150.026      -22.667       21.447       29.356       10.711      459.957      861.760      114.724        1.237        0.072      150.953        7.676        0.003      340.754       14.992      853.375
09/21/2013  07:26:00      -66.558        6.352      -12.858       22.549       43.829       17.006      508.451     1921.017      289.195        0.368        0.136       66.860       10.926        0.027      340.696       14.894      853.461
09/21/2013  07:27:00      -11.405        0.640        3.254       20.505       25.100       14.046      420.464      629.989      197.297        0.069        0.062       11.423        6.665        0.340      340.708       14.914      853.506
09/21/2013  07:28:00        8.414       21.738        3.726       12.225       13.732       11.199      149.463      188.558      125.424        0.051        0.023       23.310        7.953        0.116      340.775       15.027      853.491
09/21/2013  07:29:00       -8.890       31.059       -4.320       24.303        9.574        9.089      590.614       91.665       82.616        0.091        0.038       32.306        9.197        0.081      340.767       15.015      853.470
09/21/2013  07:30:00      -56.565       54.774      -17.144       10.754       18.920        8.608      115.641      357.954       74.097        0.352        0.027       78.739        7.872        0.010      340.738       14.966      853.413
09/21/2013  07:31:00      -36.379       82.897      -12.262       21.294       16.015       15.228      453.418      256.471      231.903        0.464        0.047       90.528       10.162        0.013      340.828       15.119      853.358
09/21/2013  07:32:00      -49.229       44.363       -9.402       24.538       25.269       14.809      602.111      638.509      219.307        0.297        0.073       66.269       12.932        0.038      340.792       15.057      853.376
09/21/2013  07:33:00      -21.200        0.084       -2.237       48.338       16.563       14.664     2336.531      274.342      215.039        0.164        0.141       21.200       23.536        1.233      340.821       15.105      853.426
09/21/2013  07:34:00       33.649       14.302       10.324       20.866       17.698       18.062      435.371      313.202      326.246        0.126        0.054       36.563       11.266        0.095      340.737       14.964      853.454
09/21/2013  07:35:00       25.502       17.329       22.734       24.484       20.028       10.971      599.474      401.106      120.369        0.129        0.056       30.832        4.660        0.023      340.662       14.839      853.434
09/21/2013  07:36:00       10.174      -50.840        0.919       15.926       12.840       22.388      253.634      164.859      501.242        0.180        0.046       51.849       11.092        0.046      340.441       14.463      853.432
09/21/2013  07:37:00      -21.608      -21.781       -5.186       21.126       13.663        8.368      446.311      186.680       70.018        0.084        0.035       30.681        4.928        0.026      340.556       14.658      853.440
09/21/2013  07:38:00      -51.025        3.181       -4.385       22.623       11.776        9.489      511.808      138.672       90.036        0.169        0.037       51.124        6.422        0.016      340.593       14.720      853.464
09/21/2013  07:39:00      -98.638      -26.275       -3.185       22.901       18.230       16.432      524.442      332.349      270.009        0.578        0.056      102.077       13.209        0.017      340.576       14.691      853.516
09/21/2013  07:40:00      -85.784        2.324       -8.958       32.823       18.205       10.258     1077.343      331.429      105.220        0.448        0.076       85.815        6.425        0.006      340.673       14.854      853.510
09/21/2013  07:41:00      -63.988       18.804       -7.773       42.700       24.046       18.662     1823.263      578.192      348.282        0.363        0.137       66.694       11.879        0.032      340.648       14.815      853.508
09/21/2013  07:42:00      -63.131        0.170      -11.240       35.702       20.890       19.007     1274.647      436.394      361.255        0.309        0.104       63.131       18.068        0.082      340.664       14.841      853.493
09/21/2013  07:43:00      -59.955       -3.271       -0.900       27.086       24.331       15.576      733.639      592.014      242.620        0.259        0.078       60.044       12.908        0.046      340.580       14.699      853.463
09/21/2013  07:44:00      -94.411      -20.185      -10.144       15.297       18.442       12.628      233.999      340.120      159.464        0.508        0.037       96.545        8.334        0.007      340.599       14.732      853.454
09/21/2013  07:45:00      -84.313       -6.136       -4.530       22.697       21.177       14.740      515.138      448.474      217.256        0.417        0.059       84.536       13.906        0.027      340.588       14.713      853.445
09/21/2013  07:46:00      -30.335       24.660       -7.541       26.226       18.893        9.429      687.802      356.941       88.906        0.136        0.057       39.094        4.408        0.013      340.541       14.631      853.379
09/21/2013  07:47:00       23.508      -43.141       -1.234       32.518       32.274       24.135     1057.395     1041.613      582.484        0.255        0.134       49.130       23.395        0.227      340.381       14.362      853.378
09/21/2013  07:48:00       20.000      -14.848        9.353       20.299       33.446       17.457      412.064     1118.628      304.735        0.127        0.092       24.909       20.413        0.672      340.454       14.487      853.428
09/21/2013  07:49:00       13.862        0.275        3.635       18.792       18.115       16.471      353.122      328.144      271.285        0.058        0.048       13.865       10.754        0.602      340.331       14.276      853.418
09/21/2013  07:50:00       47.155       35.050        5.047       25.248       20.170       21.936      637.455      406.840      481.172        0.250        0.076       58.754       18.814        0.103      340.479       14.527      853.443
09/21/2013  07:51:00      143.676       76.276       32.940       50.743       33.076       36.403     2574.825     1094.019     1325.144        1.627        0.250      162.667       18.060        0.012      340.478       14.524      853.353
09/21/2013  07:52:00      143.337      116.395       79.831       47.369       35.726       46.788     2243.860     1276.321     2189.153        2.309        0.285      184.644       25.671        0.019      340.399       14.390      853.256
09/21/2013  07:53:00       59.504       66.351       39.978       29.904       40.945       29.097      894.256     1676.512      846.643        0.648        0.171       89.125       22.999        0.067      340.390       14.377      853.267
09/21/2013  07:54:00      -26.616        8.446        0.487       29.438       21.838       26.353      866.594      476.903      694.490        0.141        0.102       27.924       23.633        0.716      340.472       14.515      853.346
09/21/2013  07:55:00       -0.343       16.096       16.283       33.664       18.155       11.766     1133.241      329.599      138.435        0.106        0.080       16.099       13.807        0.736      340.537       14.627      853.328
09/21/2013  07:56:00       58.698       45.598       -0.996       26.483       17.861       19.412      701.339      318.999      376.813        0.346        0.070       74.328        8.758        0.014      340.468       14.510      853.202
09/21/2013  07:57:00       22.758       17.101        5.374       27.258       19.564       14.090      742.988      382.768      198.534        0.108        0.066       28.467        8.641        0.092      340.579       14.698      853.245
09/21/2013  07:58:00       21.719      -29.221       23.936       28.218       54.104       37.333      796.258     2927.201     1393.722        0.351        0.256       36.409       27.590        0.574      340.434       14.453      853.360
09/21/2013  07:59:00        2.695       38.355       58.176       31.363       52.957       37.230      983.663     2804.399     1386.057        0.502        0.259       38.449       27.938        0.528      340.462       14.500      853.310
09/21/2013  08:00:00        6.003       14.585       47.662       43.371       65.854       30.006     1881.080     4336.747      900.369        0.482        0.356       15.772       34.180        4.696      340.467       14.507      853.229
09/21/2013  08:01:00        0.979      -83.088        8.249       30.188       41.988       25.082      911.287     1762.961      629.085        0.514        0.165       83.093       14.780        0.032      340.475       14.521      853.242
09/21/2013  08:02:00       18.142      -84.335        2.757       51.878       50.956       19.428     2691.285     2596.500      377.436        0.656        0.283       86.264       20.552        0.057      340.692       14.886      853.301
09/21/2013  08:03:00     -117.943      -14.583        2.916       59.338       42.564       20.837     3520.947     1811.725      434.199        0.995        0.288      118.841       25.250        0.045      340.696       14.895      853.352
09/21/2013  08:04:00     -123.032       48.311      -14.502       51.315       42.081       26.352     2633.268     1770.837      694.416        1.139        0.255      132.177       26.467        0.040      340.661       14.835      853.265
09/21/2013  08:05:00      -77.311      152.793      -20.674       39.826       36.796       24.052     1586.092     1353.954      578.475        1.663        0.176      171.239       19.918        0.014      340.723       14.940      853.048
09/21/2013  08:06:00       21.708      103.259        0.682       72.329       61.524       28.088     5231.467     3785.143      788.934        1.047        0.490      105.516       26.851        0.065      340.803       15.075      853.003
09/21/2013  08:07:00       52.137      -54.113      -17.173       61.969       68.327       39.055     3840.179     4668.624     1525.300        0.799        0.502       75.144       30.475        0.164      340.723       14.940      853.165
09/21/2013  08:08:00       39.740      -11.774        9.521       49.769       75.195       55.054     2476.978     5654.274     3030.969        0.648        0.558       41.448       59.887        2.088      340.702       14.904      853.186
09/21/2013  08:09:00       22.424      -59.671       11.606       33.741       58.384       34.969     1138.429     3408.675     1222.813        0.498        0.288       63.745       37.718        0.350      340.537       14.626      853.102
09/21/2013  08:10:00       25.028      -87.728       -9.412       27.712       47.221       18.372      767.966     2229.782      337.530        0.587        0.167       91.229       10.079        0.012      340.594       14.721      853.145
09/21/2013  08:11:00      -11.915       12.654       24.007       35.986       21.477       19.305     1295.020      461.251      372.697        0.150        0.106       17.380       16.893        0.945      340.804       15.077      853.239
09/21/2013  08:12:00      -20.533       12.441       -6.394       33.386       31.691       21.444     1114.654     1004.320      459.852        0.160        0.129       24.008       17.693        0.543      340.673       14.857      853.178
09/21/2013  08:13:00       17.027       38.512      -10.280       15.877       15.220        9.500      252.067      231.635       90.258        0.123        0.029       42.108        5.147        0.015      340.809       15.084      853.110
09/21/2013  08:14:00       32.834      -30.432       -1.092       27.184       35.463       21.207      738.978     1257.597      449.751        0.223        0.122       44.768        7.506        0.028      340.539       14.630      853.092
09/21/2013  08:15:00       27.493      -35.561        7.598       28.395       21.256       22.740      806.302      451.801      517.105        0.193        0.089       44.950       13.313        0.088      340.315       14.252      853.047
09/21/2013  08:16:00       27.983      -28.597      -10.142       38.455       28.711       19.569     1478.755      824.319      382.953        0.219        0.134       40.011       10.233        0.065      340.342       14.296      853.027
09/21/2013  08:17:00      -45.738       10.054       -1.849       14.981       13.262       10.727      224.436      175.869      115.068        0.136        0.026       46.830        7.326        0.024      340.747       14.980      853.075
09/21/2013  08:18:00      -24.448       -1.879       -0.131       34.438        9.068       11.777     1185.988       82.233      138.701        0.100        0.070       24.520        7.553        0.095      340.810       15.088      853.105
09/21/2013  08:19:00       18.524        6.515       14.765       23.200       17.741       17.600      538.251      314.740      309.746        0.088        0.058       19.636       16.261        0.686      340.599       14.729      853.109
09/21/2013  08:20:00       13.855       32.742        9.584       23.644       33.057       18.940      559.057     1092.773      358.711        0.168        0.101       35.552       12.404        0.122      340.569       14.680      853.098
09/21/2013  08:21:00        8.145       -3.876       41.389       27.766       50.565       28.101      770.968     2556.810      789.672        0.296        0.206        9.020       17.510        3.768      340.754       14.993      853.131
09/21/2013  08:22:00       19.646       -7.335       29.527       32.973       38.099       32.163     1087.233     1451.533     1034.443        0.244        0.179       20.970       21.140        1.016      340.825       15.115      853.126
09/21/2013  08:23:00       34.306      -85.433       -4.340       26.916       18.691       23.799      724.452      349.340      566.378        0.507        0.082       92.064       17.972        0.038      340.617       14.761      853.111
09/21/2013  08:24:00      -33.668        1.101        7.798       36.992       43.982       22.507     1368.417     1934.427      506.565        0.250        0.190       33.686       15.329        0.207      340.775       15.027      853.129
09/21/2013  08:25:00      -41.782       13.463       -4.128       28.487       27.381       15.964      811.508      749.713      254.844        0.188        0.091       43.898       17.075        0.151      340.781       15.037      853.096
09/21/2013  08:26:00       -9.677       20.529        4.705       31.533       12.583       15.181      994.344      158.338      230.454        0.096        0.069       22.695       17.739        0.611      340.867       15.185      853.040
09/21/2013  08:27:00       89.323       80.789       34.311       35.558       35.060       43.418     1264.360     1229.215     1885.084        1.003        0.219      120.439       32.848        0.074      340.772       15.024      853.009
09/21/2013  08:28:00      109.642      108.338       83.403       67.761       50.443       43.089     4591.550     2544.495     1856.633        1.985        0.450      154.138       30.261        0.039      340.792       15.055      852.964
09/21/2013  08:29:00      193.844      133.425       28.195       57.087       34.196       40.087     3258.932     1169.344     1606.997        3.110        0.302      235.325       33.755        0.021      341.045       15.483      852.931
09/21/2013  08:30:00      106.536       57.764       15.152       67.374       76.703       28.004     4539.211     5883.295      784.219        1.306        0.560      121.188       34.246        0.080      341.002       15.411      852.950
09/21/2013  08:31:00      -69.447      -79.232       10.949       77.182       77.611       38.318     5957.028     6023.463     1468.296        1.233        0.672      105.360       32.101        0.093      341.080       15.543      853.009
09/21/2013  08:32:00      -92.619      -77.371       13.694      109.157       82.691       40.549    11915.354     6837.880     1644.219        1.757        1.020      120.683       49.854        0.171      340.942       15.310      853.031
09/21/2013  08:33:00     -141.139     -103.308        6.935       67.486       61.283       36.059     4554.330     3755.650     1300.218        2.012        0.481      174.908       33.676        0.037      340.991       15.391      853.099
09/21/2013  08:34:00      -96.716      -91.630       11.868       67.876       54.501       32.057     4607.205     2970.381     1027.639        1.325        0.430      133.229       23.842        0.032      341.020       15.442      853.136
09/21/2013  08:35:00      -84.216      -35.624       -6.968       29.822       34.811       22.637      889.375     1211.782      512.453        0.551        0.131       91.441       15.159        0.027      341.019       15.439      853.152
09/21/2013  08:36:00      -59.949      -29.845       -7.047       31.768       22.699       12.122     1009.233      515.255      146.950        0.310        0.084       66.967        7.807        0.014      341.055       15.505      853.088
09/21/2013  08:37:00     -172.359       -5.951      -13.722       46.048       36.940       26.797     2120.451     1364.568      718.081        1.707        0.210      172.462       18.254        0.011      341.079       15.539      853.034
09/21/2013  08:38:00     -145.339      -50.318       -2.157       69.307       51.104       30.191     4803.451     2611.576      911.510        1.599        0.416      153.802       22.677        0.022      341.126       15.621      853.034
09/21/2013  08:39:00     -204.674     -112.624      -16.351       69.318       55.350       32.626     4805.027     3063.579     1064.476        3.189        0.447      233.614       31.160        0.018      341.052       15.494      853.116
09/21/2013  08:40:00      -84.910      -69.456       10.067       66.984       56.884       31.090     4486.810     3235.781      966.581        1.041        0.434      109.699       33.292        0.092      341.093       15.567      853.113
09/21/2013  08:41:00      -48.579      -37.041       12.543       54.023       52.868       25.060     2918.470     2795.006      628.025        0.511        0.317       61.089       32.608        0.285      341.139       15.645      853.077
09/21/2013  08:42:00      -56.489      -33.274        0.180       31.770       34.660       21.505     1009.318     1201.294      462.452        0.349        0.134       65.560       23.792        0.132      341.131       15.630      853.044
09/21/2013  08:43:00      -77.354       -4.957        0.962       36.770       39.326       24.575     1352.011     1546.539      603.909        0.476        0.175       77.513       18.460        0.057      341.123       15.618      853.037
09/21/2013  08:44:00      -74.209      -25.056        3.184       37.449       34.665       25.932     1402.425     1201.685      672.477        0.471        0.164       78.325       22.352        0.081      341.184       15.719      853.025
09/21/2013  08:45:00      -72.540      -22.699       -2.389       37.224       45.235       20.712     1385.639     2046.169      428.988        0.482        0.193       76.008       18.747        0.061      341.201       15.751      853.038
09/21/2013  08:46:00      -76.919      -33.964        1.354       40.673       25.863       16.283     1654.263      668.920      265.128        0.483        0.129       84.084       17.806        0.045      341.191       15.732      853.079
09/21/2013  08:47:00     -127.297        0.707       -8.278       22.324       29.574       14.538      498.373      874.637      211.340        0.893        0.079      127.299       12.127        0.009      341.157       15.674      853.078
09/21/2013  08:48:00      -99.555      -14.256       -9.847       29.665       24.292       17.576      880.041      590.084      308.931        0.599        0.089      100.571       16.320        0.026      341.202       15.753      853.070
09/21/2013  08:49:00      -80.745      -19.569       -3.081       43.389       28.594       20.486     1882.613      817.602      419.695        0.502        0.156       83.082       18.407        0.049      341.304       15.923      853.055
09/21/2013  08:50:00      -87.775        2.731        4.927       46.116       41.166       30.036     2126.664     1694.629      902.133        0.623        0.236       87.817       26.641        0.092      341.499       16.253      853.041
09/21/2013  08:51:00     -255.648     -104.258      -20.980      139.950       96.582       46.204    19586.051     9328.032     2134.806        5.385        1.552      276.090       68.461        0.061      341.623       16.462      853.013
09/21/2013  08:52:00     -247.546     -199.103       -9.709      123.837      103.936       61.494    15335.584    10802.603     3781.462        6.546        1.496      317.681       48.697        0.023      341.897       16.924      852.958
09/21/2013  08:53:00     -276.449     -170.159      -19.413      171.622       95.100       72.804    29454.030     9043.977     5300.472        7.477        2.190      324.620       86.074        0.070      341.933       16.987      852.958
09/21/2013  08:54:00       26.180      -75.574       14.674      143.560       86.314       55.092    20609.404     7450.122     3035.091        1.885        1.555       79.980       51.011        0.407      341.944       17.009      852.938
09/21/2013  08:55:00       20.825       48.537       79.735       66.068       56.175       39.067     4364.920     3155.657     1526.252        0.910        0.452       52.816       41.953        0.631      341.725       16.637      852.879
09/21/2013  08:56:00       24.421       45.441       52.429       46.956       38.562       37.463     2204.878     1486.995     1403.476        0.525        0.255       51.588       30.377        0.347      341.657       16.521      852.872
09/21/2013  08:57:00       25.706       34.291       42.568       53.375       40.685       35.330     2848.879     1655.307     1248.175        0.470        0.288       42.856       27.798        0.421      341.660       16.527      852.946
09/21/2013  08:58:00       35.093      -32.482       12.829       55.040       57.409       43.842     3029.395     3295.774     1922.084        0.535        0.412       47.819       34.279        0.514      341.684       16.568      853.002
09/21/2013  08:59:00       50.243       16.487       38.841       65.271       51.284       42.212     4260.349     2630.090     1781.812        0.649        0.434       52.879       45.285        0.733      341.688       16.575      853.012
09/21/2013  09:00:00      -39.500       -8.812       11.065       42.413       40.012       19.189     1798.903     1600.937      368.200        0.276        0.188       40.471       22.469        0.308      341.756       16.691      853.023
09/21/2013  09:01:00      -36.837      -58.491        4.410       74.758       54.828       40.493     5588.792     3006.158     1639.715        0.751        0.512       69.124       35.571        0.265      342.051       17.190      853.044
09/21/2013  09:02:00       68.479      -89.150       29.703       98.504       98.917       52.058     9703.071     9784.624     2710.063        1.785        1.110      112.415       44.428        0.156      342.256       17.537      853.046
09/21/2013  09:03:00       17.738       -4.312       31.705       40.376       65.812       53.881     1630.226     4331.210     2903.191        0.510        0.443       18.254       49.139        7.246      342.160       17.376      853.047
09/21/2013  09:04:00        5.579      -26.454       28.827       45.437       36.713       27.132     2064.533     1347.877      736.132        0.285        0.207       27.036       19.982        0.546      342.307       17.626      853.087
09/21/2013  09:05:00      -80.307      -74.577        7.960      105.290       79.533       50.945    11085.932     6325.492     2595.408        1.604        1.000      109.595       45.432        0.172      342.310       17.628      853.134
09/21/2013  09:06:00      107.194       70.566       43.165       84.011       71.170       74.379     7057.882     5065.104     5532.249        1.799        0.883      128.336       29.130        0.052      342.279       17.576      853.083
09/21/2013  09:07:00      -38.398       -8.118       11.076       80.749       98.033       44.235     6520.449     9610.385     1956.756        0.987        0.904       39.247       29.213        0.554      342.285       17.589      853.057
09/21/2013  09:08:00      -52.751      -36.290        0.721       41.947       41.123       26.496     1759.567     1691.068      702.045        0.413        0.208       64.029       26.552        0.172      342.205       17.451      853.058
09/21/2013  09:09:00       15.301        5.414        2.137       52.539       24.453       27.610     2760.315      597.958      762.325        0.219        0.206       16.230       17.672        1.186      342.082       17.242      853.040
09/21/2013  09:10:00       49.663       31.064       15.866       61.986       40.913       32.689     3842.299     1673.836     1068.568        0.513        0.329       58.578       17.337        0.088      341.995       17.094      853.007
09/21/2013  09:11:00       87.389       45.052       21.876       32.376       29.831       34.335     1048.189      889.867     1178.860        0.663        0.156       98.318       13.461        0.019      342.000       17.104      852.959
09/21/2013  09:12:00       39.571       -8.305       15.419       48.271       56.869       44.361     2330.093     3234.134     1967.896        0.470        0.377       40.433       19.243        0.227      342.077       17.233      852.956
09/21/2013  09:13:00        1.411      -58.208       22.762       47.992       60.968       48.940     2303.250     3717.115     2395.164        0.616        0.421       58.225       32.332        0.308      342.211       17.462      852.969
09/21/2013  09:14:00      -41.783      -89.096        5.605       55.147       78.974       38.869     3041.212     6236.940     1510.810        1.025        0.539       98.407       31.679        0.104      342.331       17.665      853.012
09/21/2013  09:15:00      -13.129      -29.924       47.178       76.428       81.624       51.693     5841.208     6662.450     2672.132        0.923        0.759       32.677       45.270        1.919      342.321       17.647      853.012
09/21/2013  09:16:00      -44.842     -172.817      -21.964      117.344       88.086       61.502    13769.507     7759.064     3782.454        2.883        1.266      178.540       66.455        0.139      342.475       17.908      853.047
09/21/2013  09:17:00        2.765     -225.364        5.076      138.855      206.351       90.247    19280.670    42580.676     8144.607        6.040        3.500      225.381       99.475        0.195      342.555       18.045      852.977
09/21/2013  09:18:00       58.541     -263.793       14.878      109.837      191.530       83.947    12064.182    36683.774     7047.019        6.450        2.790      270.210       71.033        0.069      342.607       18.133      853.003
09/21/2013  09:19:00      -36.687     -156.679        6.273      189.037      129.695       84.484    35734.982    16820.847     7137.532        4.280        2.985      160.917       68.041        0.179      342.609       18.136      853.007
09/21/2013  09:20:00      109.195      -20.784       45.604       86.175      106.716       76.972     7426.132    11388.399     5924.656        1.958        1.237      111.155       62.781        0.319      342.687       18.269      852.993
09/21/2013  09:21:00      -25.432      -24.287       47.434       90.836      126.280       80.105     8251.236    15946.693     6416.802        1.704        1.531       35.166       72.392        4.238      342.640       18.189      853.005
09/21/2013  09:22:00      -65.620     -339.709      -18.750      116.583      250.249       80.943    13591.683    62624.549     6551.731       10.140        4.138      345.988       94.416        0.074      342.691       18.276      853.071
09/21/2013  09:23:00     -107.000      -66.623       16.137      128.472      100.953       64.647    16504.990    10191.504     4179.258        2.351        1.544      126.046       55.612        0.195      342.680       18.257      853.035
09/21/2013  09:24:00      -30.900     -220.642        7.135      142.911      145.026       73.787    20423.431    21032.428     5444.510        4.829        2.345      222.796       59.415        0.071      342.728       18.338      853.062
09/21/2013  09:25:00      -69.342     -165.489        0.793      187.252      108.460       64.146    35063.147    11763.634     4114.731        4.156        2.547      179.429       51.203        0.081      342.750       18.375      853.011
09/21/2013  09:26:00     -167.642     -130.435       19.873      134.107       97.445       60.337    17984.786     9495.590     3640.528        3.831        1.556      212.408       55.138        0.067      342.691       18.276      852.939
09/21/2013  09:27:00     -110.294      -99.254        6.942      120.479       89.693       50.790    14515.179     8044.759     2579.662        2.360        1.257      148.378       56.462        0.145      342.753       18.381      852.932
09/21/2013  09:28:00      -60.996      -95.662       -5.001       76.149       53.949       40.716     5798.739     2910.463     1657.823        1.163        0.518      113.454       30.486        0.072      342.802       18.466      852.958
09/21/2013  09:29:00       -5.104     -186.352      -10.130      111.211      112.593       65.084    12367.935    12677.092     4235.950        3.206        1.464      186.422       65.558        0.124      342.854       18.554      852.967
09/21/2013  09:30:00       72.465     -176.432       12.509      108.840      179.914       75.696    11846.201    32369.061     5729.834        4.323        2.497      190.734       77.448        0.165      342.915       18.657      852.997
09/21/2013  09:31:00        4.149     -219.006       -0.488      127.368      122.830       65.929    16222.503    15087.108     4346.575        4.181        1.783      219.046       61.720        0.079      342.789       18.441      853.038
09/21/2013  09:32:00       -8.216     -214.626       -3.260      108.059       98.174       59.619    11676.815     9638.108     3554.438        3.550        1.243      214.783       34.039        0.025      342.834       18.517      853.010
09/21/2013  09:33:00       -2.847      -61.632       24.608       76.758       77.696       52.075     5891.762     6036.717     2711.808        0.952        0.732       61.697       12.029        0.038      342.902       18.636      853.019
09/21/2013  09:34:00     -102.243     -137.735       -0.683      120.085       92.951       54.680    14420.506     8639.951     2989.851        2.773        1.303      171.536       47.245        0.076      342.925       18.675      853.049
09/21/2013  09:35:00     -225.819     -290.222       -2.713      210.994      184.766       85.651    44518.625    34138.420     7336.129       11.060        4.300      367.727       96.269        0.069      342.777       18.422      853.029
09/21/2013  09:36:00      114.055     -207.943       -5.415      127.013      131.877      109.953    16132.248    17391.660    12089.672        5.094        2.281      237.169       83.554        0.124      342.922       18.667      853.059
09/21/2013  09:37:00      143.943     -251.443       -7.257      159.706      168.322       86.900    25506.058    28332.285     7551.530        7.268        3.069      289.729       79.528        0.075      342.874       18.586      853.067
09/21/2013  09:38:00      -69.263     -123.064        5.588      167.670      101.722       68.326    28113.302    10347.441     4668.462        3.154        2.156      141.217       54.630        0.150      342.953       18.722      853.056
09/21/2013  09:39:00     -113.970     -107.712        9.733      139.149      106.702       62.219    19362.528    11385.212     3871.187        2.965        1.731      156.816       34.674        0.049      342.887       18.609      853.027
09/21/2013  09:40:00      -62.848     -214.948        2.957      190.965      165.105      100.411    36467.814    27259.617    10082.276        6.197        3.690      223.948       91.824        0.168      342.964       18.740      853.073
09/21/2013  09:41:00      -14.403     -245.285      -26.806      138.216      152.776       90.374    19103.551    23340.603     8167.429        5.584        2.531      245.707       70.557        0.082      342.938       18.695      853.079
09/21/2013  09:42:00       19.346     -107.571       22.927      106.895      101.169       70.785    11426.487    10235.077     5010.571        1.957        1.334      109.297       52.880        0.234      342.994       18.792      853.142
09/21/2013  09:43:00      -41.725     -165.565       -7.600      112.455      117.085       67.000    12646.160    13708.920     4489.063        3.002        1.542      170.742       57.039        0.112      342.976       18.760      853.151
09/21/2013  09:44:00      -41.207     -199.119        1.505      175.950      143.504       67.667    30958.290    20593.470     4578.786        4.873        2.807      203.338       77.788        0.146      342.892       18.617      853.096
09/21/2013  09:45:00       45.977     -118.493       13.401       74.250       78.642       47.074     5513.082     6184.515     2215.960        1.512        0.696      127.100       38.737        0.093      343.075       18.931      853.109
09/21/2013  09:46:00      -40.509     -262.361       -7.059      152.599      201.506      101.237    23286.476    40604.630    10248.981        7.232        3.707      265.470      108.126        0.166      342.956       18.727      853.074
09/21/2013  09:47:00       11.769     -130.124        4.947      144.603      131.987       74.100    20910.098    17420.641     5490.795        3.045        2.191      130.655       74.187        0.322      343.074       18.926      853.015
09/21/2013  09:48:00       12.638     -169.113      -12.090      154.360      156.460       87.488    23827.001    24479.661     7654.158        4.242        2.798      169.585       77.483        0.209      342.973       18.755      852.938
09/21/2013  09:49:00      -44.054      -75.550       14.591      101.770       82.469       59.085    10357.197     6801.062     3490.996        1.425        1.032       87.456       56.999        0.425      343.174       19.099      852.988
09/21/2013  09:50:00      -75.120     -315.378      -29.594      135.153      106.896       65.167    18266.367    11426.832     4246.690        6.995        1.697      324.201       54.208        0.028      343.077       18.931      853.032
09/21/2013  09:51:00      -19.109     -175.702        5.024       86.222      117.291       67.157     7434.266    13757.155     4510.062        2.848        1.285      176.739       57.869        0.107      343.175       19.098      853.069
09/21/2013  09:52:00       25.657     -189.109        4.584       74.421      105.154       58.745     5538.478    11057.310     3450.930        2.824        1.002      190.841       45.932        0.058      343.198       19.140      853.082
09/21/2013  09:53:00       20.531     -335.181        8.042      214.273      167.298       86.589    45913.046    27988.708     7497.650        9.710        4.070      335.810       53.007        0.025      343.057       18.898      853.123
09/21/2013  09:54:00       47.430     -166.912       11.050      109.899      111.356       68.196    12077.896    12400.197     4650.690        2.967        1.456      173.520       51.726        0.089      343.219       19.173      853.102
09/21/2013  09:55:00       30.458     -153.459        6.958      126.527      156.730       78.790    16009.013    24564.149     6207.910        3.564        2.339      156.452       75.217        0.231      343.193       19.130      853.080
09/21/2013  09:56:00     -134.287     -119.554      -13.021      120.297       89.530       53.374    14471.435     8015.656     2848.762        2.891        1.267      179.795       31.360        0.030      343.190       19.125      853.087
09/21/2013  09:57:00      -26.791      -24.446       29.375       93.109       58.651       45.064     8669.250     3439.987     2030.720        0.816        0.707       36.268       27.630        0.580      343.361       19.419      853.061
09/21/2013  09:58:00      -52.625      -35.301       19.602       88.885       63.245       35.049     7900.600     3999.894     1228.467        0.876        0.656       63.369       26.867        0.180      343.288       19.294      853.017
09/21/2013  09:59:00     -155.293      -68.306       -8.298       87.064       46.577       37.864     7580.098     2169.408     1433.649        2.001        0.559      169.652       34.559        0.041      343.247       19.224      852.975
09/21/2013  10:00:00     -185.226      -17.754       -1.523       99.290       64.158       40.320     9858.535     4116.228     1625.710        2.511        0.780      186.075       33.352        0.032      343.189       19.123      853.000
09/21/2013  10:01:00      -61.746     -183.813       -1.119       64.947       94.377       35.607     4218.126     8906.936     1267.836        2.599        0.720      193.907       27.635        0.020      343.059       18.902      853.010
09/21/2013  10:02:00     -224.035     -133.149      -10.148      104.374       80.237       35.466    10893.896     6438.004     1257.818        4.330        0.929      260.615       28.619        0.012      342.995       18.791      852.975
09/21/2013  10:03:00     -117.335      -84.686       -7.233       71.122       45.145       34.282     5058.287     2038.108     1175.233        1.463        0.414      144.703       33.038        0.052      343.066       18.915      852.948
09/21/2013  10:04:00     -288.834     -116.416      -11.677      119.329       90.130       52.709    14239.312     8123.399     2778.246        6.112        1.257      311.412       53.977        0.030      342.980       18.766      852.943
09/21/2013  10:05:00     -143.169      -64.834       19.981      153.808      116.586       56.994    23656.816    13592.338     3248.373        3.279        2.025      157.165       63.053        0.161      343.090       18.955      852.948
09/21/2013  10:06:00     -171.214     -125.362        3.186      102.974      125.930       50.325    10603.607    15858.438     2532.647        3.701        1.450      212.203       53.007        0.062      343.120       19.006      852.919
09/21/2013  10:07:00     -148.935      -43.628        0.812      111.964      100.616       39.363    12535.872    10123.655     1549.480        2.414        1.210      155.194       34.311        0.049      343.161       19.077      852.887
09/21/2013  10:08:00     -207.355       -3.701        1.000      128.540       93.845       52.125    16522.477     8806.929     2716.998        3.552        1.402      207.388       56.646        0.075      343.056       18.895      852.851
09/21/2013  10:09:00     -314.654     -102.617       -7.062      151.860      118.830       62.133    23061.358    14120.579     3860.516        7.531        2.052      330.965       69.693        0.044      342.953       18.720      852.813
09/21/2013  10:10:00     -270.998     -238.649       -6.164      142.442      121.530       62.044    20289.639    14769.581     3849.432        8.466        1.945      361.100       56.237        0.024      342.895       18.622      852.802
09/21/2013  10:11:00     -288.541     -210.722       -9.119       96.150      111.599       54.276     9244.904    12454.246     2945.885        7.619        1.232      357.295       50.432        0.020      342.791       18.444      852.805
09/21/2013  10:12:00     -173.035      -91.935        8.790      116.243       89.403       50.445    13512.396     7992.863     2544.729        3.126        1.202      195.941       40.751        0.043      343.036       18.862      852.784
09/21/2013  10:13:00     -242.106     -153.872       15.482      135.326       82.202       65.149    18313.178     6757.163     4244.432        5.592        1.466      286.866       69.171        0.058      342.894       18.621      852.736
09/21/2013  10:14:00     -167.153     -146.426        7.032      114.607       89.499       60.667    13134.696     8010.027     3680.543        3.712        1.241      222.217       68.203        0.094      342.899       18.628      852.750
09/21/2013  10:15:00     -150.537     -138.124        1.971       96.373       68.771       49.759     9287.787     4729.508     2476.004        2.912        0.825      204.302       53.221        0.068      342.888       18.611      852.812
09/21/2013  10:16:00     -154.788     -139.718       -8.343      112.840      113.235       42.026    12732.804    12822.180     1766.186        3.543        1.366      208.520       50.751        0.059      342.901       18.632      852.853
09/21/2013  10:17:00     -145.664     -122.957      -13.545      121.035       71.582       44.107    14649.400     5124.005     1945.420        2.912        1.086      190.621       34.307        0.032      342.977       18.764      852.896
09/21/2013  10:18:00     -157.415      -74.728        5.205       92.006       53.765       47.108     8465.018     2890.679     2219.126        2.198        0.679      174.252       40.928        0.055      343.004       18.810      852.908
09/21/2013  10:19:00     -163.455      -65.691        1.425       78.077       57.752       36.058     6096.080     3335.294     1300.196        2.088        0.537      176.162       36.058        0.042      343.011       18.821      852.916
09/21/2013  10:20:00     -167.712      -88.978       -0.272       74.395       81.670       48.535     5534.562     6670.032     2355.607        2.530        0.728      189.854       37.069        0.038      342.968       18.746      852.908
09/21/2013  10:21:00     -159.858     -107.003       17.654      132.210      121.750       54.797    17479.497    14823.123     3002.741        3.630        1.765      192.365       62.364        0.105      342.954       18.724      852.900
09/21/2013  10:22:00     -169.326     -153.864       -1.385      159.310      127.362       59.018    25379.652    16221.179     3483.094        4.871        2.254      228.791       53.406        0.054      342.974       18.756      852.895
09/21/2013  10:23:00     -193.980     -160.138       -5.631      160.121      117.390       72.659    25638.713    13780.492     5279.372        5.399        2.235      251.540       72.923        0.084      342.835       18.519      852.889
09/21/2013  10:24:00     -231.301      -24.509        2.931      183.824      110.405       69.296    33791.336    12189.260     4801.951        5.244        2.539      232.595       48.718        0.044      342.813       18.485      852.833
09/21/2013  10:25:00     -323.492     -122.878       -7.928      147.174      100.684       58.377    21660.229    10137.201     3407.827        7.750        1.760      346.044       56.540        0.027      342.700       18.291      852.828
09/21/2013  10:26:00     -285.009     -154.094        2.176      155.859       93.122       64.963    24292.124     8671.635     4220.155        7.107        1.859      323.999       71.489        0.049      342.676       18.248      852.878
09/21/2013  10:27:00      -45.302     -245.098       -8.185       59.943       66.081       42.052     3593.198     4366.659     1768.339        3.596        0.486      249.249       33.184        0.018      342.656       18.215      852.937
09/21/2013  10:28:00     -109.474     -176.750      -23.869       51.843      133.865       34.829     2687.726    17919.813     1213.052        3.280        1.091      207.907       40.123        0.037      342.682       18.261      852.929
09/21/2013  10:29:00      -78.030     -140.188        6.169       68.070       79.463       42.145     4633.590     6314.383     1776.160        1.925        0.636      160.441       39.217        0.060      342.728       18.340      852.927
09/21/2013  10:30:00     -230.351      -48.488      -12.818      167.212      104.677       60.203    27960.019    10957.303     3624.403        4.905        2.127      235.399       78.854        0.112      342.794       18.451      852.863
09/21/2013  10:31:00        1.527     -254.163       13.618      155.800      163.001       77.395    24273.686    26569.399     5990.034        6.080        2.842      254.167       27.705        0.012      342.867       18.576      852.868
09/21/2013  10:32:00      -45.763     -172.598       14.818      142.053      144.256       74.620    20179.053    20809.812     5568.108        3.932        2.328      178.562       74.543        0.174      342.945       18.708      852.879
09/21/2013  10:33:00      -93.510     -101.124        5.144       73.360       92.665       35.818     5381.750     8586.877     1282.941        1.712        0.763      137.733       30.711        0.050      342.958       18.732      852.888
09/21/2013  10:34:00      -63.585      -22.418       11.681       67.839       40.561       34.128     4602.136     1645.217     1164.738        0.605        0.371       67.421       36.069        0.286      343.021       18.839      852.847
09/21/2013  10:35:00     -127.065      -39.402        8.889       66.697       70.533       37.831     4448.460     4974.850     1431.158        1.431        0.543      133.034       35.406        0.071      343.011       18.822      852.854
09/21/2013  10:36:00     -113.016      -98.989       10.442      108.139       63.041       47.152    11694.003     3974.171     2223.265        2.028        0.895      150.239       51.868        0.119      343.038       18.866      852.878
09/21/2013  10:37:00     -130.633      -46.506       23.611      142.523       76.136       50.124    20312.899     5796.686     2512.427        2.420        1.431      138.664       62.912        0.206      343.001       18.805      852.928
09/21/2013  10:38:00     -234.891     -120.549        8.516      119.202       87.102       48.407    14209.183     7586.714     2343.249        4.695        1.207      264.019       45.746        0.030      342.930       18.681      852.984
09/21/2013  10:39:00     -236.715     -179.935       -8.629      174.219      145.661       75.665    30352.126    21217.003     5725.151        7.288        2.865      297.340       92.266        0.096      342.885       18.605      853.012
09/21/2013  10:40:00     -299.058     -190.446      -21.619      144.243      113.450       71.577    20806.002    12870.967     5123.254        8.248        1.940      354.549       69.540        0.038      342.758       18.389      853.016
09/21/2013  10:41:00     -287.545     -173.359        8.463      131.624      109.065       61.834    17324.909    11895.159     3823.395        7.292        1.652      335.761       67.885        0.041      342.708       18.303      853.029
09/21/2013  10:42:00     -159.777     -146.078       22.428      122.007      122.950       72.758    14885.786    15116.727     5293.711        4.133        1.765      216.489       61.845        0.082      342.700       18.291      853.040
09/21/2013  10:43:00     -154.348     -186.710        0.903      119.526      106.715       57.605    14286.384    11388.134     3318.374        4.383        1.450      242.248       61.436        0.064      342.723       18.328      853.027
09/21/2013  10:44:00     -157.587     -130.090        2.022      121.849       97.796       61.332    14847.099     9564.102     3761.631        3.496        1.409      204.346       70.352        0.119      342.795       18.450      852.998
09/21/2013  10:45:00     -161.293      -95.983       -4.207      116.766       98.970       53.909    13634.405     9795.071     2906.225        3.079        1.317      187.691       53.142        0.080      342.827       18.507      852.998
09/21/2013  10:46:00     -202.841     -217.349       -7.418       98.516       87.207       55.535     9705.316     7605.039     3084.153        5.441        1.020      297.296       47.060        0.025      342.673       18.244      853.006
09/21/2013  10:47:00     -179.141     -112.579        4.902      106.071       66.742       41.097    11251.077     4454.459     1688.989        3.109        0.870      211.578       41.218        0.038      342.690       18.272      852.995
09/21/2013  10:48:00     -143.059      -68.729        7.831       94.756       57.520       35.983     8978.618     3308.506     1294.778        1.941        0.679      158.712       42.861        0.073      342.818       18.490      852.990
09/21/2013  10:49:00     -119.446     -140.868       10.007       76.696       83.689       42.459     5882.231     7003.784     1802.801        2.445        0.734      184.692       41.158        0.050      342.844       18.536      852.990
09/21/2013  10:50:00     -233.343     -227.483      -13.360      159.308      129.540       67.854    25379.001    16780.621     4604.114        7.656        2.338      325.880       70.567        0.047      342.782       18.430      852.959
09/21/2013  10:51:00      -46.755     -238.903       16.018       80.780      110.888       55.405     6525.406    12296.136     3069.691        4.070        1.095      243.436       60.963        0.063      342.941       18.701      852.947
09/21/2013  10:52:00     -120.771     -225.593       12.605      121.047      114.955       56.298    14652.291    13214.700     3169.425        4.833        1.552      255.887       52.598        0.042      343.012       18.821      852.932
09/21/2013  10:53:00     -245.281     -239.630        4.247      162.715      130.552       62.885    26476.075    17043.908     3954.475        8.253        2.374      342.907       58.650        0.029      343.008       18.812      852.917
09/21/2013  10:54:00     -426.925     -222.175      -12.541      208.225      160.518       76.505    43357.821    25766.073     5852.957       15.337        3.749      481.276       91.415        0.036      342.985       18.775      852.918
09/21/2013  10:55:00     -420.305     -111.546      -15.407      149.842      151.753       70.375    22452.508    23028.853     4952.574       11.988        2.522      434.855       69.709        0.026      343.009       18.815      852.926
09/21/2013  10:56:00     -223.456     -228.739       24.633      161.118      198.705       88.662    25959.046    39483.524     7860.883        8.807        3.665      319.772       82.453        0.066      343.068       18.915      852.951
09/21/2013  10:57:00     -203.201     -197.271        6.106      146.845      116.740       73.578    21563.506    13628.275     5413.690        6.042        2.030      283.208       77.754        0.075      342.972       18.753      852.987
09/21/2013  10:58:00     -225.910      -22.829       -3.908      188.422      103.240       60.304    35502.854    10658.446     3636.623        5.068        2.490      227.060       87.154        0.147      343.149       19.056      852.971
09/21/2013  10:59:00     -165.691        2.203      -19.039       71.499       71.589       31.781     5112.126     5125.012     1010.032        1.953        0.562      165.706       28.993        0.031      342.844       18.536      852.964
09/21/2013  11:00:00     -140.765      -82.668        7.852      146.003      115.334       70.302    21316.904    13301.825     4942.414        3.313        1.978      163.244       76.139        0.218      343.025       18.845      852.948
09/21/2013  11:01:00     -291.293      -65.028       -2.582      169.431      130.104       70.580    28706.915    16926.939     4981.533        6.984        2.531      298.463       77.395        0.067      342.901       18.631      852.943
09/21/2013  11:02:00     -187.283     -126.591       -2.393      157.383       99.803       61.550    24769.480     9960.580     3788.366        4.480        1.926      226.054       63.478        0.079      342.948       18.713      852.949
09/21/2013  11:03:00     -207.197      -79.430        1.967      115.990      118.937       61.589    13453.601    14146.092     3793.183        4.031        1.570      221.900       62.460        0.079      342.988       18.781      852.945
09/21/2013  11:04:00      -86.928     -142.700        3.783      125.815      122.408       65.242    15829.423    14983.763     4256.503        3.150        1.753      167.092       65.295        0.153      343.033       18.858      852.962
09/21/2013  11:05:00     -107.156     -122.761      -26.094      107.328      107.393       66.805    11519.315    11533.313     4462.971        2.737        1.376      162.949       44.875        0.076      343.198       19.137      852.937
09/21/2013  11:06:00     -177.960     -168.399       -9.084      129.623      132.381       64.374    16802.005    17524.720     4144.054        4.928        1.924      245.006       64.966        0.070      343.196       19.134      852.959
09/21/2013  11:07:00     -202.221     -180.225      -11.753      170.830      150.805       68.784    29182.823    22742.032     4731.303        6.507        2.833      270.878       90.368        0.111      343.220       19.175      852.936
09/21/2013  11:08:00     -200.875     -128.526       -9.927       80.199       81.691       55.365     6431.873     6673.370     3065.229        3.657        0.809      238.473       28.037        0.014      343.311       19.328      852.935
09/21/2013  11:09:00     -115.773      -41.443       13.698      137.551      102.293       58.915    18920.175    10463.781     3470.963        2.408        1.643      122.967       42.040        0.117      343.380       19.449      852.893
09/21/2013  11:10:00      -95.690      -78.349        5.601       83.002       97.878       61.675     6889.262     9580.048     3803.847        1.780        1.014      123.674       49.711        0.162      343.365       19.424      852.881
09/21/2013  11:11:00     -246.227     -129.224        5.774      167.743      133.286       65.068    28137.869    17765.171     4233.874        6.374        2.507      278.077       66.895        0.058      343.289       19.293      852.907
09/21/2013  11:12:00     -177.456     -190.581       24.456      223.020      157.347       95.954    49737.782    24758.120     9207.168        7.604        4.185      260.407       98.283        0.142      343.189       19.122      852.859
09/21/2013  11:13:00     -289.426     -185.656       -8.570      225.099      150.634       74.597    50669.596    22690.732     5564.738        9.860        3.946      343.854       72.252        0.044      343.157       19.068      852.835
09/21/2013  11:14:00     -172.075     -288.729      -11.285      118.758      137.346       70.967    14103.480    18863.924     5036.378        7.555        1.900      336.116       69.744        0.043      343.273       19.264      852.843
09/21/2013  11:15:00      -99.025     -175.549       -4.144       96.928      142.326       44.913     9395.133    20256.702     2017.182        3.615        1.583      201.553       20.918        0.011      343.421       19.518      852.846
09/21/2013  11:16:00     -122.083     -132.359       11.279      129.831      163.244       60.628    16856.198    26648.745     3675.814        3.986        2.359      180.065       65.352        0.132      343.540       19.722      852.860
09/21/2013  11:17:00     -156.763     -246.972        1.386      182.840      177.029       95.675    33430.424    31339.412     9153.777        7.973        3.696      292.523       73.466        0.063      343.445       19.559      852.847
09/21/2013  11:18:00      -76.038     -218.094        2.889      146.361      189.735       79.514    21421.517    35999.376     6322.529        5.854        3.187      230.969       64.789        0.079      343.339       19.379      852.920
09/21/2013  11:19:00     -159.599     -218.743        0.990      158.118      160.256       85.337    25001.197    25681.876     7282.378        6.563        2.898      270.777       88.556        0.107      343.162       19.075      852.960
09/21/2013  11:20:00     -310.291     -216.752        8.861      227.403      154.108       85.167    51712.038    23749.342     7253.420       11.301        4.136      378.500       77.784        0.042      343.189       19.122      852.925
09/21/2013  11:21:00     -163.435     -238.241        3.928      167.227      189.012       84.624    27964.971    35725.392     7161.204        7.715        3.543      288.911       91.493        0.100      343.265       19.251      852.978
09/21/2013  11:22:00     -204.440     -283.149       -4.143      190.942      149.953       85.584    36458.937    22485.917     7324.610        9.411        3.313      349.241       79.386        0.052      343.082       18.940      852.987
09/21/2013  11:23:00     -344.443     -217.597       16.969      206.300      187.932      101.526    42559.766    35318.366    10307.586       12.721        4.409      407.418      101.788        0.062      343.003       18.806      852.985
09/21/2013  11:24:00     -303.071     -263.279       -3.223      210.288      158.577       93.769    44220.869    25146.566     8792.614       11.965        3.908      401.457       86.563        0.046      342.953       18.720      853.023
09/21/2013  11:25:00     -276.836     -232.293        7.411      192.339      195.527       98.414    36994.287    38230.771     9685.262       10.777        4.246      361.384      109.491        0.092      342.995       18.793      853.102
09/21/2013  11:26:00     -285.999     -235.297        0.629      334.079      193.545      102.463   111608.676    37459.736    10498.683       14.833        7.978      370.352      156.491        0.179      343.015       18.827      853.138
09/21/2013  11:27:00     -281.269     -276.728      -13.508      181.533      165.051       96.110    32954.294    27241.859     9237.090       11.264        3.472      394.576       99.740        0.064      343.006       18.809      853.189
09/21/2013  11:28:00     -448.834     -255.181       -7.703      300.949      172.920      100.416    90570.048    29901.401    10083.405       19.857        6.528      516.304      106.756        0.043      342.841       18.531      853.194
09/21/2013  11:29:00     -274.641     -237.499       -1.603      158.768      116.747       86.970    25207.124    13629.975     7563.822        8.911        2.320      363.089       89.917        0.061      342.770       18.409      853.188
09/21/2013  11:30:00     -180.337     -124.500       15.943      172.683      152.520       89.625    29819.261    23262.451     8032.688        5.468        3.056      219.139       95.854        0.191      342.476       17.911      853.182
09/21/2013  11:31:00     -396.364     -300.460      -11.656      198.996      181.170       95.616    39599.331    32822.533     9142.456       16.452        4.078      497.374       93.258        0.035      342.035       17.159      853.143
09/21/2013  11:32:00     -249.399     -136.833       -2.726      209.669      124.427       72.052    43961.182    15482.126     5191.471        7.277        3.232      284.470       89.371        0.099      342.144       17.345      853.142
09/21/2013  11:33:00     -281.368      -94.336       25.874      285.252      187.686      116.994    81368.595    35225.894    13687.548       10.948        6.514      296.761      147.838        0.248      341.930       16.982      853.127
09/21/2013  11:34:00     -484.328     -258.487        7.306      299.186      293.577      136.966    89512.444    86187.309    18759.693       24.791        9.723      548.990      148.806        0.073      341.584       16.395      853.127
09/21/2013  11:35:00     -388.285      -91.306       -3.304      181.247      195.660       85.825    32850.312    38282.885     7365.918       11.879        3.925      398.876       85.039        0.045      341.660       16.524      853.107
09/21/2013  11:36:00     -545.567     -161.759        1.940      374.959      243.330      134.673   140594.199    59209.600    18136.926       27.083       10.897      569.043      145.325        0.065      341.434       16.141      853.037
09/21/2013  11:37:00     -735.350     -142.100      -39.959      331.375      279.630      136.034   109809.486    78192.659    18505.150       38.448       10.325      748.954      146.582        0.038      341.203       15.749      853.059
09/21/2013  11:38:00     -555.277     -138.487      -30.857      342.693      191.278      100.827   117438.295    36587.130    10166.059       24.630        8.210      572.286      118.047        0.043      341.379       16.047      853.041
09/21/2013  11:39:00     -747.256      -89.152      -42.168      332.240      189.092      104.385   110383.466    35755.767    10896.320       36.255        7.852      752.555      106.766        0.020      341.175       15.703      853.000
09/21/2013  11:40:00     -626.363     -193.946      -18.248      377.985      299.403      132.728   142872.656    89642.231    17616.802       34.016       12.507      655.703      163.488        0.062      341.262       15.849      852.916
09/21/2013  11:41:00     -664.294      -57.599      -25.362      315.820      253.343      149.340    99742.303    64182.804    22302.364       31.570        9.311      666.786      146.208        0.048      341.260       15.846      852.944
09/21/2013  11:42:00     -583.166     -122.747      -16.004      250.724      219.503      116.038    62862.288    48181.441    13464.721       23.993        6.225      595.944      116.443        0.038      341.359       16.014      853.064
09/21/2013  11:43:00     -587.740     -266.199      -27.519      242.731      216.219      103.413    58918.538    46750.810    10694.331       26.669        5.818      645.213       98.882        0.023      341.166       15.688      853.114
09/21/2013  11:44:00     -441.912     -146.058       -2.139      268.676      185.389      102.600    72186.578    34369.119    10526.764       16.683        5.854      465.424      112.947        0.059      341.322       15.951      853.151
09/21/2013  11:45:00     -498.667     -175.589      -29.101      200.357      223.280       99.762    40143.068    49854.036     9952.397       19.013        4.997      528.678      112.784        0.046      341.282       15.883      853.155
09/21/2013  11:46:00     -593.994      -73.349      -48.013      281.637      184.463      112.762    79319.202    34026.542    12715.271       24.326        6.303      598.506      133.826        0.050      341.260       15.846      853.155
09/21/2013  11:47:00     -523.467     -133.561      -29.807      316.854      188.568      102.818   100396.724    35557.753    10571.613       21.961        7.326      540.237      122.270        0.051      341.246       15.821      853.208
09/21/2013  11:48:00     -336.000     -144.245       38.675      293.430      210.966      129.545    86101.272    44506.491    16781.938       14.127        7.369      365.653      146.006        0.159      341.267       15.857      853.236
09/21/2013  11:49:00     -250.913      -59.680       17.303      239.884      141.967      101.525    57544.386    20154.735    10307.395        7.740        4.400      257.913      109.027        0.179      341.287       15.892      853.262
09/21/2013  11:50:00     -342.357     -126.973       -9.165      292.931      183.830      104.864    85808.674    33793.508    10996.440       13.198        6.530      365.144      142.081        0.151      341.326       15.959      853.257
09/21/2013  11:51:00     -652.649     -234.492      -22.138      318.038      270.363      123.958   101148.048    73096.387    15365.698       33.548        9.481      693.496      137.373        0.039      341.108       15.588      853.280
09/21/2013  11:52:00     -637.606      -89.105      -34.303      273.068      290.516      127.928    74566.057    84399.334    16365.522       29.546        8.767      643.802      119.558        0.034      341.067       15.519      853.276
09/21/2013  11:53:00     -483.175     -108.015       -0.356      294.893      226.665      113.288    86961.842    51376.899    12834.120       19.812        7.559      495.101      134.290        0.074      341.118       15.606      853.331
09/21/2013  11:54:00     -569.476     -184.446      -30.711      334.557      303.257      143.633   111928.063    91965.105    20630.572       29.185       11.226      598.601      165.913        0.077      340.991       15.390      853.363
09/21/2013  11:55:00     -519.790     -325.428      -17.928      268.586      269.718      141.885    72138.191    72747.600    20131.239       27.068        8.251      613.258      140.490        0.052      340.917       15.265      853.374
09/21/2013  11:56:00     -655.919      -51.998      -35.888      314.660      148.522      115.780    99010.883    22058.906    13405.028       28.432        6.724      657.977      146.921        0.050      340.909       15.253      853.459
09/21/2013  11:57:00     -448.321      -94.334        0.905      274.700      221.056      132.276    75459.858    48865.542    17497.044       17.583        7.091      458.138      151.524        0.109      340.857       15.164      853.432
09/21/2013  11:58:00     -376.823      -33.654       -3.850      215.052      157.975      105.573    46247.272    24956.237    11145.578       11.273        4.117      378.323      104.502        0.076      340.863       15.174      853.438
09/21/2013  11:59:00     -449.439      -62.794       15.890      268.213      264.117      120.493    71938.256    69757.979    14518.599       18.117        7.811      453.805      137.769        0.092      340.735       14.957      853.386
09/21/2013  12:00:00     -450.730     -101.336      -25.754      277.440      192.381       94.897    76972.970    37010.499     9005.359       16.852        6.149      461.981      109.547        0.056      340.574       14.685      853.426
09/21/2013  12:01:00     -500.070     -135.025       -2.069      297.534      211.546      115.457    88526.730    44751.674    13330.215       20.743        7.330      517.979      129.523        0.063      340.548       14.641      853.453
09/21/2013  12:02:00     -497.840      -75.337       -2.933      267.503      273.291      123.904    71557.849    74688.231    15352.121       20.753        8.080      503.508      123.438        0.060      340.479       14.525      853.435
09/21/2013  12:03:00     -623.114     -184.541      -50.119      233.143      221.307      127.138    54355.803    48976.764    16164.003       27.214        5.975      649.866      116.138        0.032      340.381       14.359      853.408
09/21/2013  12:04:00     -562.103      -64.568      -29.571      309.115      208.593      123.498    95552.183    43510.918    15251.838       23.763        7.716      565.800      148.504        0.069      340.373       14.345      853.446
09/21/2013  12:05:00     -369.472     -110.713       -4.216      205.546      185.829      106.757    42249.007    34532.571    11397.145       11.846        4.409      385.703      111.524        0.084      340.467       14.505      853.488
09/21/2013  12:06:00     -406.913     -146.124      -13.099      235.400      166.098      108.724    55413.128    27588.417    11820.984       14.094        4.741      432.355      122.677        0.081      340.464       14.498      853.467
09/21/2013  12:07:00     -608.655      -84.962      -37.910      231.553      216.978      109.757    53616.565    47079.660    12046.639       24.591        5.637      614.556       86.508        0.020      340.313       14.244      853.529
09/21/2013  12:08:00     -469.368     -130.800       -8.862      296.822      245.441      125.464    88103.387    60241.066    15741.253       20.076        8.204      487.253      145.786        0.090      340.323       14.260      853.493
09/21/2013  12:09:00     -495.776     -133.742      -13.047      315.531      188.354      123.729    99560.115    35477.053    15308.843       20.707        7.517      513.498      146.294        0.081      340.280       14.188      853.479
09/21/2013  12:10:00     -506.317     -162.271      -31.128      271.311      221.861      107.752    73609.649    49222.493    11610.420       20.902        6.722      531.685      106.908        0.040      340.291       14.206      853.482
09/21/2013  12:11:00     -367.866      -73.203        1.305      321.311      186.674       92.193   103240.827    34847.307     8499.637       14.361        7.329      375.079      125.769        0.112      340.396       14.384      853.484
09/21/2013  12:12:00     -722.018      -82.916      -14.693      361.763      181.487      147.131   130872.268    32937.599    21647.396       35.689        9.273      726.763      176.948        0.059      340.179       14.018      853.434
09/21/2013  12:13:00     -594.606        1.570      -40.999      311.874      214.445      114.432    97265.276    45986.596    13094.626       25.576        7.817      594.608      132.571        0.050      340.177       14.015      853.432
09/21/2013  12:14:00     -465.155      -67.746      -29.411      240.307      161.418       93.978    57747.382    26055.688     8831.952       15.721        4.632      470.063      103.177        0.048      340.269       14.170      853.442
09/21/2013  12:15:00     -396.131      -55.134      -13.106      215.682      176.567      112.118    46518.878    31176.075    12570.502       12.518        4.513      399.950      110.639        0.077      340.287       14.199      853.458
09/21/2013  12:16:00     -614.711     -108.582      -14.333      254.829      214.727      103.079    64938.066    46107.550    10625.198       25.574        6.084      624.228      110.970        0.032      340.177       14.015      853.471
09/21/2013  12:17:00     -575.986      -31.580      -25.505      240.137      166.554       91.164    57665.660    27740.372     8310.808       21.354        4.686      576.851      106.938        0.034      340.180       14.019      853.549
09/21/2013  12:18:00     -485.281      -61.205      -32.819      190.315      140.175       89.470    36219.908    19648.938     8004.846       15.208        3.194      489.125       96.000        0.039      340.202       14.056      853.509
09/21/2013  12:19:00     -456.560      -91.206      -22.601      213.134      166.761       93.979    45425.998    27809.249     8832.050       14.966        4.103      465.581      109.100        0.055      340.196       14.046      853.519
09/21/2013  12:20:00     -510.886      -94.313      -38.226      161.792      166.631       80.191    26176.503    27765.751     6430.520       16.585        3.019      519.518       78.889        0.023      340.141       13.953      853.537
09/21/2013  12:21:00     -355.080      -52.046      -36.415      146.630      129.976       73.878    21500.322    16893.728     5457.982        8.698        2.193      358.874       61.625        0.029      340.262       14.157      853.542
09/21/2013  12:22:00     -681.602      -61.228      -53.810      253.666      236.242      102.696    64346.482    55810.320    10546.546       30.094        6.535      684.346      118.013        0.030      340.125       13.926      853.568
09/21/2013  12:23:00     -469.750     -112.157      -40.499      227.527      158.144       85.926    51768.434    25009.430     7383.338       15.951        4.208      482.954       88.721        0.034      340.233       14.109      853.600
09/21/2013  12:24:00     -426.071     -120.239      -26.084      179.986      142.948       81.530    32394.908    20434.009     6647.076       12.806        2.974      442.712       86.974        0.039      340.275       14.179      853.561
09/21/2013  12:25:00     -405.490     -187.030       -7.972      192.384      148.349       82.933    37011.769    22007.516     6877.877       13.267        3.295      446.545       80.783        0.033      340.284       14.194      853.509
09/21/2013  12:26:00     -499.131      -33.929      -27.852      265.129      145.406       82.587    70293.430    21142.889     6820.620       17.464        4.913      500.283      107.576        0.046      340.287       14.200      853.448
09/21/2013  12:27:00     -458.130      -85.276       -6.684      243.745      214.604       91.098    59411.548    46054.674     8298.877       16.546        5.688      465.999      105.260        0.051      340.273       14.178      853.409
09/21/2013  12:28:00     -702.016     -113.910      -29.028      291.767      201.794      102.962    85127.824    40720.934    10601.191       32.152        6.822      711.197      129.292        0.033      340.225       14.095      853.382
09/21/2013  12:29:00     -826.236     -179.789      -23.322      374.146      205.908      123.969   139985.333    42398.177    15368.341       45.660        9.888      845.571      162.485        0.037      340.238       14.118      853.283
09/21/2013  12:30:00     -717.045     -178.044      -16.572      280.581      216.934      111.592    78725.676    47060.223    12452.830       34.216        6.912      738.818      105.068        0.020      340.265       14.164      853.243
09/21/2013  12:31:00     -801.857     -161.648      -31.452      309.788      206.594      114.526    95968.839    42680.934    13116.235       41.090        7.588      817.988      128.295        0.025      340.238       14.118      853.240
09/21/2013  12:32:00     -624.049     -106.800      -34.281      220.160      233.897      107.081    48470.525    54707.579    11466.408       25.831        5.732      633.122      111.826        0.031      340.246       14.130      853.277
09/21/2013  12:33:00     -576.277     -142.873      -41.893      226.027      239.696      103.380    51088.029    57454.046    10687.519       23.672        5.961      593.724       97.243        0.027      340.324       14.263      853.238
09/21/2013  12:34:00     -524.599     -125.409       -9.267      253.634      201.179      112.538    64330.146    40472.918    12664.880       20.422        5.873      539.380      120.758        0.050      340.327       14.268      853.303
09/21/2013  12:35:00     -510.812     -107.321      -25.522      231.987      200.970       89.162    53817.763    40388.965     7949.813       18.761        5.108      521.964       92.466        0.031      340.313       14.243      853.368
09/21/2013  12:36:00     -416.241      -34.824      -22.910      201.348      191.030      100.545    40540.989    36492.616    10109.345       13.105        4.357      417.695      105.026        0.063      340.366       14.334      853.379
09/21/2013  12:37:00     -650.453      -44.914      -38.993      313.838      185.872       99.945    98493.997    34548.286     9989.040       28.480        7.152      652.002      133.496        0.042      340.286       14.197      853.319
09/21/2013  12:38:00     -599.764     -120.217      -14.645      278.596      209.978      115.056    77615.836    44090.968    13237.853       25.464        6.747      611.694      125.247        0.042      340.366       14.332      853.272
09/21/2013  12:39:00     -637.897     -146.826      -40.969      211.940      187.704      107.450    44918.703    35232.620    11545.558       26.090        4.585      654.576      112.747        0.030      340.383       14.361      853.299
09/21/2013  12:40:00     -555.869     -205.422       -7.166      258.474      177.837      121.779    66808.975    31626.117    14830.237       23.223        5.663      592.611      130.100        0.048      340.347       14.302      853.272
09/21/2013  12:41:00     -731.177     -112.875      -19.365      261.635      179.250      105.145    68452.959    32130.597    11055.401       32.967        5.582      739.838      126.031        0.029      340.336       14.283      853.309
09/21/2013  12:42:00     -176.419     -139.431       14.599      210.609      197.611      122.833    44355.966    39050.013    15087.853        7.462        4.925      224.866      131.137        0.340      340.495       14.554      853.323
09/21/2013  12:43:00     -283.453     -180.093       27.877      250.655      196.847      104.403    62827.877    38748.647    10900.059       11.299        5.624      335.826      119.518        0.127      340.528       14.607      853.305
09/21/2013  12:44:00     -724.724     -107.726      -36.062      253.573      218.044      108.929    64299.056    47543.011    11865.511       33.090        6.185      732.687      115.112        0.025      340.399       14.390      853.278
09/21/2013  12:45:00     -614.134     -176.776      -24.628      352.240      276.088      141.836   124073.070    76224.613    20117.521       31.467       11.021      639.070      148.262        0.054      340.298       14.219      853.250
09/21/2013  12:46:00     -517.806      -45.338      -18.723      283.896      237.295      112.786    80597.152    56308.918    12720.642       21.005        7.481      519.787      126.869        0.060      340.320       14.257      853.291
09/21/2013  12:47:00     -322.209      -35.952        2.202      253.917      146.881       94.586    64474.022    21573.910     8946.498       10.004        4.750      324.208      128.005        0.156      340.469       14.508      853.368
09/21/2013  12:48:00     -481.205      -73.322      -11.800      277.029      187.321      106.848    76744.993    35089.000    11416.529       18.014        6.163      486.759      129.519        0.071      340.329       14.272      853.358
09/21/2013  12:49:00     -447.377       -1.389      -23.801      191.042      189.095       92.284    36497.163    35757.004     8516.340       14.073        4.039      447.379       89.529        0.040      340.309       14.238      853.389
09/21/2013  12:50:00     -683.512      -79.065      -45.189      196.714      213.081       98.279    38696.388    45403.342     9658.848       28.460        4.688      688.070       94.233        0.019      340.141       13.953      853.317
09/21/2013  12:51:00     -539.381     -146.555      -36.027      220.156      165.218      101.313    48468.787    27297.062    10264.275       19.985        4.302      558.937      107.096        0.037      340.231       14.105      853.348
09/21/2013  12:52:00     -412.220      -84.945        9.761      230.803      170.599       96.185    53269.866    29104.107     9251.597       13.441        4.581      420.881      111.117        0.070      340.269       14.171      853.446
09/21/2013  12:53:00     -491.154     -140.385      -26.621      168.396      163.909       92.011    28357.053    26866.177     8466.011       16.266        3.184      510.823       88.185        0.030      340.219       14.085      853.437
09/21/2013  12:54:00     -498.297     -161.951      -19.050      197.115      166.557       94.012    38854.516    27741.144     8838.232       17.515        3.772      523.954       99.807        0.036      340.251       14.138      853.352
09/21/2013  12:55:00     -658.406     -197.559      -63.225      239.895      207.083      108.655    57549.789    42883.312    11805.901       29.436        5.612      687.406      101.837        0.022      340.223       14.092      853.264
09/21/2013  12:56:00     -581.550      -92.701      -44.288      255.170      210.618      119.474    65111.963    44359.991    14274.099       23.623        6.187      588.892      116.183        0.039      340.173       14.007      853.188
09/21/2013  12:57:00     -604.335     -229.346      -21.936      297.637      214.248      126.916    88587.883    45902.296    16107.665       28.442        7.530      646.390      131.521        0.041      340.228       14.100      853.283
09/21/2013  12:58:00     -523.648     -154.861      -22.021      350.941      188.840      112.299   123159.340    35660.364    12611.090       23.502        8.572      546.067      142.828        0.068      340.231       14.106      853.287
09/21/2013  12:59:00     -629.644     -197.442      -36.728      324.891      203.218      104.532   105554.072    41297.544    10926.949       29.725        7.889      659.875      105.704        0.026      340.305       14.231      853.287
09/21/2013  13:00:00     -479.079     -100.276      -25.728      274.408      154.178       89.061    75299.629    23770.753     7931.813       17.360        5.350      489.461      120.946        0.061      340.377       14.352      853.297
09/21/2013  13:01:00     -500.825      -84.738      -24.442      215.590      199.890      103.228    46479.055    39955.985    10655.991       17.783        4.855      507.943      106.422        0.044      340.303       14.227      853.316
09/21/2013  13:02:00     -496.149      -67.796      -45.439      195.429      158.839       87.785    38192.495    25229.896     7706.239       16.196        3.556      500.760       89.646        0.032      340.257       14.150      853.341
09/21/2013  13:03:00     -376.781      -55.756      -15.411      176.065      160.007       88.437    30998.843    25602.355     7821.187       10.485        3.221      380.884       87.575        0.053      340.300       14.221      853.386
09/21/2013  13:04:00     -532.019     -151.240      -25.291      252.080      217.042       98.506    63544.238    47107.095     9703.466       21.343        6.018      553.098      115.529        0.044      340.266       14.164      853.385
09/21/2013  13:05:00     -314.236        9.204       11.047      245.680      149.987       85.258    60358.887    22496.097     7268.973        9.452        4.506      314.371      110.836        0.124      340.312       14.244      853.326
09/21/2013  13:06:00     -364.070      -81.993        9.893      267.900      168.874       99.000    71770.245    28518.410     9800.998       12.471        5.504      373.189      135.975        0.133      340.325       14.265      853.334
09/21/2013  13:07:00     -167.571      -66.549        6.230      156.528      156.197       73.194    24500.861    24397.439     5357.371        4.339        2.713      180.302       81.864        0.206      340.395       14.384      853.267
09/21/2013  13:08:00     -476.982       20.362      -20.253      230.129      169.227       96.950    52959.388    28637.628     9399.344       15.965        4.550      477.416      109.375        0.052      340.277       14.184      853.271
09/21/2013  13:09:00     -358.568      -65.279      -15.758      214.243      170.640       84.310    45900.276    29118.000     7108.231       10.759        4.106      364.462       82.621        0.051      340.263       14.158      853.226
09/21/2013  13:10:00     -356.302       15.719      -17.374      214.744      185.839       91.287    46115.073    34536.279     8333.326       10.822        4.449      356.648       95.175        0.071      340.262       14.158      853.174
09/21/2013  13:11:00     -473.357       -8.602      -37.704      176.609      181.863       96.503    31190.832    33074.275     9312.924       14.956        3.679      473.435       71.795        0.023      340.212       14.073      853.112
09/21/2013  13:12:00     -248.985      -30.152        1.315      193.859      132.885       85.956    37581.225    17658.325     7388.380        6.275        3.131      250.804      106.881        0.182      340.313       14.245      853.173
09/21/2013  13:13:00     -249.489      -69.960       -6.549      219.915      121.283       98.207    48362.804    14709.535     9644.656        6.994        3.636      259.112      117.870        0.207      340.310       14.240      853.148
09/21/2013  13:14:00     -500.589      -67.155      -24.866      252.835      203.054       91.058    63925.413    41231.079     8291.589       18.456        5.672      505.073      110.301        0.048      340.199       14.050      853.154
09/21/2013  13:15:00     -460.770       53.081      -26.430      219.979      172.282       97.032    48390.830    29681.097     9415.224       15.164        4.374      463.818       95.480        0.042      340.192       14.038      853.182
09/21/2013  13:16:00     -684.629      -23.438      -59.036      277.864      216.416       96.853    77208.245    46836.093     9380.579       30.306        6.671      685.030      126.462        0.034      340.150       13.969      853.277
09/21/2013  13:17:00     -540.420      -76.033      -20.664      239.940      198.555       87.606    57571.400    39424.153     7674.846       20.145        5.234      545.742       93.155        0.029      340.293       14.210      853.305
09/21/2013  13:18:00     -631.994     -176.505      -27.683      246.656      187.571       95.589    60839.370    35182.849     9137.338       26.823        5.258      656.179      113.071        0.030      340.135       13.943      853.307
09/21/2013  13:19:00     -731.666       19.627      -63.503      243.370      207.881       99.287    59229.198    43214.709     9857.814       32.601        5.615      731.929       95.913        0.017      340.068       13.831      853.241
09/21/2013  13:20:00     -519.712      -33.181      -30.896      231.674      183.982       89.381    53672.658    33849.440     7988.968       18.382        4.776      520.771       96.333        0.034      340.199       14.052      853.264
09/21/2013  13:21:00     -476.851     -113.447      -20.045      195.727      206.379       92.505    38309.038    42592.279     8557.117       16.504        4.473      490.160       88.768        0.033      340.288       14.201      853.297
09/21/2013  13:22:00     -436.430     -122.099      -23.989      157.732      158.028       73.039    24879.282    24972.900     5334.698       13.056        2.759      453.188       80.672        0.032      340.351       14.309      853.265
09/21/2013  13:23:00     -349.715       16.884      -22.382      125.697      126.217       67.083    15799.733    15930.853     4500.120        7.965        1.812      350.122       52.604        0.023      340.390       14.375      853.274
09/21/2013  13:24:00     -422.036     -132.663      -11.710      204.741      126.877       77.366    41918.901    16097.768     5985.484       12.991        3.200      442.395       89.131        0.041      340.325       14.265      853.320
09/21/2013  13:25:00     -551.028      -54.312      -33.207      196.967      177.717       90.187    38795.848    31583.170     8133.616       19.308        3.926      553.698       91.714        0.027      340.216       14.081      853.296
09/21/2013  13:26:00     -506.546     -153.800      -42.054      180.444      157.595       86.442    32560.165    24836.135     7472.258       17.343        3.243      529.380       87.015        0.027      340.290       14.205      853.296
09/21/2013  13:27:00     -456.735     -114.744      -30.172      186.757      108.126       79.028    34878.217    11691.249     6245.504       13.774        2.641      470.928       92.269        0.038      340.315       14.247      853.294
09/21/2013  13:28:00     -501.358     -130.530      -26.958      128.087      117.525       71.213    16406.270    13812.086     5071.250       15.220        1.764      518.071       60.823        0.014      340.308       14.236      853.312
09/21/2013  13:29:00     -214.093     -171.720       -0.360      165.493      138.263       77.697    27387.978    19116.573     6036.761        6.392        2.627      274.452       96.932        0.125      340.379       14.356      853.364
09/21/2013  13:30:00     -449.742     -239.129      -18.365      192.972      137.532       89.335    37238.334    18915.063     7980.696       16.195        3.207      509.363       99.265        0.038      340.316       14.250      853.383
09/21/2013  13:31:00     -333.843     -311.955        2.291      243.568      198.848      106.756    59325.518    39540.423    11396.737       15.950        5.513      456.910      133.474        0.085      340.278       14.185      853.416
09/21/2013  13:32:00     -198.293      -53.274        8.988      143.003      106.912       80.670    20449.758    11430.118     6507.639        4.031        1.919      205.324       64.916        0.100      340.418       14.423      853.416
09/21/2013  13:33:00     -451.928      -43.126      -16.412      217.025      128.293       77.871    47099.728    16459.150     6063.896       13.798        3.481      453.981       99.814        0.048      340.251       14.139      853.399
09/21/2013  13:34:00     -456.167        5.531      -38.710      166.056      152.260       68.976    27574.524    23183.212     4757.661       13.256        2.776      456.200       80.652        0.031      340.245       14.128      853.310
09/21/2013  13:35:00     -310.092        7.287      -26.276      107.698       93.636       49.083    11598.788     8767.699     2409.102        5.983        1.139      310.178       45.792        0.022      340.286       14.198      853.205
09/21/2013  13:36:00     -364.034       47.792      -23.998      112.735      100.983       54.986    12709.118    10197.527     3023.410        8.065        1.297      367.158       52.089        0.020      340.188       14.033      853.096
09/21/2013  13:37:00     -108.314       32.591        8.174       71.433       98.671       46.879     5102.725     9735.895     2197.680        1.495        0.852      113.111       33.695        0.089      340.378       14.356      853.017
09/21/2013  13:38:00     -116.386      137.153      -24.866       44.840       68.616       30.573     2010.670     4708.215      934.680        2.031        0.383      179.880       27.480        0.023      340.302       14.228      852.945
09/21/2013  13:39:00     -108.847       57.070      -22.815       66.239       91.226       33.054     4387.557     8322.173     1092.556        1.471        0.690      122.901       40.121        0.107      340.333       14.281      852.854
09/21/2013  13:40:00      -13.915      -49.330       18.051       60.420       49.848       33.472     3650.617     2484.862     1120.375        0.510        0.363       51.255       27.764        0.293      340.536       14.624      852.820
09/21/2013  13:41:00     -115.136      -41.090       -2.790       39.273       41.988       26.226     1542.381     1762.952      687.803        0.947        0.200      122.248       13.253        0.012      340.594       14.724      852.760
09/21/2013  13:42:00      -58.816       -3.281       10.214       51.478       50.444       28.020     2650.016     2544.596      785.107        0.478        0.299       58.908       25.702        0.190      340.764       15.010      852.682
09/21/2013  13:43:00      -65.422      -16.588        3.819       58.714       58.086       27.716     3447.326     3373.982      768.188        0.608        0.379       67.492       17.390        0.066      340.799       15.069      852.720
09/21/2013  13:44:00      -83.931        9.093       -6.032       64.116       64.436       36.155     4110.850     4152.012     1307.166        0.836        0.479       84.422       38.897        0.212      340.738       14.967      852.832
09/21/2013  13:45:00       -9.585       48.034       40.284       49.543       48.755       36.639     2454.521     2377.047     1342.421        0.510        0.309       48.981       18.284        0.139      340.802       15.075      852.891
09/21/2013  13:46:00      -35.973       43.107        8.368       45.626       39.021       21.486     2081.767     1522.615      461.654        0.364        0.203       56.145       21.396        0.145      340.804       15.077      852.893
09/21/2013  13:47:00       35.246       31.332       -3.565       19.909       22.240       16.695      396.350      494.614      278.736        0.170        0.058       47.159       13.430        0.081      340.768       15.016      852.880
09/21/2013  13:48:00       46.112       45.157       -8.050       27.442       22.992       28.127      753.047      528.624      791.124        0.315        0.104       64.540       20.764        0.104      340.750       14.986      852.886
09/21/2013  13:49:00       13.145       61.485        6.268       19.961       33.718       22.639      398.459     1136.903      512.507        0.302        0.102       62.875       19.763        0.099      340.875       15.198      852.844
09/21/2013  13:50:00      -27.622      103.038       -8.480       17.950       41.332       16.856      322.211     1708.333      284.122        0.688        0.116      106.676       15.075        0.020      340.876       15.200      852.798
09/21/2013  13:51:00      -19.367       63.833        8.213       21.167       29.440       21.490      448.061      866.698      461.815        0.315        0.089       66.707       16.223        0.059      340.979       15.373      852.818
09/21/2013  13:52:00       15.484       24.298       11.661       23.355       16.426       16.866      545.442      269.818      284.446        0.103        0.055       28.812       12.702        0.194      340.987       15.388      852.849
09/21/2013  13:53:00       40.396       32.388        7.960       25.089       16.290       19.719      629.467      265.364      388.839        0.201        0.064       51.777       14.088        0.074      340.877       15.202      852.867
09/21/2013  13:54:00       75.647       56.502       35.074       59.938       43.044       39.682     3592.605     1852.825     1574.637        0.858        0.351       94.419       26.095        0.076      340.809       15.087      852.882
09/21/2013  13:55:00        5.564       51.881       56.541       37.101       44.112       29.262     1376.480     1945.833      856.262        0.505        0.209       52.179       20.605        0.156      340.892       15.228      852.925
09/21/2013  13:56:00       42.705       55.128       68.223       44.113       39.271       25.082     1945.969     1542.210      629.119        0.682        0.206       69.734       13.294        0.036      340.826       15.116      852.938
09/21/2013  13:57:00       47.255       53.306       15.095       43.216       38.460       33.040     1867.650     1479.138     1091.638        0.487        0.222       71.236       27.425        0.148      340.907       15.250      852.943
09/21/2013  13:58:00        2.212       30.672       23.513       39.531       36.035       32.904     1562.695     1298.516     1082.657        0.272        0.197       30.752       29.325        0.909      340.868       15.186      852.948
09/21/2013  13:59:00       35.335      -57.166       -1.888       58.820       45.963       32.500     3459.830     2112.628     1056.261        0.557        0.331       67.205       23.534        0.123      341.037       15.472      852.956
09/21/2013  14:00:00       59.558      -21.472       35.703       78.646       62.955       45.585     6185.160     3963.341     2078.035        0.875        0.611       63.311       51.544        0.663      340.917       15.268      852.916
09/21/2013  14:01:00       87.131      -81.589       34.452       88.663      107.826       64.259     7861.056    11626.350     4129.194        1.952        1.181      119.368       72.105        0.365      340.883       15.211      852.873
09/21/2013  14:02:00      251.275     -219.594      -37.416      149.620      168.103       91.252    22386.113    28258.727     8326.992        8.585        2.949      333.707      111.270        0.111      340.800       15.069      852.790
09/21/2013  14:03:00       72.060      -30.072       61.872       93.880      128.246       80.551     8813.447    16447.121     6488.494        2.083        1.587       78.084       93.085        1.421      340.858       15.167      852.797
09/21/2013  14:04:00      121.203     -154.708       19.430      102.664      121.732       65.304    10539.823    14818.682     4264.554        3.431        1.481      196.532       72.015        0.134      340.866       15.182      852.799
09/21/2013  14:05:00      138.322     -172.340       -3.945       67.470       83.781       51.389     4552.255     7019.188     2640.814        3.153        0.711      220.984       45.478        0.042      340.852       15.156      852.774
09/21/2013  14:06:00      132.813      -40.005       53.288       85.422      125.109       66.017     7296.901    15652.243     4358.185        2.469        1.365      138.707       83.272        0.360      340.825       15.111      852.772
09/21/2013  14:07:00      140.316      -62.652       45.906      112.730      114.351       69.976    12708.066    13076.206     4896.654        2.819        1.534      153.668       72.820        0.225      340.815       15.094      852.777
09/21/2013  14:08:00       71.649       54.023       87.698       81.471      109.952       67.200     6637.498    12089.414     4515.889        1.949        1.162       89.734       69.289        0.596      340.885       15.212      852.777
09/21/2013  14:09:00      119.107     -167.628       10.571       93.386      116.094       65.893     8720.869    13477.830     4341.931        3.446        1.327      205.635       65.103        0.100      340.811       15.087      852.796
09/21/2013  14:10:00        9.988      -90.359       11.021       98.383       89.294       51.610     9679.288     7973.398     2663.575        1.435        1.016       90.910       46.885        0.266      340.905       15.249      852.773
09/21/2013  14:11:00       18.082       41.460       68.710       63.472       59.560       47.943     4028.671     3547.357     2298.526        0.832        0.494       45.231       46.557        1.059      341.141       15.649      852.736
09/21/2013  14:12:00       68.391       84.336       90.397      116.141       87.477       88.707    13488.761     7652.248     7869.017        2.448        1.451      108.582       68.473        0.398      341.003       15.413      852.698
09/21/2013  14:13:00       61.658      135.092      127.936       58.495       60.770       56.584     3421.653     3692.940     3201.768        2.437        0.516      148.498       37.507        0.064      340.840       15.137      852.662
09/21/2013  14:14:00      102.061       77.914       66.481       98.771       69.411       47.614     9755.771     4817.884     2267.078        1.887        0.842      128.402       25.200        0.039      341.018       15.438      852.662
09/21/2013  14:15:00       96.643       73.666       72.431       58.977       97.854       63.880     3478.275     9575.498     4080.672        1.857        0.857      121.518       53.828        0.196      340.958       15.338      852.661
09/21/2013  14:16:00       46.420       26.259       28.545       45.917       48.366       32.415     2108.331     2339.285     1050.736        0.458        0.275       53.333       13.831        0.067      341.045       15.486      852.688
09/21/2013  14:17:00      -21.369        4.879       12.643       42.862       28.613       25.844     1837.144      818.693      667.889        0.198        0.166       21.919       23.792        1.178      341.135       15.638      852.702
09/21/2013  14:18:00       56.424       65.998       26.564       31.810       42.894       34.249     1011.884     1839.899     1173.009        0.613        0.201       86.829       19.415        0.050      340.996       15.403      852.688
09/21/2013  14:19:00      103.016       21.757        8.474       77.122      115.165       65.092     5947.730    13262.921     4236.916        1.730        1.172      105.288       23.101        0.048      340.963       15.346      852.649
09/21/2013  14:20:00      101.221       15.099       70.404      109.795      102.476       69.810    12054.909    10501.289     4873.421        2.142        1.371      102.341       70.346        0.472      340.911       15.257      852.656
09/21/2013  14:21:00       45.533        3.361       39.065       71.914       59.923       55.851     5171.606     3590.760     3119.344        0.774        0.594       45.657       44.167        0.936      340.906       15.250      852.655
09/21/2013  14:22:00       43.893       53.481      134.771       96.309      175.358      134.265     9275.337    30750.349    18027.139        4.049        2.903       69.187      139.117        4.043      340.931       15.291      852.610
09/21/2013  14:23:00      179.598     -193.720       25.272      197.194      205.027      121.685    38885.415    42035.986    14807.205        8.306        4.786      264.165      129.197        0.239      340.826       15.111      852.592
09/21/2013  14:24:00       60.871      -70.758       89.466      115.177      137.535       90.989    13265.648    18915.881     8279.043        2.858        2.023       93.338       92.052        0.973      340.787       15.047      852.598
09/21/2013  14:25:00       76.409     -132.355        1.959       90.451       99.757       68.719     8181.426     9951.371     4722.273        2.310        1.143      152.827       63.282        0.171      340.721       14.936      852.622
09/21/2013  14:26:00       21.435      -96.234       14.014      111.037       76.427       37.784    12329.274     5841.071     1427.658        1.475        0.980       98.592       36.474        0.137      340.687       14.879      852.636
09/21/2013  14:27:00      -39.302      -54.713       -4.762       51.729       30.752       26.704     2675.840      945.708      713.112        0.445        0.217       67.366       18.663        0.077      340.752       14.989      852.608
09/21/2013  14:28:00      -10.280        5.030       26.847       69.864       58.492       33.789     4880.940     3421.304     1141.707        0.515        0.472       11.445       33.577        8.607      340.762       15.005      852.631
09/21/2013  14:29:00       88.348       -4.254       38.403       79.851       67.829       57.800     6376.107     4600.813     3340.820        1.181        0.716       88.450       45.238        0.262      340.594       14.721      852.602
09/21/2013  14:30:00      -14.302      -17.773       32.148       67.833       42.991       31.533     4601.384     1848.203      994.352        0.450        0.372       22.813       28.685        1.581      340.906       15.250      852.617
09/21/2013  14:31:00        1.511      -34.393       21.297       44.487       69.297       48.734     1979.106     4802.037     2375.002        0.540        0.458       34.426       48.181        1.959      340.850       15.154      852.634
09/21/2013  14:32:00      -59.155     -138.185        8.784      103.475       97.967       52.336    10706.982     9597.458     2739.081        2.285        1.152      150.314       46.320        0.095      340.757       14.996      852.666
09/21/2013  14:33:00     -160.902       -7.533      -16.176      188.560       79.346       41.017    35554.750     6295.851     1682.409        3.486        2.177      161.078       51.611        0.103      340.837       15.132      852.713
09/21/2013  14:34:00     -437.475     -231.910      -15.150      243.998      203.116      136.498    59535.199    41255.975    18631.840       18.239        5.971      495.143      146.748        0.088      340.657       14.826      852.766
09/21/2013  14:35:00     -403.798      -56.064      -11.131      245.286      264.508      106.433    60165.429    69964.411    11327.951       15.386        7.073      407.671      107.028        0.069      340.209       14.067      852.801
09/21/2013  14:36:00     -566.574     -247.461      -10.405      375.180      319.048      135.371   140759.665   101791.394    18325.287       32.156       13.044      618.258      191.128        0.096      339.972       13.669      852.853
09/21/2013  14:37:00     -333.009     -186.385       -3.245      292.393      284.120      127.485    85493.854    80724.324    16252.486       16.402        9.124      381.621      154.072        0.163      339.925       13.589      852.886
09/21/2013  14:38:00     -363.530     -154.292       29.570      322.499      208.999      128.679   104005.626    43680.615    16558.323       16.051        8.212      394.917      152.340        0.149      340.039       13.781      852.903
09/21/2013  14:39:00     -497.717     -168.542      -29.570      257.660      210.020      119.105    66388.431    44108.586    14186.073       20.082        6.234      525.479       93.604        0.032      340.063       13.821      852.944
09/21/2013  14:40:00     -594.466      -81.387      -30.074      236.535      189.923      110.858    55948.714    36070.811    12289.396       23.259        5.215      600.011      116.713        0.038      340.004       13.723      853.048
09/21/2013  14:41:00     -669.646     -107.872      -56.310      241.066      184.399       97.891    58112.929    34003.133     9582.643       28.245        5.085      678.279      112.617        0.028      339.961       13.649      853.091
09/21/2013  14:42:00     -582.256     -216.919      -19.768      249.147      175.174      102.697    62074.420    30685.982    10546.618       24.487        5.165      621.350      104.948        0.029      339.804       13.383      853.057
09/21/2013  14:43:00     -547.659     -169.727      -16.271      211.565      176.874       88.416    44759.769    31284.539     7817.302       20.642        4.193      573.356       94.933        0.027      339.841       13.447      852.973
09/21/2013  14:44:00     -646.476      -81.049      -30.007      249.066      201.475      111.812    62034.050    40592.158    12501.879       27.024        5.756      651.536      121.169        0.035      339.610       13.058      852.912
09/21/2013  14:45:00     -346.111      -19.638        1.092      249.839      157.763      109.694    62419.417    24889.178    12032.743       10.974        4.967      346.668      125.222        0.130      339.748       13.291      852.848
09/21/2013  14:46:00     -557.485       85.211      -37.388      219.316      184.705       97.979    48099.397    34116.081     9599.977       20.561        4.591      563.960       99.014        0.031      339.578       13.004      852.782
09/21/2013  14:47:00     -563.961       -5.429      -35.056      194.589      172.388       87.577    37864.855    29717.607     7669.771       19.727        3.763      563.987       99.636        0.031      339.581       13.010      852.797
09/21/2013  14:48:00     -705.632     -107.818      -37.771      269.421      178.340      104.834    72587.932    31805.075    10990.142       31.315        5.769      713.821      116.089        0.026      339.512       12.892      852.814
09/21/2013  14:49:00     -472.817      -45.512      -27.506      262.449      136.055       85.416    68879.642    18511.035     7295.908       16.052        4.734      475.002      112.317        0.056      339.602       13.045      852.918
09/21/2013  14:50:00     -457.810     -116.884      -14.485      221.073      187.573       88.426    48873.406    35183.694     7819.178       15.765        4.594      472.495       90.965        0.037      339.691       13.195      853.059
09/21/2013  14:51:00     -550.057     -177.401      -26.731      196.369      179.522       95.674    38560.731    32228.071     9153.525       20.733        3.997      577.957       96.891        0.028      339.645       13.118      853.180
09/21/2013  14:52:00     -386.215     -210.872       -7.242      213.981      171.601      106.706    45787.868    29446.802    11386.226       14.013        4.331      440.033      123.341        0.079      339.670       13.159      853.282
09/21/2013  14:53:00     -411.288     -110.354      -29.550      179.674      178.025       72.125    32282.655    31692.850     5202.087       12.568        3.459      425.835       85.697        0.040      339.761       13.312      853.370
09/21/2013  14:54:00     -321.953      -25.714      -20.931      206.589      110.808       75.684    42679.078    12278.485     5728.082        8.271        3.034      322.978       97.574        0.091      339.901       13.548      853.419
09/21/2013  14:55:00     -283.177     -167.906       -7.740      185.505      182.373       92.750    34412.013    33259.786     8602.472        9.234        3.814      329.213       90.010        0.075      339.898       13.543      853.475
09/21/2013  14:56:00     -246.985     -148.597        1.298      148.844      132.384       84.783    22154.632    17525.433     7188.225        6.497        2.343      288.241       91.277        0.100      339.951       13.634      853.522
09/21/2013  14:57:00     -299.760     -176.593       -2.540      237.068      177.838       94.450    56201.215    31626.352     8920.753       10.888        4.837      347.910      121.012        0.121      339.887       13.526      853.529
09/21/2013  14:58:00     -489.009     -270.298      -20.373      233.106      218.590      109.128    54338.638    47781.659    11908.825       21.330        5.701      558.740      119.554        0.046      339.559       12.972      853.405
09/21/2013  14:59:00     -355.465     -298.253      -11.418      196.947      172.109      105.795    38788.014    29621.462    11192.666       14.751        3.980      464.015      116.892        0.063      339.563       12.978      853.253
09/21/2013  15:00:00     -386.581       10.616      -15.357      227.492      177.035       98.540    51752.605    31341.236     9710.230       12.128        4.640      386.726       96.955        0.063      339.744       13.285      853.099
09/21/2013  15:01:00     -612.032       39.380      -49.887      203.363      168.214       95.066    41356.701    28295.814     9037.462       22.864        3.934      613.298       99.604        0.026      339.622       13.078      852.984
09/21/2013  15:02:00     -306.003      -26.930      -25.783      150.096      192.981       78.964    22528.696    37241.517     6235.328        8.050        3.300      307.186       78.099        0.065      339.706       13.220      852.924
09/21/2013  15:03:00     -324.419       -8.003      -26.159      121.533       99.451       60.765    14770.240     9890.539     3692.445        6.717        1.418      324.518       52.810        0.026      339.835       13.439      852.922
09/21/2013  15:04:00      -87.393       24.199       13.005      121.771       58.444       47.973    14828.271     3415.664     2301.412        1.446        1.027       90.681       41.096        0.205      339.823       13.420      852.903
09/21/2013  15:05:00     -397.037      -65.424      -26.450      236.762      133.868       86.838    56056.213    17920.615     7540.913       12.205        4.076      402.392      112.118        0.078      339.623       13.079      852.875
09/21/2013  15:06:00     -356.648      -83.318      -21.385      148.363       95.719       61.328    22011.581     9162.140     3761.148        8.476        1.747      366.251       48.813        0.018      339.528       12.919      852.775
09/21/2013  15:07:00     -288.491      -51.345        1.694      143.339      130.677       66.404    20546.092    17076.562     4409.443        6.394        2.102      293.024       58.434        0.040      339.672       13.163      852.775
09/21/2013  15:08:00     -378.628      -68.889      -10.080      227.902      299.312      113.318    51939.122    89587.537    12840.898       15.126        7.718      384.844      117.606        0.093      339.676       13.168      852.714
09/21/2013  15:09:00     -776.678     -138.197      -65.346      261.425      288.190      121.747    68342.985    83053.518    14822.221       39.638        8.311      788.877      122.980        0.024      339.775       13.335      852.547
09/21/2013  15:10:00     -552.023       -5.886      -29.620      272.372      260.036      117.410    74186.767    67618.867    13785.162       23.059        7.780      552.054      120.103        0.047      340.033       13.771      852.674
09/21/2013  15:11:00     -358.955      -67.753       10.802      323.930      210.040      114.793   104930.957    44116.595    13177.421       14.786        8.111      365.293      151.654        0.172      339.949       13.630      852.627
09/21/2013  15:12:00     -878.687      -43.653      -75.257      275.658      230.313      125.382    75987.337    53044.304    15720.534       46.218        7.238      879.770      119.709        0.019      339.713       13.232      852.565
09/21/2013  15:13:00     -716.442     -206.359      -37.779      283.750      240.054      124.792    80514.004    57626.074    15573.035       35.548        7.686      745.570      116.851        0.025      339.828       13.425      852.531
09/21/2013  15:14:00     -644.903     -157.157      -16.911      294.303      261.683      124.359    86614.070    68477.848    15465.264       30.569        8.528      663.775      147.796        0.050      339.949       13.628      852.503
09/21/2013  15:15:00     -725.899     -314.074      -39.090      294.647      245.935      127.197    86816.576    60483.927    16179.094       39.526        8.174      790.931      131.762        0.028      339.815       13.402      852.536
09/21/2013  15:16:00     -566.026     -171.733      -19.634      280.620      235.973      133.505    78747.667    55683.024    17823.517       25.123        7.613      591.505      149.901        0.064      339.918       13.577      852.579
09/21/2013  15:17:00     -688.428     -166.580      -48.679      254.227      225.913      105.003    64631.596    51036.542    11025.586       31.535        6.335      708.295      111.766        0.025      339.779       13.344      852.670
09/21/2013  15:18:00     -621.457     -100.516      -39.447      241.294      163.982       90.580    58222.753    26890.255     8204.730       24.557        4.666      629.533      100.723        0.026      339.788       13.358      852.718
09/21/2013  15:19:00     -656.922     -178.783      -25.353      301.220      215.243      114.441    90733.197    46329.549    13096.855       30.713        7.508      680.815      130.070        0.036      339.602       13.043      852.788
09/21/2013  15:20:00     -486.091        2.221      -31.707      278.901      174.896      119.187    77785.732    30588.654    14205.463       17.991        6.129      486.096      125.421        0.067      339.801       13.380      852.841
09/21/2013  15:21:00     -620.158     -153.598      -22.012      287.945      186.320       96.038    82912.287    34715.150     9223.378       26.774        6.343      638.896      118.664        0.034      339.645       13.117      852.885
09/21/2013  15:22:00     -518.137      -38.080      -11.126      236.436      217.965       97.851    55901.774    47508.910     9574.758       19.149        5.649      519.534      110.166        0.045      339.689       13.192      852.916
09/21/2013  15:23:00     -743.110     -156.508      -62.980      294.860      268.917      125.378    86942.645    72316.461    15719.639       37.779        8.749      759.412      113.725        0.022      339.636       13.103      852.888
09/21/2013  15:24:00     -728.251     -264.029      -17.664      311.320      238.405      119.796    96920.135    56837.125    14351.138       38.421        8.405      774.636      136.473        0.031      339.624       13.081      852.871
09/21/2013  15:25:00     -638.012     -173.516      -28.177      286.640      194.624      111.041    82162.502    37878.451    12330.111       28.514        6.619      661.186      134.606        0.041      339.741       13.280      852.950
09/21/2013  15:26:00     -614.136     -164.171       -0.507      318.289      229.818      118.862   101308.009    52816.119    14128.180       28.615        8.413      635.701      146.145        0.053      339.620       13.073      852.972
09/21/2013  15:27:00     -657.209     -187.951      -20.733      371.325      218.645      120.387   137882.309    47805.769    14492.918       33.389       10.009      683.556      155.982        0.052      339.573       12.996      853.007
09/21/2013  15:28:00     -530.122     -112.240      -22.464      198.912      174.204       97.864    39566.100    30347.001     9577.458       18.680        3.975      541.874       99.092        0.033      339.711       13.227      853.062
09/21/2013  15:29:00     -597.842      -91.048      -21.875      262.659      200.747       89.743    68989.972    40299.194     8053.826       24.174        5.867      604.735       93.835        0.024      339.638       13.105      853.004
09/21/2013  15:30:00     -578.985     -137.342       -8.959      355.617      211.244      110.324   126463.551    44623.912    12171.438       26.868        9.163      595.052      124.978        0.044      339.618       13.070      852.981
09/21/2013  15:31:00     -638.586     -168.074      -22.875      319.903      238.707      105.869   102338.161    56981.090    11208.154       30.351        8.526      660.334      121.477        0.034      339.550       12.958      852.948
09/21/2013  15:32:00     -532.027     -162.070       -6.168      300.518      210.987      114.140    90310.918    44515.688    13027.947       22.858        7.393      556.165      127.395        0.052      339.655       13.133      852.910
09/21/2013  15:33:00     -676.144     -122.592      -32.402      287.887      207.103      116.284    82879.093    42891.493    13521.894       30.624        6.965      687.168      146.717        0.046      339.520       12.906      852.928
09/21/2013  15:34:00     -457.902     -123.250      -31.573      239.487      212.572       95.566    57353.794    45187.020     9132.798       16.875        5.584      474.199      106.521        0.050      339.660       13.143      852.926
09/21/2013  15:35:00     -727.931      -79.785      -43.193      244.755      184.810       98.518    59905.094    34154.839     9705.843       32.092        5.188      732.290       93.832        0.016      339.536       12.934      852.972
09/21/2013  15:36:00     -665.403     -141.934      -50.135      264.851      204.017      107.805    70145.942    41623.109    11621.847       29.438        6.170      680.372      117.398        0.030      339.575       12.998      852.941
09/21/2013  15:37:00     -561.740      -14.386      -36.606      192.827      186.056       85.557    37182.257    34616.921     7319.983       19.809        3.956      561.924       82.707        0.022      339.602       13.044      852.988
09/21/2013  15:38:00     -525.544     -127.259      -24.332      243.519      183.392       90.486    59301.619    33632.741     8187.633       19.703        5.056      540.732      113.745        0.044      339.588       13.022      853.003
09/21/2013  15:39:00     -624.524      -46.880      -24.578      206.183      157.122       99.135    42511.339    24687.262     9827.847       23.491        3.851      626.281       97.139        0.024      339.535       12.931      852.954
09/21/2013  15:40:00     -640.048     -109.137      -55.020      193.759      187.668      106.689    37542.605    35219.180    11382.561       25.436        4.207      649.286       82.053        0.016      339.574       12.998      852.925
09/21/2013  15:41:00     -557.214     -123.332      -54.014      181.500      181.623      101.678    32942.069    32986.922    10338.463       20.243        3.813      570.700       66.858        0.014      339.619       13.073      852.917
09/21/2013  15:42:00     -637.575     -201.529      -32.499      251.854      195.664      101.122    63430.496    38284.278    10225.599       28.003        5.597      668.667      100.073        0.022      339.465       12.815      852.918
09/21/2013  15:43:00     -742.629     -154.137      -58.903      279.350      250.254      104.086    78036.474    62627.228    10833.811       36.508        7.575      758.456      125.615        0.027      339.403       12.710      852.968
09/21/2013  15:44:00     -552.597     -112.000      -26.213      232.211      210.921       96.508    53921.944    44487.724     9313.857       21.314        5.386      563.832       96.789        0.029      339.431       12.755      852.991
09/21/2013  15:45:00     -353.309      -57.431      -29.074      200.449      180.272       86.395    40179.910    32498.135     7464.083       10.454        4.007      357.946       58.269        0.026      339.557       12.967      853.002
09/21/2013  15:46:00     -444.941      -93.312      -55.781      164.863      149.907       82.664    27179.947    22472.118     6833.337       13.313        2.824      454.621       59.891        0.017      339.522       12.908      853.007
09/21/2013  15:47:00     -591.961     -103.916      -55.789      200.840      142.854       86.661    40336.859    20407.347     7510.067       21.628        3.413      601.012       82.716        0.019      339.468       12.819      853.001
09/21/2013  15:48:00     -410.461     -100.699      -40.810      200.000      104.942       82.612    39999.852    11012.879     6824.663       11.905        2.892      422.633       86.207        0.042      339.489       12.854      852.963
09/21/2013  15:49:00     -574.191      -39.442      -53.119      181.465      151.558      101.194    32929.393    22969.732    10240.200       20.009        3.307      575.544       93.906        0.027      339.465       12.813      852.907
09/21/2013  15:50:00     -647.717     -143.849      -67.958      284.622      269.422      104.490    81009.658    72588.325    10918.146       30.465        8.226      663.499      119.234        0.032      339.394       12.693      852.853
09/21/2013  15:51:00     -678.121     -249.228      -11.601      254.856      186.199      103.618    64951.341    34670.183    10736.730       31.621        5.518      722.470      132.020        0.033      339.319       12.566      852.798
09/21/2013  15:52:00     -547.813     -132.107      -16.403      245.680      154.360       76.890    60358.567    23827.091     5912.052       20.394        4.505      563.516       85.812        0.023      339.343       12.608      852.801
09/21/2013  15:53:00     -398.011       13.949      -16.732      236.815      165.263       80.827    56081.369    27311.729     6533.065       12.439        4.496      398.255       97.740        0.060      339.459       12.805      852.798
09/21/2013  15:54:00     -465.055        5.771      -22.621      267.724      182.804       96.400    71676.305    33417.392     9292.949       16.558        5.719      465.091      101.276        0.047      339.443       12.776      852.694
09/21/2013  15:55:00     -532.604      -78.016      -24.519      314.698      184.212      110.049    99034.624    33933.908    12110.708       21.769        7.254      538.288      146.334        0.074      339.373       12.659      852.685
09/21/2013  15:56:00     -469.050      -38.305      -19.263      239.785      183.944       83.914    57496.919    33835.408     7041.510       16.009        4.919      470.611       96.619        0.042      339.378       12.667      852.739
09/21/2013  15:57:00     -397.735     -113.367      -13.590      245.460      176.828      102.813    60250.470    31268.175    10570.466       13.664        5.104      413.576      121.877        0.087      339.359       12.634      852.787
09/21/2013  15:58:00     -512.248       74.906      -40.226      282.024      127.922       86.597    79537.354    16363.925     7498.958       18.649        5.170      517.696      128.583        0.062      339.354       12.627      852.813
09/21/2013  15:59:00     -549.326     -169.456      -18.106      300.239      216.431      109.062    90143.659    46842.324    11894.598       23.981        7.444      574.869      122.491        0.045      339.332       12.590      852.802
09/21/2013  16:00:00     -427.278     -106.792      -20.654      212.466      190.279       93.106    45141.842    36206.016     8668.763       14.219        4.501      440.421       91.958        0.044      339.364       12.644      852.798
09/21/2013  16:01:00     -411.843      -97.402      -30.245      241.899      188.038       94.135    58515.127    35358.308     8861.325       14.136        5.137      423.204       84.032        0.039      339.363       12.642      852.752
09/21/2013  16:02:00     -438.542     -128.042        0.096      195.774      196.091       95.633    38327.366    38451.683     9145.707       14.730        4.296      456.852       90.668        0.039      339.398       12.699      852.713
09/21/2013  16:03:00     -452.235      -92.246      -10.771      268.541      247.648      113.048    72114.459    61329.389    12779.783       17.965        7.311      461.547      126.016        0.075      339.376       12.663      852.705
09/21/2013  16:04:00     -607.879     -151.084      -43.723      289.469      194.908      126.588    83792.076    37988.950    16024.565       26.600        6.890      626.373      134.481        0.046      339.345       12.611      852.681
09/21/2013  16:05:00     -520.572     -126.149      -29.843      269.501      176.671      107.377    72631.034    31212.643    11529.855       20.156        5.769      535.639      126.286        0.056      339.361       12.638      852.707
09/21/2013  16:06:00     -431.160      -65.812      -30.346      252.549      208.760      110.280    63781.200    43580.721    12161.641       15.531        5.976      436.154      110.990        0.065      339.366       12.647      852.719
09/21/2013  16:07:00     -657.025     -208.372      -32.130      234.035      188.679      107.042    54772.605    35599.904    11457.887       28.896        5.092      689.276      105.676        0.024      339.320       12.569      852.735
09/21/2013  16:08:00     -782.029     -140.199      -58.085      223.590      180.539      106.048    49992.439    32594.480    11246.240       36.420        4.692      794.497      114.985        0.021      339.290       12.518      852.765
09/21/2013  16:09:00     -646.380        3.738      -29.764      250.384      191.402      107.914    62692.096    36634.755    11645.379       26.482        5.549      646.391      117.304        0.033      339.329       12.584      852.812
09/21/2013  16:10:00     -743.350      -73.822      -35.286      218.343      210.174      104.793    47673.534    44173.137    10981.635       33.103        5.141      747.006      117.930        0.025      339.312       12.555      852.904
09/21/2013  16:11:00     -768.925      -51.811      -32.369      304.860      204.415      109.059    92939.479    41785.589    11893.839       37.077        7.331      770.669      124.563        0.026      339.241       12.436      852.926
09/21/2013  16:12:00     -693.429     -188.457      -44.337      261.870      236.115      117.257    68575.643    55750.123    13749.171       32.817        6.904      718.582      133.264        0.034      339.257       12.463      852.970
09/21/2013  16:13:00     -775.300     -224.322      -30.429      289.914      237.297      119.040    84050.184    56309.741    14170.574       40.340        7.727      807.100      126.587        0.025      339.216       12.393      853.005
09/21/2013  16:14:00     -709.198     -132.686      -40.095      277.217      225.379      117.034    76849.431    50795.823    13696.849       33.173        7.067      721.503      111.322        0.024      339.165       12.309      853.053
09/21/2013  16:15:00     -512.915      -67.553      -31.285      277.602      252.530      103.467    77062.666    63771.380    10705.361       21.005        7.577      517.345      109.186        0.045      339.202       12.373      853.099
09/21/2013  16:16:00     -713.754     -221.056      -23.837      246.758      226.917      130.896    60889.396    51491.412    17133.778       34.417        6.476      747.202      130.785        0.031      339.097       12.193      853.132
09/21/2013  16:17:00     -675.607     -193.826       -9.488      228.363      212.697      106.907    52149.786    45239.942    11429.152       30.144        5.441      702.860      100.087        0.020      338.995       12.022      853.141
09/21/2013  16:18:00     -614.091       -6.846      -27.992      327.665      216.679      109.289   107364.433    46949.652    11944.145       27.207        8.313      614.129      138.992        0.051      339.026       12.075      853.208
09/21/2013  16:19:00     -415.893      -87.233        1.594      246.217      165.567       90.788    60622.810    27412.511     8242.489       13.841        4.814      424.943       99.841        0.055      339.081       12.167      853.253
09/21/2013  16:20:00     -605.887      -91.808      -28.398      300.638      215.928      115.052    90383.373    46624.797    13236.969       26.326        7.512      612.803      116.701        0.036      338.927       11.908      853.248
09/21/2013  16:21:00     -532.139      -79.906      -24.514      253.615      190.479       92.523    64320.735    36282.362     8560.590       19.964        5.458      538.105      114.067        0.045      338.881       11.832      853.265
09/21/2013  16:22:00     -913.643      -99.877      -45.962      321.837      246.231      131.049   103579.024    60629.740    17173.908       51.407        9.069      919.086      145.843        0.025      338.706       11.536      853.222
09/21/2013  16:23:00     -785.559     -116.079      -64.776      360.227      281.443      134.931   129763.654    79210.375    18206.257       43.093       11.359      794.089      167.249        0.044      338.695       11.519      853.247
09/21/2013  16:24:00     -757.546      -52.219      -39.806      285.198      219.858      130.657    81338.013    48337.604    17071.138       36.244        7.337      759.344      143.955        0.036      338.674       11.481      853.333
09/21/2013  16:25:00     -609.753      -31.802      -45.530      303.576      206.912       95.056    92158.618    42812.779     9035.639       25.942        7.200      610.582      120.395        0.039      338.662       11.461      853.354
09/21/2013  16:26:00     -591.407      -84.596      -49.530      228.540      195.914       95.361    52230.304    38382.177     9093.769       22.952        4.985      597.427       93.438        0.024      338.631       11.410      853.388
09/21/2013  16:27:00     -707.890     -247.238      -22.077      301.726      229.965      127.018    91038.647    52883.682    16133.453       36.136        8.003      749.823      139.714        0.035      338.542       11.261      853.379
09/21/2013  16:28:00     -608.131      -87.929       -6.719      252.542      256.954      125.962    63777.356    66025.551    15866.517       26.161        7.283      614.455      122.719        0.040      338.485       11.165      853.442
09/21/2013  16:29:00     -837.447     -125.701      -38.198      283.479      230.572      120.127    80360.093    53163.319    14430.481       43.324        7.398      846.828      139.649        0.027      338.374       10.979      853.523
09/21/2013  16:30:00     -547.505     -253.119      -37.711      309.781      222.499      120.534    95964.155    49505.832    14528.355       26.259        8.000      603.184      138.784        0.053      338.425       11.066      853.652
09/21/2013  16:31:00     -531.672     -114.441      -22.464      264.239      183.264      106.235    69822.363    33585.645    11285.861       20.546        5.735      543.849      115.326        0.045      338.416       11.048      853.743
09/21/2013  16:32:00     -586.048     -191.252      -30.708      289.857      236.674      105.845    84017.338    56014.706    11203.158       26.607        7.562      616.465      132.871        0.046      338.365       10.964      853.783
09/21/2013  16:33:00     -512.755     -217.508       -5.424      280.648      255.673      117.781    78763.142    65368.492    13872.364       23.410        7.900      556.980      141.865        0.065      338.345       10.931      853.835
09/21/2013  16:34:00     -551.834     -166.582      -20.697      368.335      233.866      110.654   135670.471    54693.310    12244.379       26.761       10.130      576.429      122.968        0.046      338.317       10.884      853.830
09/21/2013  16:35:00     -611.704     -157.269      -22.149      324.398      212.967      105.286   105233.919    45355.062    11085.129       28.051        8.084      631.598      121.603        0.037      338.276       10.815      853.838
09/21/2013  16:36:00     -419.635     -163.777       -7.358      283.898      200.998      106.136    80597.966    40400.253    11264.753       16.759        6.613      450.463      114.772        0.065      338.284       10.828      853.829
09/21/2013  16:37:00     -520.376     -176.029       -7.028      249.339      217.953      117.284    62169.816    47503.345    13755.606       21.260        6.171      549.343      134.808        0.060      338.259       10.785      853.786
09/21/2013  16:38:00     -474.041     -254.890      -17.499      189.711      227.809      104.297    35990.261    51896.810    10877.863       19.436        4.938      538.223      105.066        0.038      338.244       10.761      853.761
09/21/2013  16:39:00     -498.763     -246.117      -21.571      200.307      169.021       86.903    40122.844    28568.008     7552.148       19.301        3.812      556.182       86.255        0.024      338.224       10.726      853.727
09/21/2013  16:40:00     -292.700     -157.462       36.002      312.160      196.499      148.182    97443.572    38611.866    21958.050       13.486        7.901      332.367      181.027        0.297      338.272       10.808      853.661
09/21/2013  16:41:00     -332.897     -220.946        1.526      240.408      193.440      112.018    57796.187    37419.117    12547.969       13.368        5.388      399.547      116.614        0.085      338.208       10.700      853.625
09/21/2013  16:42:00     -315.818     -146.283        3.977      276.719      182.691      111.711    76573.165    33375.821    12479.421       12.177        6.121      348.051      136.210        0.153      338.228       10.733      853.605
09/21/2013  16:43:00     -529.953     -210.498      -18.666      231.846      170.463      104.621    53752.597    29057.727    10945.610       20.961        4.688      570.228      108.641        0.036      338.188       10.665      853.575
09/21/2013  16:44:00     -356.959     -229.401       -7.422      263.198      186.574      120.580    69273.414    34809.935    14539.552       14.934        5.931      424.317      138.945        0.107      338.193       10.675      853.505
09/21/2013  16:45:00     -300.554     -163.866       -3.779      276.758      167.797      113.388    76594.792    28155.740    12856.905       11.738        5.880      342.323      142.793        0.174      338.212       10.707      853.475
09/21/2013  16:46:00     -389.815     -170.357       -2.527      268.510      175.677      109.080    72097.576    30862.300    11898.483       14.790        5.743      425.415      132.116        0.096      338.188       10.667      853.486
09/21/2013  16:47:00     -471.504     -265.927      -21.123      248.605      195.526      118.766    61804.289    38230.552    14105.374       20.379        5.707      541.326      131.639        0.059      338.093       10.507      853.521
09/21/2013  16:48:00     -438.822     -277.071      -18.549      255.574      230.274      118.465    65317.933    53026.063    14033.904       20.100        6.619      518.973      131.583        0.064      338.051       10.437      853.546
09/21/2013  16:49:00     -602.819     -324.928      -23.173      268.676      213.682      101.889    72186.837    45660.185    10381.359       29.884        6.411      684.813      102.776        0.023      338.005       10.360      853.633
09/21/2013  16:50:00     -434.424     -115.462       -5.609      218.331      138.403       81.603    47668.496    19155.488     6659.089       13.777        3.674      449.506       93.047        0.043      338.040       10.416      853.687
09/21/2013  16:51:00     -344.722      -81.352      -17.524      183.950      130.381       76.326    33837.614    16999.261     5825.715        9.120        2.833      354.191       70.607        0.040      338.053       10.441      853.758
09/21/2013  16:52:00     -359.855     -114.034      -10.271      180.564      154.487       78.175    32603.188    23866.352     6111.349       10.258        3.129      377.491       82.398        0.048      338.055       10.443      853.808
09/21/2013  16:53:00     -399.724        1.791      -12.643      156.213      174.041       84.667    24402.496    30290.271     7168.497       11.089        3.093      399.728       75.166        0.035      338.041       10.419      853.878
09/21/2013  16:54:00     -245.212     -132.710        3.786      187.528      146.451       90.134    35166.881    21447.949     8124.149        7.123        3.237      278.821       91.951        0.109      338.092       10.506      853.929
09/21/2013  16:55:00     -306.771     -116.530      -17.578      120.026      100.518       61.814    14406.170    10103.921     3820.920        6.816        1.417      328.158       48.764        0.022      338.056       10.445      853.983
09/21/2013  16:56:00     -385.003      -51.534       -5.799      165.051      162.935       73.745    27241.695    26547.690     5438.286       10.506        2.961      388.437       74.601        0.037      338.013       10.373      853.994
09/21/2013  16:57:00     -440.549      -42.799      -31.421      153.540      131.838       55.675    23574.403    17381.271     3099.749       12.047        2.203      442.623       61.991        0.020      337.963       10.288      854.033
09/21/2013  16:58:00     -234.511     -100.699       -0.752      179.078      131.343       69.703    32069.036    17251.112     4858.485        5.965        2.709      255.217       77.802        0.093      338.047       10.431      854.085
09/21/2013  16:59:00     -438.073     -178.884      -40.344      173.554      124.029       69.436    30121.092    15383.078     4821.396       13.792        2.516      473.188       75.642        0.026      337.911       10.202      854.072
09/21/2013  17:00:00     -182.425     -166.808        6.136      151.221      131.815       79.574    22867.896    17375.110     6332.084        5.385        2.329      247.192       76.222        0.095      337.982       10.321      854.099
09/21/2013  17:01:00     -355.939      -40.703      -25.604      193.250      121.939       66.196    37345.755    14869.070     4381.956        9.279        2.830      358.259       79.448        0.049      337.916       10.210      854.095
09/21/2013  17:02:00     -253.207     -194.648      -27.404      119.248      135.652       72.203    14220.185    18401.498     5213.327        7.029        1.892      319.377       58.364        0.033      337.906       10.192      854.111
09/21/2013  17:03:00     -134.769      -71.760        2.612      108.557       82.250       56.372    11784.607     6765.001     3177.771        2.252        1.086      152.683       58.939        0.149      337.966       10.295      854.094
09/21/2013  17:04:00     -177.280       -7.376      -11.020      166.121       56.203       42.534    27596.182     3158.752     1809.145        3.208        1.628      177.434       61.832        0.121      338.007       10.364      854.060
09/21/2013  17:05:00     -307.104      -11.811      -18.427      117.408       95.319       72.274    13784.528     9085.658     5223.494        6.144        1.405      307.331       69.885        0.052      337.870       10.131      854.041
09/21/2013  17:06:00     -486.670      -70.570      -22.176      162.249      122.309       76.410    26324.691    14959.604     5838.487       14.471        2.356      491.760       82.943        0.028      337.785        9.988      853.984
09/21/2013  17:07:00     -443.734      -48.579      -23.535      190.672      125.840       74.102    36355.892    15835.784     5491.102       12.874        2.884      446.385       89.548        0.040      337.803       10.019      853.987
09/21/2013  17:08:00     -477.581      102.769      -31.993      194.701      133.130       77.851    37908.595    17723.614     6060.789       15.067        3.085      488.513       67.147        0.019      337.787        9.993      853.983
09/21/2013  17:09:00     -368.065       38.214      -30.456      165.632      108.635       71.950    27433.920    11801.490     5176.804        9.113        2.221      370.044       81.135        0.048      337.857       10.112      854.007
09/21/2013  17:10:00     -418.559      -77.227      -14.964      170.588      125.036       77.293    29100.319    15634.029     5974.186       11.603        2.535      425.624       78.044        0.034      337.864       10.123      854.075
09/21/2013  17:11:00     -342.273     -151.368       -0.586      225.957      147.937       81.305    51056.448    21885.208     6610.516       10.979        3.978      374.250       88.153        0.055      337.878       10.147      854.101
09/21/2013  17:12:00     -458.530     -124.000      -25.252      134.074      128.609       74.112    17975.871    16540.168     5492.570       13.313        2.000      475.000       57.245        0.015      337.879       10.148      854.091
09/21/2013  17:13:00     -246.466     -101.542       -0.615      160.156      107.393       64.662    25649.806    11533.210     4181.223        5.620        2.068      266.564       63.418        0.057      338.045       10.425      854.044
09/21/2013  17:14:00     -192.725      -26.211      -11.630      144.558       75.261       58.323    20897.131     5664.275     3401.607        3.396        1.498      194.499       68.033        0.122      338.222       10.725      853.992
09/21/2013  17:15:00     -337.299     -109.266       -4.584      218.278      138.929       69.440    47645.248    19301.148     4821.900        9.874        3.588      354.555       67.280        0.036      338.193       10.674      853.926
09/21/2013  17:16:00     -429.965     -137.664       -6.203      182.091      173.149       90.785    33157.097    29980.568     8241.874       13.761        3.569      451.465       86.804        0.037      338.040       10.418      853.844
09/21/2013  17:17:00     -368.482     -156.607       -5.065      216.356      177.109       90.597    46809.922    31367.720     8207.820       12.334        4.319      400.381       95.794        0.057      338.098       10.517      853.810
09/21/2013  17:18:00     -538.412     -151.291      -21.081      194.474      193.427       87.114    37820.199    37414.093     7588.877       19.801        4.141      559.264       86.274        0.024      338.034       10.408      853.781
09/21/2013  17:19:00     -338.344      -45.489      -32.821      153.061      165.009       76.017    23427.606    27227.932     5778.511        8.702        2.822      341.388       56.447        0.027      338.063       10.458      853.702
09/21/2013  17:20:00     -475.821     -107.358      -19.523      196.813      194.662       89.271    38735.278    37893.298     7969.367       16.144        4.230      487.782       89.099        0.033      338.192       10.674      853.642
09/21/2013  17:21:00     -536.835      -68.249      -25.296      260.720      154.523      101.370    67974.820    23877.320    10275.884       19.779        5.106      541.156      134.426        0.062      338.211       10.705      853.580
09/21/2013  17:22:00     -445.912     -132.147        2.401      229.183      153.975       98.277    52524.877    23708.191     9658.380       15.108        4.295      465.081      114.785        0.061      338.250       10.770      853.541
09/21/2013  17:23:00     -375.553     -122.078       -8.740      165.455      175.305       88.370    27375.260    30731.852     7809.337       11.096        3.296      394.896       87.641        0.049      338.280       10.821      853.481
09/21/2013  17:24:00     -559.218     -138.393      -37.185      220.007      198.738      103.399    48402.915    39496.729    10691.254       21.591        4.930      576.088      109.482        0.036      338.117       10.546      853.448
09/21/2013  17:25:00     -543.769     -147.613      -24.892      226.648      207.231      110.476    51369.225    42944.696    12204.924       21.229        5.326      563.448      121.734        0.047      338.074       10.477      853.402
09/21/2013  17:26:00     -500.656     -176.185       -8.341      209.669      159.995       96.841    43961.194    25598.315     9378.121       18.034        3.947      530.752       99.139        0.035      338.087       10.496      853.415
09/21/2013  17:27:00     -516.328      -39.755      -29.619      241.838      140.697       98.408    58485.704    19795.552     9684.200       17.849        4.398      517.856      117.269        0.051      338.093       10.506      853.412
09/21/2013  17:28:00     -521.906     -149.969      -22.498      243.828      162.498       83.249    59451.969    26405.512     6930.359       19.407        4.639      543.026       94.198        0.030      338.053       10.441      853.438
09/21/2013  17:29:00     -494.923      -69.078      -24.927      252.566      178.497       82.832    63789.389    31861.147     6861.174       17.641        5.126      499.721       95.152        0.036      338.027       10.397      853.464
09/21/2013  17:30:00     -372.437       15.395      -12.932      179.261      156.641       88.049    32134.451    24536.491     7752.705       10.176        3.221      372.755       74.990        0.040      338.127       10.564      853.512
09/21/2013  17:31:00     -474.189      -30.646      -17.238      200.138      219.649       75.385    40055.047    48245.833     5682.904       16.002        4.699      475.178       65.390        0.019      338.055       10.444      853.536
09/21/2013  17:32:00     -579.353        4.905      -41.738      197.530      143.098       83.578    39017.905    20477.171     6985.226       20.194        3.324      579.374       84.718        0.021      338.013       10.372      853.557
09/21/2013  17:33:00     -596.732      -37.362      -54.549      236.747      142.873       83.532    56049.195    20412.833     6977.575       22.193        4.172      597.900      108.998        0.033      337.955       10.275      853.572
09/21/2013  17:34:00     -531.719     -134.341      -13.888      210.473      217.915       95.898    44298.873    47486.744     9196.501       20.095        5.049      548.428       97.488        0.032      337.992       10.337      853.568
09/21/2013  17:35:00     -460.016     -154.667       -5.973      220.746      181.727       88.721    48728.957    33024.622     7871.396       16.258        4.481      485.321       99.238        0.042      338.072       10.472      853.592
09/21/2013  17:36:00     -638.432     -111.646      -27.035      228.905      151.484       96.378    52397.641    22947.341     9288.743       25.270        4.232      648.120      110.197        0.029      337.965       10.292      853.590
09/21/2013  17:37:00     -354.974        5.137      -15.340      131.969      114.954       62.094    17415.829    13214.531     3855.715        8.037        1.724      355.011       52.670        0.022      338.107       10.531      853.612
09/21/2013  17:38:00     -316.922     -127.542       -7.006      140.995       90.735       69.446    19879.713     8232.823     4822.779        7.484        1.647      341.623       56.679        0.028      338.073       10.474      853.607
09/21/2013  17:39:00     -367.215     -117.883        8.158      321.546      148.615       92.173   103391.784    22086.519     8495.771       14.137        6.699      385.672      120.019        0.097      338.022       10.389      853.625
09/21/2013  17:40:00     -320.835      -96.217      -18.697      174.294      211.204       81.625    30378.393    44607.053     6662.591        9.708        4.082      334.952       85.029        0.064      337.998       10.349      853.665
09/21/2013  17:41:00     -270.625      -53.177        4.754      170.164      166.578       93.761    28955.752    27748.125     8791.047        7.078        3.275      275.800       81.029        0.086      337.991       10.336      853.658
09/21/2013  17:42:00     -514.240     -284.340      -38.128      243.522      196.218      115.459    59302.901    38501.351    13330.770       22.892        5.557      587.616      121.808        0.043      337.887       10.159      853.578
09/21/2013  17:43:00     -316.554     -178.754        3.462      224.333      208.739       99.566    50325.513    43571.885     9913.307       11.797        5.191      363.538      113.812        0.098      337.930       10.233      853.607
09/21/2013  17:44:00     -478.596      -62.610        4.676      271.273      229.945      114.347    73589.169    52874.672    13075.292       18.624        6.977      482.674      132.280        0.075      337.917       10.212      853.651
09/21/2013  17:45:00     -511.705     -234.698      -12.029      256.599      294.930      118.400    65842.830    86983.494    14018.579       24.192        8.342      562.961      123.476        0.048      337.913       10.204      853.697
09/21/2013  17:46:00     -426.661     -217.951       -0.662      247.658      246.731       98.389    61334.588    60876.420     9680.476       18.069        6.595      479.105       88.799        0.034      337.954       10.272      853.722
09/21/2013  17:47:00     -606.773     -414.807      -19.772      339.902      245.829      135.054   115533.092    60432.008    18239.554       36.738        9.710      735.009      159.910        0.047      337.949       10.265      853.651
09/21/2013  17:48:00     -499.928     -386.171      -18.073      313.641      222.169      136.254    98370.959    49359.166    18565.197       28.281        8.315      631.709      150.995        0.057      337.934       10.241      853.641
09/21/2013  17:49:00     -373.204     -162.049        8.014      320.616      185.608      134.521   102794.450    34450.421    18095.870       16.044        7.767      406.867      137.278        0.114      337.958       10.281      853.584
09/21/2013  17:50:00     -486.799     -271.979      -18.484      262.225      200.829      117.429    68761.944    40332.235    13789.582       21.706        6.144      557.625      138.764        0.062      337.909       10.198      853.580
09/21/2013  17:51:00     -555.659     -303.155      -23.963      268.769      232.170      130.144    72236.973    53903.058    16937.343       27.213        7.154      632.977      139.732        0.049      337.901       10.186      853.536
09/21/2013  17:52:00     -479.056     -213.666      -22.323      190.475      166.286       84.795    36280.682    27651.191     7190.259       17.337        3.556      524.545       87.879        0.028      337.907       10.196      853.550
09/21/2013  17:53:00     -534.571     -268.253      -16.248      308.239      215.904      132.616    95011.391    46614.348    17587.069       25.857        7.961      598.102      159.449        0.071      337.863       10.120      853.542
09/21/2013  17:54:00     -253.115     -176.890       19.030      267.692      216.108       99.412    71658.980    46702.549     9882.817       11.196        6.412      308.800      116.442        0.142      337.940       10.252      853.565
09/21/2013  17:55:00     -569.007     -291.794      -11.700      272.486      234.019      117.454    74248.684    54765.116    13795.467       27.590        7.140      639.463      117.450        0.034      337.822       10.052      853.553
09/21/2013  17:56:00     -495.480     -253.378      -13.691      280.591      230.075      115.831    78731.226    52934.332    13416.851       22.746        7.254      556.507      136.009        0.060      337.794       10.004      853.560
09/21/2013  17:57:00     -538.767     -221.158      -23.373      246.466      197.152      103.807    60745.281    38868.716    10775.824       22.504        5.519      582.392       97.469        0.028      337.787        9.993      853.539
09/21/2013  17:58:00     -299.783     -190.728        3.398      357.058      240.106      128.068   127490.679    57651.085    16401.294       16.386       10.077      355.313      169.207        0.227      337.793       10.006      853.504
09/21/2013  17:59:00     -581.969      -90.957      -26.554      299.566      184.368      115.567    89740.074    33991.572    13355.791       24.235        6.854      589.034      129.766        0.049      337.954       10.273      853.487
09/21/2013  18:00:00     -426.817     -138.990      -14.749      326.742      174.846      108.715   106760.637    30571.123    11818.944       17.540        7.458      448.877      136.005        0.092      337.909       10.199      853.483
09/21/2013  18:01:00     -466.258     -188.109      -20.917      291.623      219.192      115.643    85043.760    48045.286    13373.285       19.981        7.323      502.774      139.142        0.077      337.787        9.994      853.485
09/21/2013  18:02:00     -564.248     -124.639      -30.333      280.498      188.920      104.435    78679.121    35690.909    10906.727       23.003        6.264      577.850      121.652        0.044      337.741        9.917      853.494
09/21/2013  18:03:00     -479.207      -46.351      -16.789      253.261      175.804       99.905    64141.270    30906.875     9981.086       16.853        5.251      481.443      114.674        0.057      337.869       10.131      853.503
09/21/2013  18:04:00     -616.987      -67.216      -35.980      231.639      172.133      102.556    53656.504    29629.735    10517.832       24.013        4.690      620.638      110.047        0.031      338.115       10.545      853.459
09/21/2013  18:05:00     -564.228      -21.294      -28.668      274.106      181.013       97.693    75134.128    32765.774     9543.980       21.851        5.872      564.630      122.823        0.047      338.114       10.542      853.487
09/21/2013  18:06:00     -543.411     -175.983      -43.910      225.584      183.451      101.535    50888.337    33654.211    10309.257       21.150        4.743      571.197      120.457        0.044      338.010       10.368      853.520
09/21/2013  18:07:00     -380.226      -51.673      -15.555      179.900      148.439       73.225    32363.995    22034.232     5361.894       10.361        2.988      383.721       68.076        0.031      338.009       10.367      853.587
09/21/2013  18:08:00     -435.718      -63.084      -14.217      257.026      215.206       81.014    66062.139    46313.743     6563.238       15.646        5.947      440.261       79.444        0.033      337.910       10.199      853.597
09/21/2013  18:09:00     -556.030      -43.766      -54.195      200.283      139.612       88.338    40113.292    19491.519     7803.600       19.070        3.370      557.750       85.783        0.024      337.939       10.248      853.654
09/21/2013  18:10:00     -350.126      -58.687        6.387      155.848      139.528       78.165    24288.689    19467.954     6109.730        8.796        2.493      355.011       77.769        0.048      337.894       10.173      853.713
09/21/2013  18:11:00     -295.847      -41.991      -15.938      160.230      142.646       75.477    25673.760    20347.890     5696.767        7.062        2.586      298.812       64.204        0.046      337.815       10.041      853.683
09/21/2013  18:12:00     -460.608      -73.199      -18.219      202.552      147.403       85.800    41027.368    21727.784     7361.650       14.397        3.506      466.388       90.038        0.037      337.770        9.965      853.658
09/21/2013  18:13:00     -431.685      -25.472      -26.760      242.721      130.705       91.998    58913.363    17083.674     8463.683       13.607        4.223      432.436      109.141        0.064      337.771        9.967      853.654
09/21/2013  18:14:00     -533.186     -170.730      -35.740      272.383      185.509      100.583    74192.275    34413.630    10116.903       21.670        5.936      559.854      128.203        0.052      337.812       10.035      853.671
09/21/2013  18:15:00     -369.950     -140.132       12.645      320.400      222.221      150.144   102656.151    49382.374    22543.144       16.559        8.729      395.600      179.640        0.206      337.873       10.139      853.651
09/21/2013  18:16:00     -434.498      -99.799      -21.464      263.743      187.222       95.599    69560.561    35051.908     9139.216       15.646        5.688      445.812      102.523        0.053      337.890       10.165      853.627
09/21/2013  18:17:00     -445.999      -98.966       -8.531      226.975      177.175      104.112    51517.690    31391.033    10839.241       15.125        4.687      456.847      103.188        0.051      337.911       10.201      853.593
09/21/2013  18:18:00     -356.884      -38.982       -8.403      225.747      128.941       77.693    50961.513    16625.798     6036.203       10.128        3.681      359.007       89.317        0.062      337.921       10.218      853.641
09/21/2013  18:19:00     -611.660     -121.264      -25.492      298.975      195.564      118.922    89386.115    38245.206    14142.357       26.560        7.089      623.564      143.554        0.053      337.937       10.244      853.669
09/21/2013  18:20:00     -589.180       -6.511      -35.209      261.609      180.058      104.024    68439.147    32420.952    10820.997       23.003        5.584      589.216      114.626        0.038      337.963       10.289      853.703
09/21/2013  18:21:00     -570.039     -119.135      -40.122      201.770      208.797       97.214    40711.287    43596.206     9450.555       21.723        4.688      582.355      102.693        0.031      337.980       10.319      853.742
09/21/2013  18:22:00     -371.815     -183.449      -18.603      225.671      207.853      106.932    50927.222    43202.951    11434.380       13.888        5.278      414.608      114.584        0.076      338.000       10.352      853.767
09/21/2013  18:23:00     -519.473      -90.164      -35.930      288.391      192.386       95.689    83169.311    37012.371     9156.412       20.428        6.467      527.240      124.309        0.056      337.947       10.263      853.771
09/21/2013  18:24:00     -418.263      -78.424      -36.065      180.013      112.999       77.139    32404.753    12768.807     5950.480       11.675        2.556      425.552       90.390        0.045      337.963       10.290      853.785
09/21/2013  18:25:00     -299.349     -106.887       12.199      199.406      140.405       88.179    39762.801    19713.583     7775.465        8.420        3.363      317.860       87.916        0.077      337.996       10.344      853.741
09/21/2013  18:26:00     -368.908      -23.754      -10.175      255.855      140.964       95.152    65461.838    19870.888     9053.914       11.556        4.719      369.672      112.511        0.093      337.956       10.278      853.681
09/21/2013  18:27:00     -521.594     -166.766      -12.868      212.383      204.357       84.361    45106.521    41761.662     7116.700       19.699        4.699      547.605       85.487        0.024      337.913       10.204      853.721
09/21/2013  18:28:00     -419.770      -12.689      -26.126      236.758      184.571       78.004    56054.301    34066.499     6084.635       13.661        4.810      419.962       91.230        0.047      337.917       10.212      853.754
09/21/2013  18:29:00     -529.337     -165.091      -36.501      217.287      144.960       96.385    47213.754    21013.511     9290.069       19.314        3.876      554.484      104.868        0.036      337.885       10.157      853.783
09/21/2013  18:30:00     -301.538     -115.779       -3.372      175.330      136.973       74.895    30740.537    18761.547     5609.222        7.972        2.756      323.001       74.210        0.053      337.904       10.189      853.847
09/21/2013  18:31:00     -421.712      -17.428      -35.596      236.870      117.605       79.356    56107.160    13830.864     6297.356       12.781        3.812      422.072      107.144        0.064      337.875       10.143      853.868
09/21/2013  18:32:00     -329.147      -96.441      -14.171      168.309      148.239       83.087    28327.794    21974.863     6903.518        8.751        2.860      342.985       85.061        0.062      337.873       10.138      853.902
09/21/2013  18:33:00     -478.691     -141.131      -41.397      244.873      183.100       80.529    59962.714    33525.595     6484.977       17.536        4.999      499.063       98.882        0.039      337.823       10.055      853.950
09/21/2013  18:34:00     -464.177      -17.754      -30.779      342.534      210.794       92.857   117329.200    44433.921     8622.369       19.352        8.519      464.516      130.782        0.079      337.835       10.074      853.979
09/21/2013  18:35:00     -498.166      -76.783      -20.138      213.451      217.107      102.477    45561.312    47135.332    10501.579       17.881        5.160      504.049       99.731        0.039      337.826       10.059      854.006
09/21/2013  18:36:00     -583.594      -99.520      -44.259      208.912      123.134       83.887    43644.025    15162.002     7036.951       20.913        3.292      592.019      100.529        0.029      337.817       10.043      854.031
09/21/2013  18:37:00     -357.049     -136.144      -35.536      182.918      104.164       71.773    33458.843    10850.088     5151.433        9.836        2.473      382.125       81.879        0.046      337.853       10.104      854.056
09/21/2013  18:38:00     -372.188      -65.991      -20.932      201.939      161.854       94.186    40779.405    26196.790     8871.061       10.957        3.792      377.993       91.155        0.058      337.814       10.038      854.084
09/21/2013  18:39:00     -561.052     -200.495      -33.290      213.009      145.249       85.046    45372.738    21097.353     7232.873       21.488        3.685      595.800       88.720        0.022      337.767        9.960      854.092
09/21/2013  18:40:00     -478.495     -115.907      -41.848      181.506      159.893       78.188    32944.498    25565.795     6113.318       15.437        3.231      492.333       76.007        0.024      337.740        9.917      854.130
09/21/2013  18:41:00     -403.310      -78.049      -31.624      204.140      146.277       70.531    41673.297    21396.899     4974.595       11.888        3.402      410.793       81.931        0.040      337.760        9.950      854.196
09/21/2013  18:42:00     -445.673     -192.412      -21.096      206.578      216.767       95.710    42674.510    46988.007     9160.380       16.744        4.941      485.434       90.299        0.035      337.753        9.937      854.232
09/21/2013  18:43:00     -508.860      -83.196      -19.861      235.527      174.201       96.497    55472.975    30346.123     9311.762       18.067        4.757      515.616      100.513        0.038      337.745        9.924      854.267
09/21/2013  18:44:00     -467.433     -133.197      -29.743      162.525      162.509       74.721    26414.417    26409.223     5583.227       14.775        2.920      486.040       71.187        0.021      337.751        9.933      854.289
09/21/2013  18:45:00     -420.041     -164.183        4.203      198.659      152.115       89.609    39465.360    23139.050     8029.702       13.701        3.532      450.989      104.384        0.054      337.755        9.940      854.286
09/21/2013  18:46:00     -432.219     -144.390      -28.662      247.172      230.116      101.963    61093.785    52953.179    10396.454       16.644        6.222      455.699      107.823        0.056      337.723        9.887      854.252
09/21/2013  18:47:00     -535.189     -108.507      -50.281      216.046      143.774       84.372    46675.801    20671.096     7118.600       18.758        3.723      546.078       94.773        0.030      337.686        9.824      854.220
09/21/2013  18:48:00     -454.792      -25.102      -25.801      189.963      166.850       79.179    36085.872    27838.933     6269.393       13.915        3.510      455.484       63.468        0.019      337.686        9.824      854.150
09/21/2013  18:49:00     -378.748     -169.734       -9.897      170.922      122.925       82.715    29214.316    15110.587     6841.694       11.175        2.558      415.042       83.914        0.041      337.673        9.804      854.091
09/21/2013  18:50:00     -204.951      -81.164      -15.931      153.836      110.813       67.783    23665.456    12279.464     4594.586        4.469        2.027      220.438       82.110        0.139      337.731        9.900      854.079
09/21/2013  18:51:00     -302.669      -92.843      -23.636      155.410      124.157       73.741    24152.201    15414.973     5437.664        7.289        2.250      316.589       82.080        0.067      337.711        9.868      854.091
09/21/2013  18:52:00     -384.625     -108.586      -20.079      236.275      145.953       86.449    55825.897    21302.215     7473.493       12.235        4.230      399.659       77.995        0.038      337.707        9.859      854.112
09/21/2013  18:53:00     -527.937       46.363      -53.564      129.365      150.342       73.714    16735.392    22602.574     5433.780       16.425        2.239      529.969       70.375        0.018      337.660        9.782      854.135
09/21/2013  18:54:00     -330.386      -90.993       -3.537      149.720      130.154       65.375    22416.076    16940.018     4273.852        8.053        2.181      342.687       60.934        0.032      337.676        9.809      854.164
09/21/2013  18:55:00     -399.139      -68.359      -19.469      183.838      129.735       71.504    33796.249    16831.139     5112.885       11.004        2.787      404.950       87.122        0.046      337.652        9.769      854.175
09/21/2013  18:56:00     -418.208      -32.756      -29.143      195.265      127.946       69.711    38128.275    16370.260     4859.612       11.808        2.968      419.488       70.057        0.028      337.665        9.789      854.170
09/21/2013  18:57:00     -234.581      -37.254        2.251      207.978       88.353       76.794    43255.043     7806.189     5897.361        5.668        2.848      237.521       91.111        0.147      337.711        9.867      854.140
09/21/2013  18:58:00     -211.214      -26.454       11.683      139.290      121.848       71.248    19401.810    14846.907     5076.288        4.238        1.966      212.864       78.521        0.136      337.670        9.799      854.126
09/21/2013  18:59:00     -247.039       11.912      -11.828      152.170      100.597       67.455    23155.576    10119.688     4550.210        4.956        1.891      247.326       67.918        0.075      337.688        9.829      854.096
09/21/2013  19:00:00     -418.882     -175.126      -22.741      168.744      132.316       68.326    28474.663    17507.447     4668.451       12.864        2.533      454.016       75.166        0.027      337.650        9.764      854.059
09/21/2013  19:01:00     -307.242     -132.232      -25.491      166.205      105.054       76.632    27624.180    11036.391     5872.421        7.852        2.227      334.489       80.743        0.058      337.695        9.840      854.064
09/21/2013  19:02:00     -158.292      -23.561       -7.031      138.797      118.257       62.106    19264.477    13984.664     3857.122        3.138        1.855      160.036       64.116        0.161      337.733        9.906      854.081
09/21/2013  19:03:00     -362.595      -86.206      -13.724      158.774      127.920       80.171    25209.267    16363.457     6427.459        9.354        2.400      372.701       70.183        0.035      337.689        9.829      854.098
09/21/2013  19:04:00     -174.503      -44.043        5.705      119.190      112.054       51.195    14206.358    12556.063     2620.949        3.090        1.469      179.975       45.711        0.065      337.700        9.849      854.139
09/21/2013  19:05:00     -411.220      -26.779      -33.522      152.884      139.205       69.972    23373.412    19378.006     4896.051       10.929        2.382      412.090       74.618        0.033      337.634        9.738      854.180
09/21/2013  19:06:00     -268.795      -68.494      -10.259      123.933       99.291       56.457    15359.419     9858.682     3187.412        5.272        1.420      277.384       59.928        0.047      337.654        9.773      854.221
09/21/2013  19:07:00     -168.020      -28.604      -18.231      110.196       89.672       53.768    12143.165     8041.108     2891.013        2.622        1.154      170.437       61.846        0.132      337.672        9.804      854.261
09/21/2013  19:08:00     -196.367      -41.373        2.102      137.958       95.107       43.763    19032.316     9045.349     1915.230        3.513        1.500      200.679       59.105        0.087      337.657        9.778      854.304
09/21/2013  19:09:00     -232.063     -105.717        1.558      113.365      105.873       57.149    12851.629    11209.113     3266.065        4.617        1.366      255.008       47.455        0.035      337.638        9.745      854.308
09/21/2013  19:10:00      -59.514      -55.850       10.058       62.145       73.208       41.186     3861.944     5359.418     1696.322        0.884        0.546       81.616       26.310        0.104      337.683        9.823      854.332
09/21/2013  19:11:00      -67.624       26.568        5.527       58.079       41.078       34.226     3373.152     1687.419     1171.448        0.577        0.312       72.656       26.714        0.135      337.725        9.893      854.364
09/21/2013  19:12:00     -143.418     -109.823       -3.966       92.588      106.953       46.077     8572.564    11438.980     2123.111        2.739        1.107      180.637       37.751        0.044      337.688        9.830      854.390
09/21/2013  19:13:00     -160.751      -64.385        4.729      149.910      111.361       71.787    22473.143    12401.323     5153.379        3.501        2.001      173.166       81.158        0.220      337.688        9.828      854.408
09/21/2013  19:14:00      -64.143        9.637        3.569       79.989       53.626       33.931     6398.256     2875.705     1151.316        0.732        0.521       64.863       33.374        0.265      337.708        9.864      854.445
09/21/2013  19:15:00      -33.448       -4.327       24.391       55.122       36.657       27.260     3038.392     1343.745      743.087        0.343        0.256       33.727       30.545        0.820      337.778        9.982      854.467
09/21/2013  19:16:00      -90.220       67.315        1.243       83.930       50.609       35.983     7044.263     2561.264     1294.745        1.178        0.545      112.566       29.871        0.070      337.675        9.808      854.490
09/21/2013  19:17:00     -173.928       -0.715      -11.527       60.048       85.465       35.469     3605.758     7304.292     1258.079        2.127        0.608      173.930       25.950        0.022      337.670        9.800      854.503
09/21/2013  19:18:00     -256.653      -34.260      -24.653       90.017       93.766       40.090     8103.124     8792.040     1607.218        4.307        0.925      258.930       32.390        0.016      337.632        9.734      854.519
09/21/2013  19:19:00     -285.544      -12.250      -17.293      110.275       85.240       54.094    12160.589     7265.830     2926.123        5.216        1.118      285.806       62.649        0.048      337.577        9.642      854.503
09/21/2013  19:20:00     -391.428       33.151      -32.898       88.169      125.487       49.737     7773.695    15747.023     2473.768        9.069        1.300      392.829       31.185        0.006      337.559        9.610      854.486
09/21/2013  19:21:00     -150.742       -4.490      -12.522       66.905      112.560       40.926     4476.296    12669.718     1674.902        2.086        0.941      150.809       32.977        0.048      337.613        9.703      854.485
09/21/2013  19:22:00     -129.334      -78.086        0.464       78.605       56.796       34.927     6178.783     3225.829     1219.925        1.672        0.531      151.078       33.121        0.048      337.632        9.736      854.458
09/21/2013  19:23:00     -236.234      -22.307      -11.526      132.939       92.293       52.991    17672.795     8517.930     2808.007        4.271        1.450      237.285       58.382        0.061      337.614        9.703      854.426
09/21/2013  19:24:00     -168.650      -46.157       -5.312      125.924       56.744       45.052    15856.918     3219.923     2029.642        2.585        1.055      174.852       44.906        0.066      337.654        9.772      854.405
09/21/2013  19:25:00     -165.635     -163.474        6.214      119.107       83.737       59.581    14186.574     7011.846     3549.917        3.947        1.237      232.720       65.714        0.080      337.641        9.749      854.368
09/21/2013  19:26:00     -257.104     -206.829       -6.429      154.913      112.667       63.500    23997.967    12693.942     4032.253        7.482        2.036      329.971       68.992        0.044      337.614        9.704      854.329
09/21/2013  19:27:00     -144.195      -94.149       10.923      124.417      140.248       53.570    15479.493    19669.383     2869.712        3.389        1.901      172.210       60.866        0.125      337.641        9.752      854.305
09/21/2013  19:28:00     -183.818     -125.773       13.320      140.048       94.389       55.727    19613.528     8909.337     3105.483        4.070        1.581      222.729       70.815        0.101      337.673        9.803      854.308
09/21/2013  19:29:00     -216.381     -132.723        3.646      132.382      140.042       67.462    17524.966    19611.732     4551.181        5.306        2.084      253.843       58.833        0.054      337.673        9.803      854.311
09/21/2013  19:30:00     -170.886     -113.680        5.476      177.528      137.602       66.405    31516.076    18934.439     4409.571        4.850        2.743      205.244       80.174        0.153      337.662        9.787      854.297
09/21/2013  19:31:00     -309.246      -77.598      -12.570      162.212      128.769       59.681    26312.700    16581.452     3561.808        7.413        2.323      318.833       63.629        0.040      337.619        9.713      854.298
09/21/2013  19:32:00     -168.331       30.696        6.268      171.020       97.889       71.033    29247.811     9582.292     5045.661        3.659        2.194      171.107       88.739        0.269      337.652        9.768      854.346
09/21/2013  19:33:00     -292.131      -32.308       -4.075      112.356       64.845       50.182    12623.778     4204.935     2518.231        5.287        0.967      293.912       57.757        0.039      337.634        9.738      854.397
09/21/2013  19:34:00     -267.870       20.278      -12.502      163.666       81.145       59.549    26786.404     6584.569     3546.124        5.461        1.846      268.636       64.123        0.057      337.630        9.731      854.445
09/21/2013  19:35:00     -402.994      -71.166      -33.628      130.960      105.864       64.003    17150.438    11207.119     4096.421       10.052        1.623      409.229       67.354        0.027      337.597        9.676      854.472
09/21/2013  19:36:00     -296.629     -126.860        0.861      112.887      122.512       56.461    12743.500    15009.069     3187.881        6.751        1.547      322.618       54.603        0.029      337.656        9.775      854.510
09/21/2013  19:37:00     -282.244     -113.235      -13.247       99.446       78.235       41.798     9889.509     6120.646     1747.091        5.520        0.888      304.112       39.091        0.017      337.636        9.741      854.549
09/21/2013  19:38:00     -166.536       -2.467      -11.665      124.931      115.542       59.254    15607.869    13349.869     3510.988        3.017        1.623      166.554       70.285        0.178      337.680        9.817      854.582
09/21/2013  19:39:00     -219.777       11.855      -16.228       88.642      123.711       50.269     7857.377    15304.445     2526.987        3.719        1.284      220.096       39.830        0.033      337.710        9.864      854.594
09/21/2013  19:40:00     -213.265      -60.282        0.104      111.006       70.150       45.232    12322.341     4920.986     2045.947        3.420        0.964      221.621       44.431        0.040      337.680        9.817      854.609
09/21/2013  19:41:00     -153.163      -27.829       -5.624       72.571       68.747       43.133     5266.497     4726.136     1860.441        1.806        0.593      155.671       36.951        0.056      337.732        9.903      854.602
09/21/2013  19:42:00     -199.026       86.118      -25.161      121.781       82.837       48.628    14830.582     6861.966     2364.722        3.585        1.203      216.859       29.826        0.019      337.694        9.839      854.580
09/21/2013  19:43:00     -136.605       -4.115       -8.303       78.568       90.055       43.201     6173.002     8109.878     1866.290        1.744        0.807      136.667       36.401        0.071      337.692        9.835      854.567
09/21/2013  19:44:00     -250.960       93.768      -48.911      133.422       84.909       52.370    17801.437     7209.576     2742.615        5.095        1.388      267.906       41.021        0.023      337.653        9.770      854.540
09/21/2013  19:45:00     -119.194       15.072      -12.446      116.921       75.488       51.656    13670.486     5698.502     2668.306        1.831        1.102      120.143       53.197        0.196      337.728        9.896      854.499
09/21/2013  19:46:00     -107.198       17.823       -0.016      116.560       71.630       68.508    13586.275     5130.840     4693.377        1.761        1.171      108.669       56.783        0.273      337.753        9.938      854.449
09/21/2013  19:47:00     -306.932      -77.529      -20.650      124.984       79.906       60.883    15621.063     6384.980     3706.732        6.317        1.286      316.573       55.665        0.031      337.662        9.784      854.440
09/21/2013  19:48:00     -219.937     -114.419       -8.374      160.128      127.617       55.732    25641.136    16285.985     3106.018        5.327        2.252      247.919       53.770        0.047      337.665        9.791      854.429
09/21/2013  19:49:00     -355.711      -49.776      -19.888      140.002       99.736       68.064    19600.677     9947.188     4632.764        8.179        1.709      359.177       73.057        0.041      337.598        9.676      854.432
09/21/2013  19:50:00     -131.582      -24.976       12.733       90.042       83.905       65.388     8107.504     7040.014     4275.578        1.876        0.971      133.932       46.126        0.119      337.694        9.839      854.411
09/21/2013  19:51:00     -189.817      -45.143      -18.500      130.065       73.255       55.100    16916.936     5366.297     3035.967        3.186        1.266      195.111       64.055        0.108      337.696        9.843      854.405
09/21/2013  19:52:00     -172.571      -20.027       -4.234      116.480       77.471       54.806    13567.518     6001.768     3003.651        2.638        1.129      173.729       56.211        0.105      337.652        9.769      854.413
09/21/2013  19:53:00      -40.354       35.405       12.039       67.162       50.974       47.090     4510.749     2598.385     2217.442        0.617        0.466       53.684       46.205        0.741      337.731        9.903      854.415
09/21/2013  19:54:00     -240.559       45.203      -36.020      183.635      103.286       73.756    33721.930    10667.946     5440.018        5.551        2.491      244.769       85.725        0.123      337.685        9.824      854.421
09/21/2013  19:55:00     -261.755       83.346      -37.984      143.328      132.039       60.182    20542.832    17434.323     3621.909        5.924        2.080      274.704       66.678        0.059      337.667        9.793      854.420
09/21/2013  19:56:00     -139.016       66.056      -14.042       83.201       75.904       59.308     6922.348     5761.468     3517.393        2.004        0.810      153.912       50.898        0.109      337.722        9.888      854.428
09/21/2013  19:57:00      -87.406      -34.039      -11.646      123.921       97.353       63.854    15356.427     9477.546     4077.301        1.892        1.446       93.800       59.871        0.407      337.742        9.919      854.449
09/21/2013  19:58:00     -168.604      -66.501        1.752      130.265      102.757       58.543    16969.077    10558.987     3427.236        3.190        1.548      181.245       56.046        0.096      337.731        9.901      854.475
09/21/2013  19:59:00     -236.184        0.179       -4.915      109.507       86.353       57.500    11991.753     7456.770     3306.293        3.928        1.138      236.184       60.536        0.066      337.683        9.819      854.517
09/21/2013  20:00:00     -277.674       12.806      -33.076      134.778      104.657       47.471    18165.212    10953.094     2253.483        5.486        1.569      277.969       45.277        0.027      337.686        9.824      854.578
09/21/2013  20:01:00     -234.871     -109.510       -9.329      114.164       86.842       52.503    13033.419     7541.467     2756.601        4.528        1.167      259.146       50.225        0.038      337.726        9.891      854.616
09/21/2013  20:02:00     -247.737      -63.149      -27.299       95.696       83.192       51.512     9157.729     6920.962     2653.512        4.242        0.937      255.658       47.406        0.034      337.750        9.932      854.682
09/21/2013  20:03:00     -239.259     -111.035      -12.572      156.747      113.711       67.835    24569.754    12930.133     4601.602        5.591        2.105      263.769       67.851        0.066      337.740        9.916      854.707
09/21/2013  20:04:00     -275.891      -15.602      -25.703      183.342       79.365       60.781    33614.343     6298.798     3694.280        6.031        2.180      276.332       86.315        0.098      337.763        9.954      854.730
09/21/2013  20:05:00     -319.776      -27.936      -22.766      115.033       90.072       64.351    13232.610     8112.920     4141.013        6.452        1.274      320.994       70.270        0.048      337.710        9.864      854.733
09/21/2013  20:06:00     -362.024      -37.944      -20.481      184.215       97.358       67.957    33935.006     9478.584     4618.108        9.047        2.402      364.007       91.654        0.063      337.724        9.891      854.767
09/21/2013  20:07:00     -183.665       -5.822        1.736      101.801       75.407       49.417    10363.489     5686.273     2442.088        2.613        0.925      183.757       30.670        0.028      337.766        9.959      854.763
09/21/2013  20:08:00     -189.682      -64.363      -11.962      168.816      115.759       88.231    28498.771    13400.112     7784.669        4.496        2.484      200.304       97.896        0.239      337.759        9.947      854.734
09/21/2013  20:09:00     -195.619      -75.429      -22.560      100.052       77.758       42.155    10010.375     6046.316     1777.025        3.115        0.892      209.658       26.755        0.016      337.760        9.950      854.737
09/21/2013  20:10:00     -353.768      -48.143      -35.765      138.986      129.386       56.675    19317.182    16740.776     3212.009        8.400        1.963      357.029       62.791        0.031      337.710        9.865      854.733
09/21/2013  20:11:00     -211.193        7.850       -2.223      126.951       78.623       49.433    16116.572     6181.536     2443.630        3.470        1.237      211.338       59.465        0.079      337.736        9.909      854.725
09/21/2013  20:12:00     -158.508       32.619      -26.662       40.218       38.776       22.717     1617.514     1503.564      516.071        1.527        0.182      161.829       17.739        0.012      337.739        9.918      854.723
09/21/2013  20:13:00     -221.864       30.477      -15.787       90.866       66.073       49.161     8256.682     4365.616     2416.817        3.272        0.752      223.947       49.746        0.049      337.695        9.842      854.688
09/21/2013  20:14:00      -95.618       -7.771        1.083       84.025       91.380       48.546     7060.284     8350.232     2356.699        1.348        0.888       95.933       40.214        0.176      337.751        9.936      854.655
09/21/2013  20:15:00      -98.739       98.637      -15.700       48.192       77.850       31.288     2322.454     6060.684      978.970        1.454        0.468      139.566       36.375        0.068      337.766        9.962      854.626
09/21/2013  20:16:00      -43.988       98.403       -7.755       38.901       48.497       22.622     1513.270     2351.993      511.771        0.803        0.219      107.787       15.567        0.021      337.731        9.904      854.593
09/21/2013  20:17:00       34.584      139.998       -3.995       50.625       54.195       40.807     2562.851     2937.118     1665.245        1.399        0.358      144.206       34.658        0.058      337.653        9.771      854.539
09/21/2013  20:18:00       40.098      194.501      -23.452       53.067      102.905       41.742     2816.064    10589.427     1742.355        2.757        0.757      198.592       49.158        0.061      337.555        9.606      854.478
09/21/2013  20:19:00       49.965      144.402      -13.630       63.638       95.230       48.222     4049.815     9068.666     2325.353        1.949        0.772      152.802       51.284        0.113      337.538        9.577      854.392
09/21/2013  20:20:00       93.205      196.274      -17.739       77.321      124.266       70.349     5978.575    15441.957     4949.015        3.694        1.318      217.280       69.205        0.101      337.479        9.478      854.281
09/21/2013  20:21:00       67.260      149.808       -3.862       77.089       98.595       62.690     5942.704     9720.967     3930.010        2.328        0.980      164.214       61.148        0.139      337.495        9.504      854.195
09/21/2013  20:22:00       26.260      211.531      -11.568       63.051      117.635       64.619     3975.406    13838.017     4175.614        3.377        1.099      213.155       73.937        0.120      337.484        9.486      854.179
09/21/2013  20:23:00       51.375      132.385       -4.665       62.273       88.529       52.871     3877.986     7837.317     2795.298        1.735        0.726      142.005       49.199        0.120      337.484        9.488      854.131
09/21/2013  20:24:00       79.942       94.813        4.812       62.394       60.550       44.432     3893.019     3666.258     1974.244        1.247        0.477      124.017       41.166        0.110      337.516        9.541      854.072
09/21/2013  20:25:00       58.645      127.631       -5.805       55.406       64.486       49.846     3069.863     4158.444     2484.585        1.474        0.486      140.459       45.664        0.106      337.500        9.514      854.087
09/21/2013  20:26:00       54.339       96.065        3.285       77.229       60.696       52.901     5964.243     3683.950     2798.547        1.232        0.622      110.368       40.807        0.137      337.470        9.465      854.082
09/21/2013  20:27:00        2.127      120.648        0.533       45.377       78.046       47.234     2059.030     6091.179     2231.014        1.247        0.519      120.667       47.727        0.156      337.526        9.560      854.105
09/21/2013  20:28:00       52.375       86.489        4.593       70.061       59.033       48.529     4908.522     3484.900     2355.046        1.049        0.537      101.111       39.982        0.156      337.497        9.509      854.099
09/21/2013  20:29:00      115.139      114.130        2.054       80.376       95.684       52.453     6460.363     9155.399     2751.268        2.232        0.918      162.120       53.071        0.107      337.474        9.470      854.125
09/21/2013  20:30:00      106.670       81.333        4.559       67.990       64.822       47.055     4622.696     4201.942     2214.146        1.452        0.552      134.140       38.155        0.081      337.489        9.496      854.163
09/21/2013  20:31:00       93.423       80.224       14.226       55.392       64.387       43.557     3068.229     4145.738     1897.202        1.224        0.456      123.141       37.541        0.093      337.473        9.472      854.249
09/21/2013  20:32:00       68.794       59.481       35.629       78.348       48.270       32.745     6138.436     2329.992     1072.236        0.954        0.477       90.943       33.668        0.137      337.539        9.581      854.321
09/21/2013  20:33:00       33.690       23.957       19.710       39.425       27.086       27.540     1554.357      733.658      758.441        0.257        0.152       41.340       24.760        0.359      337.554        9.606      854.397
09/21/2013  20:34:00       -1.421      -42.073        3.180       15.416       27.076       25.526      237.660      733.090      651.556        0.170        0.081       42.097       17.496        0.173      337.620        9.719      854.500
09/21/2013  20:35:00      -55.846      -33.791       -7.779       50.901       29.437       32.190     2590.917      866.542     1036.186        0.441        0.225       65.273       16.078        0.061      337.667        9.796      854.604
09/21/2013  20:36:00      -32.207      -56.829       -1.090       56.823       53.059       35.870     3228.878     2815.232     1286.687        0.580        0.367       65.320       33.638        0.265      337.723        9.889      854.701
09/21/2013  20:37:00      -64.733      -66.991       15.058       63.080       51.186       37.163     3979.032     2619.962     1381.070        0.844        0.399       93.157       37.444        0.162      337.668        9.797      854.819
09/21/2013  20:38:00      -43.959      -91.048       -0.433       55.469       55.775       34.146     3076.810     3110.857     1165.926        0.879        0.368      101.105       32.546        0.104      337.650        9.766      854.922
09/21/2013  20:39:00      -92.521     -104.200       -3.140       62.283       55.443       33.336     3879.145     3073.946     1111.288        1.374        0.403      139.348       26.242        0.035      337.611        9.703      855.017
09/21/2013  20:40:00      -83.577      -95.831        4.491       72.875       50.971       30.958     5310.819     2598.078      958.379        1.253        0.443      127.156       32.027        0.063      337.675        9.808      855.084
09/21/2013  20:41:00      -71.162      -99.831       11.647       49.085       60.487       26.649     2409.376     3658.698      710.174        1.097        0.339      122.598       32.034        0.068      337.652        9.770      855.115
09/21/2013  20:42:00      -49.867      -60.668       19.566       56.922       68.540       37.066     3240.090     4697.682     1373.886        0.793        0.466       78.532       32.535        0.172      337.727        9.897      855.132
09/21/2013  20:43:00      -40.160      -53.333       15.684       35.245       78.436       26.602     1242.204     6152.272      707.682        0.640        0.405       66.762       25.209        0.143      337.678        9.815      855.137
09/21/2013  20:44:00      -42.088       -3.457       14.592       34.541       29.009       31.062     1193.063      841.533      964.858        0.250        0.150       42.230       19.725        0.218      337.711        9.869      855.136
09/21/2013  20:45:00       18.147      -67.601        9.699       44.713       36.957       29.799     1999.219     1365.812      887.988        0.462        0.213       69.994       22.667        0.105      337.773        9.973      855.157
09/21/2013  20:46:00       22.978      -85.783       -2.742       72.022       53.171       24.101     5187.103     2827.145      580.857        0.824        0.430       88.807       19.892        0.050      337.858       10.114      855.180
09/21/2013  20:47:00     -107.816      -61.518        0.053       92.911       62.895       28.834     8632.401     3955.814      831.405        1.441        0.671      124.132       24.808        0.040      337.868       10.131      855.211
09/21/2013  20:48:00      -58.814      -39.461       15.803       66.032       81.251       38.037     4360.276     6601.674     1446.797        0.883        0.620       70.825       44.302        0.391      337.808       10.033      855.226
09/21/2013  20:49:00     -139.318      -49.850      -15.779      119.190       53.180       43.214    14206.179     2828.074     1867.451        2.052        0.945      147.968       33.978        0.053      337.755        9.942      855.237
09/21/2013  20:50:00     -137.922     -159.858        1.267       70.122       63.391       45.609     4917.149     4018.392     2080.217        2.780        0.551      211.133       38.591        0.033      337.753        9.938      855.260
09/21/2013  20:51:00     -230.348      -83.362       -0.162       97.840       68.672       38.778     9572.723     4715.902     1503.761        3.790        0.790      244.968       28.492        0.014      337.742        9.920      855.270
09/21/2013  20:52:00      -77.882       -4.084       24.189      104.362       59.511       48.207    10891.414     3541.610     2323.889        1.171        0.838       77.989       49.911        0.410      337.832       10.072      855.267
09/21/2013  20:53:00     -264.648     -121.059       -6.925      122.704      101.509       47.318    15056.150    10304.077     2239.019        5.617        1.380      291.022       48.868        0.028      337.796       10.009      855.272
09/21/2013  20:54:00     -199.623     -100.874        6.740       97.264       91.474       59.100     9460.327     8367.500     3492.868        3.569        1.066      223.662       53.963        0.058      337.761        9.950      855.254
09/21/2013  20:55:00     -161.766     -135.647       -7.021      100.423      105.807       46.275    10084.757    11195.162     2141.339        3.401        1.171      211.112       37.252        0.031      337.774        9.973      855.234
09/21/2013  20:56:00     -219.429      -95.873      -18.769      138.787       97.744       57.614    19261.873     9553.833     3319.406        4.491        1.607      239.460       60.015        0.063      337.760        9.948      855.215
09/21/2013  20:57:00     -169.094     -128.175       -5.072      156.432      102.855       62.627    24471.041    10579.113     3922.162        4.200        1.949      212.183       78.283        0.136      337.761        9.950      855.202
09/21/2013  20:58:00     -244.656     -108.043       -8.848      182.204       84.461       65.384    33198.159     7133.620     4275.014        5.810        2.230      267.451       70.739        0.070      337.740        9.916      855.201
09/21/2013  20:59:00     -262.422     -145.148      -14.823      131.969      116.446       67.783    17415.916    13559.596     4594.521        6.285        1.779      299.889       53.907        0.032      337.723        9.887      855.192
09/21/2013  21:00:00     -256.202      -87.614       -5.520      129.637       98.370       65.761    16805.708     9676.574     4324.553        5.207        1.540      270.769       62.039        0.052      337.679        9.813      855.202
09/21/2013  21:01:00     -280.601       -2.556      -25.207       87.732       88.293       43.752     7696.926     7795.704     1914.275        4.839        0.870      280.613       37.352        0.018      337.663        9.787      855.204
09/21/2013  21:02:00     -309.759      -11.514      -18.189      155.073      100.508       64.021    24047.576    10101.914     4098.639        6.732        1.912      309.973       77.962        0.063      337.632        9.735      855.194
09/21/2013  21:03:00     -379.302     -127.155      -26.855      130.853      100.711       63.780    17122.579    10142.641     4067.945        9.604        1.567      400.048       66.913        0.028      337.586        9.655      855.181
09/21/2013  21:04:00     -198.357     -118.548      -15.281       96.624       73.881       46.026     9336.259     5458.399     2118.348        3.527        0.846      231.083       49.377        0.046      337.642        9.751      855.191
09/21/2013  21:05:00     -133.919      -37.059       -6.475       86.188       85.029       42.369     7428.454     7229.850     1795.092        1.790        0.823      138.952       42.155        0.092      337.649        9.765      855.195
09/21/2013  21:06:00     -232.517      -81.836        2.261      106.525      113.511       60.322    11347.520    12884.677     3638.690        4.431        1.394      246.498       55.792        0.051      337.600        9.679      855.196
09/21/2013  21:07:00     -260.078       -8.799        2.082      109.506       64.624       51.356    11991.489     4176.225     2637.424        4.326        0.940      260.227       40.360        0.024      337.604        9.686      855.199
09/21/2013  21:08:00     -161.542     -121.575       13.153      129.062       94.053       76.335    16656.898     8845.969     5827.108        3.618        1.566      202.179       66.450        0.108      337.615        9.706      855.190
09/21/2013  21:09:00     -187.999      -71.796        6.615      137.639      102.768       57.964    18944.413    10561.198     3359.807        3.670        1.643      201.242       72.185        0.129      337.611        9.699      855.187
09/21/2013  21:10:00     -178.885      -70.683       -1.918      125.341       90.953       58.386    15710.252     8272.529     3408.928        3.219        1.370      192.343       60.700        0.100      337.607        9.693      855.151
09/21/2013  21:11:00     -331.669     -128.434      -11.210      168.394      123.373       55.061    28356.629    15220.836     3031.757        8.661        2.330      355.668       69.312        0.038      337.572        9.634      855.156
09/21/2013  21:12:00     -350.559     -104.390      -26.400      129.724      112.647       62.002    16828.377    12689.238     3844.245        8.392        1.668      365.771       53.292        0.021      337.580        9.644      855.133
09/21/2013  21:13:00     -217.388      -47.579       -7.011      119.912      116.066       55.656    14378.963    13471.375     3097.634        4.025        1.547      222.534       59.221        0.071      337.617        9.709      855.095
09/21/2013  21:14:00     -277.484      -38.294      -17.170      147.949      117.598       63.689    21888.822    13829.311     4056.302        5.926        1.989      280.114       60.500        0.047      337.598        9.677      855.057
09/21/2013  21:15:00     -209.690      -79.668        5.411      119.259      120.252       64.644    14222.630    14460.646     4178.908        4.160        1.643      224.314       65.169        0.084      337.619        9.711      855.043
09/21/2013  21:16:00     -364.797     -101.491      -27.840      202.724      134.681       76.004    41096.892    18139.047     5776.619       10.457        3.251      378.652       91.546        0.058      337.593        9.668      855.027
09/21/2013  21:17:00     -422.025      -75.526      -19.666      132.682      123.971       68.250    17604.580    15368.738     4658.078       11.091        1.882      428.730       70.382        0.027      337.589        9.661      855.027
09/21/2013  21:18:00     -347.366      -27.078      -25.076      151.498      107.652       67.578    22951.570    11588.846     4566.734        8.056        1.955      348.420       66.732        0.037      337.607        9.692      855.025
09/21/2013  21:19:00     -250.441      -21.540      -10.642      116.004      109.564       54.768    13456.821    12004.379     2999.546        4.587        1.423      251.365       59.134        0.055      337.625        9.722      855.032
09/21/2013  21:20:00     -285.740      -65.993        0.769      167.824      102.141       65.919    28164.935    10432.803     4345.345        6.446        2.147      293.262       75.859        0.067      337.616        9.708      855.030
09/21/2013  21:21:00     -348.592      -19.087      -17.444      131.395       98.598       62.886    17264.596     9721.637     3954.635        7.656        1.547      349.114       70.374        0.041      337.591        9.665      855.017
09/21/2013  21:22:00     -246.930      -16.912        7.280      149.474       85.692       57.992    22342.439     7343.046     3363.051        4.717        1.652      247.509       67.609        0.075      337.628        9.728      855.016
09/21/2013  21:23:00     -246.433      -65.768        0.464      177.459      115.795       57.414    31491.795    13408.389     3296.423        5.662        2.410      255.058       62.401        0.060      337.620        9.716      855.005
09/21/2013  21:24:00     -256.200      -68.074      -18.514      106.552       96.443       47.073    11353.258     9301.340     2215.891        4.674        1.144      265.089       48.004        0.033      337.609        9.694      854.981
09/21/2013  21:25:00     -341.101        5.797      -18.603      106.370       87.230       57.559    11314.537     7609.077     3312.987        6.948        1.112      341.150       58.558        0.029      337.616        9.709      854.963
09/21/2013  21:26:00     -276.960      -18.024      -14.937      104.001       86.013       54.628    10816.143     7398.288     2984.187        4.922        1.060      277.546       50.001        0.032      337.613        9.703      854.952
09/21/2013  21:27:00     -224.226       -7.181        3.510      108.324       81.309       56.345    11734.120     6611.181     3174.769        3.593        1.076      224.341       46.587        0.043      337.632        9.735      854.950
09/21/2013  21:28:00     -297.053      -25.970      -14.149      105.017      103.577       56.829    11028.669    10728.243     3229.570        5.705        1.249      298.186       49.901        0.028      337.609        9.695      854.941
09/21/2013  21:29:00     -200.446      -87.030        0.020      101.882       73.418       55.542    10380.025     5390.165     3084.892        3.330        0.943      218.524       54.105        0.061      337.627        9.727      854.933
09/21/2013  21:30:00     -211.495      -60.109       -8.183       82.849       88.037       43.167     6863.909     7750.600     1863.407        3.244        0.824      219.871       30.637        0.019      337.627        9.726      854.914
09/21/2013  21:31:00     -303.307      -28.594      -25.200       82.960       93.797       45.842     6882.443     8797.835     2101.471        5.561        0.889      304.652       43.815        0.021      337.625        9.721      854.900
09/21/2013  21:32:00     -190.571      -52.686       -5.301       74.528       87.914       49.633     5554.393     7728.803     2463.413        2.743        0.787      197.719       45.645        0.053      337.642        9.753      854.896
09/21/2013  21:33:00     -248.820       22.363      -14.143      111.284      120.227       54.412    12384.229    14454.471     2960.641        4.620        1.490      249.823       53.016        0.045      337.636        9.740      854.888
09/21/2013  21:34:00     -156.146      -69.946      -10.052      109.320       84.375       55.010    11950.960     7119.200     3026.091        2.573        1.105      171.096       47.029        0.076      337.655        9.774      854.892
09/21/2013  21:35:00     -312.168     -123.904      -13.389      128.542      101.824       57.540    16523.093    10368.208     3310.885        7.159        1.510      335.858       54.445        0.026      337.595        9.670      854.883
09/21/2013  21:36:00     -273.321      -64.580      -15.225      161.103      102.863       63.652    25954.124    10580.739     4051.547        5.984        2.029      280.847       59.556        0.045      337.583        9.650      854.865
09/21/2013  21:37:00     -153.639      -86.319        4.972      116.677      117.526       63.237    13613.539    13812.374     3998.910        3.125        1.571      176.227       71.467        0.164      337.606        9.693      854.837
09/21/2013  21:38:00     -284.535        8.116      -21.360       95.868       82.739       65.443     9190.664     6845.723     4282.769        5.090        1.016      284.650       57.014        0.040      337.564        9.618      854.827
09/21/2013  21:39:00     -296.832      -78.633        1.500      139.820      116.969       58.266    19549.673    13681.817     3394.877        6.545        1.831      307.071       67.764        0.049      337.582        9.649      854.810
09/21/2013  21:40:00     -404.426      -34.730      -25.569      186.108      131.248       67.138    34636.269    17226.152     4507.564       11.088        2.818      405.915       68.194        0.028      337.565        9.621      854.765
09/21/2013  21:41:00     -293.193      -81.329      -13.340      154.236      117.920       79.675    23788.676    13905.201     6348.130        6.839        2.202      304.264       75.329        0.061      337.575        9.637      854.710
09/21/2013  21:42:00     -502.933        5.608      -42.939      220.969      181.177       87.375    48827.091    32825.144     7634.412       17.203        4.464      502.964       97.577        0.038      337.539        9.578      854.674
09/21/2013  21:43:00     -390.405     -114.440      -12.612      185.825      128.041       78.547    34531.088    16394.532     6169.609       11.137        2.855      406.832       89.389        0.048      337.558        9.610      854.628
09/21/2013  21:44:00     -472.207      -99.644      -14.721      186.287      139.176       79.386    34702.666    19369.835     6302.170       14.674        3.019      482.606       71.644        0.022      337.536        9.570      854.591
09/21/2013  21:45:00     -496.233      -40.435      -31.385      187.104      121.831       72.500    35007.953    14842.716     5256.236       15.198        2.755      497.878       69.851        0.020      337.537        9.574      854.569
09/21/2013  21:46:00     -576.525     -149.088      -16.364      184.673      142.622       82.522    34104.002    20341.127     6809.931       20.805        3.063      595.490       81.800        0.019      337.540        9.579      854.540
09/21/2013  21:47:00     -383.393      -54.415       -7.987      177.333      130.203       90.532    31446.940    16952.922     8196.061       10.329        2.830      387.235       82.729        0.046      337.559        9.611      854.505
09/21/2013  21:48:00     -407.108      -14.732      -22.457      148.083      137.575       77.653    21928.520    18926.847     6029.912       10.666        2.344      407.374       70.708        0.030      337.539        9.577      854.510
09/21/2013  21:49:00     -337.050      -14.459      -16.645      164.479      106.354       60.513    27053.357    11311.121     3661.769        7.805        2.101      337.360       74.892        0.049      337.536        9.572      854.526
09/21/2013  21:50:00     -458.078      -36.506      -30.703      165.046      111.451       68.880    27240.272    12421.271     4744.486       12.825        2.220      459.530       71.221        0.024      337.517        9.540      854.521
09/21/2013  21:51:00     -287.959      -50.299      -20.176      127.243      123.671       59.826    16190.877    15294.537     3579.132        6.045        1.753      292.319       61.408        0.044      337.537        9.573      854.558
09/21/2013  21:52:00     -324.998      -59.859      -12.508      108.936      122.363       62.419    11866.988    14972.698     3896.156        7.004        1.537      330.464       53.631        0.026      337.538        9.574      854.608
09/21/2013  21:53:00     -267.377     -121.757       -6.037      157.326       96.620       62.832    24751.389     9335.333     3947.902        6.219        1.902      293.795       58.033        0.039      337.561        9.614      854.645
09/21/2013  21:54:00     -503.080       53.436      -49.508      145.279      116.541       52.932    21105.996    13581.776     2801.802       14.794        1.874      505.910       52.394        0.011      337.525        9.554      854.701
09/21/2013  21:55:00     -318.602      -21.600      -31.763      107.102       99.384       61.244    11470.939     9877.167     3750.865        6.404        1.255      319.333       49.081        0.024      337.553        9.599      854.714
09/21/2013  21:56:00     -299.911       -3.016      -22.557      149.628      124.580       71.022    22388.599    15520.259     5044.054        6.670        2.148      299.926       66.233        0.049      337.550        9.595      854.746
09/21/2013  21:57:00     -141.054      -17.069      -12.687       99.255      118.081       48.340     9851.628    13943.163     2336.792        2.323        1.307      142.083       42.166        0.088      337.592        9.669      854.804
09/21/2013  21:58:00     -134.485        5.497       -1.895       96.931       74.814       56.965     9395.590     5597.086     3244.955        1.818        0.912      134.597       35.870        0.071      337.592        9.669      854.839
09/21/2013  21:59:00     -270.665      -99.956      -22.232      120.365       93.172       56.334    14487.764     8681.062     3173.520        5.504        1.317      288.532       57.810        0.040      337.563        9.616      854.908
09/21/2013  22:00:00     -159.481       15.403      -15.875      145.704       62.916       41.029    21229.554     3958.469     1683.361        2.639        1.344      160.223       60.277        0.142      337.569        9.628      854.920
09/21/2013  22:01:00     -117.828       49.455        0.312       69.680       91.216       49.863     4855.344     8320.359     2486.336        1.599        0.783      127.786       40.450        0.100      337.593        9.671      854.933
09/21/2013  22:02:00     -197.777      -78.776        0.471       94.984       85.189       51.748     9021.925     7257.225     2677.873        3.214        0.948      212.888       50.756        0.057      337.618        9.712      854.990
09/21/2013  22:03:00      -92.268     -125.577       18.019      122.172      109.315       62.242    14925.925    11949.748     3874.061        2.767        1.537      155.830       79.834        0.262      337.620        9.716      855.025
09/21/2013  22:04:00     -443.577      -73.549      -32.800      201.480      135.809       71.709    40594.041    18444.151     5142.173       13.370        3.209      449.633       84.334        0.035      337.596        9.673      855.055
09/21/2013  22:05:00     -316.842      -88.776      -17.954      133.400      104.863       66.849    17795.485    10996.145     4468.825        7.092        1.663      329.044       70.417        0.046      337.616        9.706      855.071
09/21/2013  22:06:00     -362.593      -36.049      -17.702      120.135      105.075       59.012    14432.534    11040.768     3482.413        8.102        1.448      364.381       57.032        0.024      337.580        9.644      855.093
09/21/2013  22:07:00     -103.165      -79.397        7.079      105.204       79.691       42.328    11067.978     6350.586     1791.660        1.810        0.961      130.181       52.754        0.164      337.629        9.730      855.091
09/21/2013  22:08:00     -183.702      -33.585       -1.358      153.536      114.093       55.025    23573.157    13017.108     3027.739        3.724        1.981      186.747       71.249        0.146      337.604        9.689      855.071
09/21/2013  22:09:00     -397.898      -46.350       -9.341      158.622      158.296       79.740    25160.839    25057.660     6358.396       10.856        2.829      400.588       70.974        0.031      337.565        9.619      855.066
09/21/2013  22:10:00     -244.071      -18.262        4.060      165.782      134.128       71.756    27483.569    17990.413     5148.862        5.526        2.531      244.753       73.812        0.091      337.574        9.636      855.069
09/21/2013  22:11:00     -344.273      -92.127      -15.545      144.167      104.883       57.401    20784.157    11000.485     3294.923        8.116        1.754      356.387       69.340        0.038      337.586        9.655      855.075
09/21/2013  22:12:00     -255.107      -74.033      -18.637      166.769       62.981       57.063    27811.950     3966.629     3256.193        5.296        1.752      265.632       61.765        0.054      337.573        9.634      855.070
09/21/2013  22:13:00     -148.029      -48.730       -0.219       90.167       90.161       43.551     8130.079     8129.070     1896.697        2.122        0.908      155.843       36.520        0.055      337.590        9.665      855.053
09/21/2013  22:14:00     -253.920     -113.206       -4.339      112.515       87.029       48.084    12659.609     7574.004     2312.092        4.992        1.127      278.013       50.166        0.033      337.593        9.669      855.063
09/21/2013  22:15:00     -299.905      -94.550      -30.576      106.309       91.342       41.653    11301.683     8343.306     1734.997        6.059        1.069      314.456       32.045        0.010      337.581        9.649      855.065
09/21/2013  22:16:00     -352.808      -67.435      -17.857      118.781      118.767       64.620    14108.983    14105.500     4175.710        8.086        1.620      359.195       65.038        0.033      337.556        9.605      855.066
09/21/2013  22:17:00     -357.352      -68.469      -24.823      110.989       77.734       59.721    12318.643     6042.550     3566.607        7.746        1.096      363.852       50.207        0.019      337.538        9.577      855.073
09/21/2013  22:18:00     -184.901      -44.548        6.390       96.040       94.073       43.689     9223.586     8849.710     1908.706        2.809        0.999      190.192       50.452        0.070      337.579        9.645      855.092
09/21/2013  22:19:00     -304.480      -79.121        0.737      144.257       98.201       57.590    20810.169     9643.439     3316.654        6.636        1.689      314.592       59.629        0.036      337.555        9.605      855.097
09/21/2013  22:20:00     -304.657      -34.614       -7.712      150.374      107.805       59.143    22612.453    11621.871     3497.871        6.590        1.887      306.617       64.260        0.044      337.550        9.596      855.130
09/21/2013  22:21:00     -237.219      -60.394       -9.123      138.338      100.671       60.682    19137.400    10134.721     3682.262        4.647        1.648      244.786       72.713        0.088      337.571        9.630      855.155
09/21/2013  22:22:00     -438.127      -47.122      -31.650      134.463      127.690       71.404    18080.324    16304.853     5098.482       11.732        1.974      440.654       64.505        0.021      337.531        9.563      855.173
09/21/2013  22:23:00     -430.825      -81.512      -22.890      131.308      179.275       69.768    17241.908    32139.418     4867.546       12.350        2.712      438.468       61.897        0.020      337.528        9.560      855.141
09/21/2013  22:24:00     -260.605      -19.802       -8.565      126.421       76.893       58.800    15982.257     5912.579     3457.433        4.686        1.268      261.357       54.963        0.044      337.551        9.598      855.153
09/21/2013  22:25:00      -67.294      -45.614        3.433       98.175       63.866       55.525     9638.257     4078.921     3082.992        1.171        0.840       81.297       44.672        0.302      337.628        9.731      855.129
09/21/2013  22:26:00     -184.890     -101.323       11.850      169.686      105.106       69.378    28793.424    11047.217     4813.344        4.461        2.233      210.834       73.612        0.122      337.579        9.646      855.079
09/21/2013  22:27:00     -328.292     -116.004       -8.966      145.703      127.405       68.476    21229.348    16231.954     4689.009        8.172        2.108      348.184       62.578        0.032      337.556        9.606      855.088
09/21/2013  22:28:00     -177.652     -146.392        5.490      136.671       92.012       60.439    18678.970     8466.232     3652.892        4.190        1.540      230.198       58.177        0.064      337.605        9.688      855.059
09/21/2013  22:29:00     -226.175      -48.282       -7.828      179.838      144.765       81.647    32341.763    20956.989     6666.305        5.674        2.998      231.271       92.239        0.159      337.576        9.639      855.058
09/21/2013  22:30:00     -169.955      -80.717       -0.376      109.014      105.564       57.867    11884.054    11143.843     3348.555        3.088        1.319      188.149       52.000        0.076      337.566        9.624      855.049
09/21/2013  22:31:00     -384.107      -82.625      -17.830      147.834      102.395       67.885    21854.759    10484.669     4608.319        9.581        1.847      392.894       72.932        0.034      337.544        9.586      855.047
09/21/2013  22:32:00     -366.457      -94.204      -11.050      170.179      159.506       73.198    28960.818    25442.053     5358.013       10.151        2.988      378.372       84.696        0.050      337.538        9.575      855.072
09/21/2013  22:33:00     -334.009      -23.408      -21.960      130.558      106.773       62.787    17045.457    11400.443     3942.161        7.248        1.619      334.828       66.866        0.040      337.537        9.574      855.077
09/21/2013  22:34:00     -343.736      -24.683      -27.118      140.377      158.962       56.807    19705.635    25268.832     3227.005        8.384        2.410      344.621       40.615        0.014      337.557        9.607      855.106
09/21/2013  22:35:00     -212.869      -75.696      -11.398      142.188      114.833       64.108    20217.486    13186.628     4109.809        4.434        1.876      225.927       75.967        0.113      337.570        9.631      855.116
09/21/2013  22:36:00     -210.389      -75.650       -6.128      152.253       87.191       57.528    23181.004     7602.243     3309.415        4.205        1.705      223.577       76.827        0.118      337.570        9.631      855.113
09/21/2013  22:37:00     -207.874      -39.919       -0.199      110.830       91.853       59.210    12283.201     8436.919     3505.767        3.451        1.211      211.672       64.467        0.093      337.564        9.620      855.090
09/21/2013  22:38:00     -271.057       35.113      -15.216      139.254       85.394       67.380    19391.641     7292.183     4540.107        5.307        1.561      273.322       69.940        0.065      337.521        9.546      855.088
09/21/2013  22:39:00     -281.474      -28.076        2.408      159.912      112.581       73.970    25571.722    12674.505     5471.593        6.186        2.186      282.871       75.763        0.072      337.545        9.587      855.069
09/21/2013  22:40:00     -435.526      -90.597      -25.682      186.498      144.824       75.916    34781.334    20973.923     5763.299       13.002        3.076      444.849       85.883        0.037      337.543        9.583      855.077
09/21/2013  22:41:00     -281.152     -107.609        4.643      165.469      164.978       79.435    27380.041    27217.641     6309.886        7.577        3.045      301.042       92.167        0.094      337.536        9.573      855.067
09/21/2013  22:42:00     -257.236      -87.048      -13.888      143.367      144.310       66.082    20554.042    20825.282     4366.861        5.983        2.287      271.565       69.626        0.066      337.553        9.601      855.094
09/21/2013  22:43:00     -303.024      -48.096      -13.651      162.619      138.117       71.830    26444.868    19076.282     5159.487        7.249        2.534      306.817       84.141        0.075      337.543        9.584      855.117
09/21/2013  22:44:00     -194.217     -119.068       -2.466      148.588      133.219       62.080    22078.391    17747.209     3853.895        4.778        2.184      227.810       75.103        0.109      337.574        9.636      855.103
09/21/2013  22:45:00     -288.502     -113.312      -18.001       99.555       93.708       57.542     9911.230     8781.098     3311.044        5.920        1.100      309.956       52.487        0.029      337.547        9.590      855.103
09/21/2013  22:46:00     -413.171      -95.501      -16.308      166.809      110.907       73.742    27825.379    12300.465     5437.840       11.282        2.278      424.065       68.579        0.026      337.515        9.538      855.094
09/21/2013  22:47:00     -191.655      -55.017        0.736      138.418      104.120       58.114    19159.540    10841.026     3377.227        3.656        1.669      199.396       66.077        0.110      337.565        9.623      855.102
09/21/2013  22:48:00     -317.739     -150.549       -7.872      147.800      140.269       73.584    21844.781    19675.505     5414.577        8.530        2.347      351.601       70.999        0.041      337.528        9.559      855.099
09/21/2013  22:49:00     -258.823     -108.529        0.316      158.205      124.758       75.262    25028.855    15564.610     5664.427        6.250        2.313      280.657       81.552        0.084      337.559        9.611      855.112
09/21/2013  22:50:00     -212.163      -10.567       -3.268      113.758       87.114       60.200    12940.939     7588.911     3624.010        3.464        1.208      212.426       54.765        0.066      337.570        9.631      855.123
09/21/2013  22:51:00     -302.936     -107.721      -15.815      185.908      138.229       69.517    34561.634    19107.321     4832.546        8.105        2.925      321.518       81.286        0.064      337.538        9.577      855.113
09/21/2013  22:52:00     -268.492     -130.587        7.295      188.190      131.333       76.805    35415.346    17248.243     5898.945        7.387        2.928      298.565       91.735        0.094      337.539        9.578      855.090
09/21/2013  22:53:00     -207.591      -56.694       -0.972      128.726      101.916       63.033    16570.297    10386.911     3973.107        3.861        1.547      215.194       62.084        0.083      337.559        9.610      855.108
09/21/2013  22:54:00     -245.660     -123.757      -19.472      112.798       90.495       53.212    12723.462     8189.349     2831.474        4.989        1.187      275.072       48.307        0.031      337.528        9.560      855.113
09/21/2013  22:55:00     -198.773     -129.368       -0.073      119.794       74.048       54.914    14350.576     5483.070     3015.533        3.954        1.142      237.164       62.408        0.069      337.554        9.602      855.135
09/21/2013  22:56:00     -398.376     -206.674      -14.995      238.749      118.722       72.009    57000.881    14094.802     5185.290       13.895        3.814      448.795       97.837        0.048      337.509        9.526      855.154
09/21/2013  22:57:00     -248.852     -129.724        3.939      197.689      149.334       86.328    39080.861    22300.651     7452.457        7.379        3.442      280.635      110.347        0.155      337.512        9.533      855.179
09/21/2013  22:58:00     -240.871     -151.857       -4.727      132.138      116.728       68.574    17460.343    13625.364     4702.390        5.844        1.789      284.745       78.646        0.076      337.493        9.501      855.183
09/21/2013  22:59:00     -256.624     -106.763       -6.585      103.380       80.357       48.294    10687.494     6457.218     2332.352        4.838        0.974      277.946       55.548        0.040      337.527        9.558      855.209
09/21/2013  23:00:00     -220.539      -52.611        0.912      141.903      150.273       60.421    20136.407    22582.043     3650.709        4.888        2.318      226.728       58.974        0.068      337.486        9.489      855.203
09/21/2013  23:01:00     -215.339     -107.927      -14.857      102.046       80.498       47.994    10413.441     6479.866     2303.424        3.871        0.960      240.872       50.095        0.043      337.508        9.527      855.211
09/21/2013  23:02:00     -114.393      -89.907        8.549      129.031       93.422       63.133    16648.920     8727.648     3985.736        2.530        1.468      145.496       65.374        0.202      337.550        9.599      855.217
09/21/2013  23:03:00     -311.381     -216.030      -13.297      206.019      123.709       83.154    42443.763    15303.914     6914.666       10.422        3.233      378.981       75.310        0.039      337.467        9.457      855.215
09/21/2013  23:04:00     -211.960     -107.932       -3.966      131.299      145.941       74.601    17239.512    21298.725     5565.239        5.034        2.205      237.858       73.116        0.094      337.497        9.507      855.211
09/21/2013  23:05:00     -173.612      -64.993        0.459      111.999       83.468       52.800    12543.838     6966.954     2787.880        2.833        1.115      185.378       49.319        0.071      337.525        9.555      855.221
09/21/2013  23:06:00     -226.100       11.908       -2.995      140.910       76.767       48.845    19855.682     5893.204     2385.819        3.970        1.407      226.413       57.412        0.064      337.528        9.560      855.233
09/21/2013  23:07:00     -264.816      -24.227      -16.025      131.516       98.333       55.429    17296.540     9669.303     3072.360        5.050        1.502      265.922       48.642        0.033      337.494        9.502      855.252
09/21/2013  23:08:00      -46.254      -35.234       16.485       87.014       58.463       39.916     7571.508     3417.889     1593.308        0.812        0.629       58.145       38.614        0.441      337.575        9.643      855.265
09/21/2013  23:09:00     -316.339       10.435       -3.746      140.123      112.647       65.463    19634.349    12689.399     4285.368        6.839        1.830      316.511       63.884        0.041      337.459        9.444      855.285
09/21/2013  23:10:00     -188.369        8.217       -8.406      125.892       65.102       59.779    15848.750     4238.259     3573.524        2.964        1.183      188.548       53.563        0.081      337.483        9.486      855.307
09/21/2013  23:11:00     -205.235       18.527      -12.084      130.576      145.285       55.098    17050.080    21107.797     3035.768        4.189        2.060      206.069       52.335        0.064      337.456        9.439      855.300
09/21/2013  23:12:00     -356.014     -123.022       -8.077      161.948      108.871       71.508    26227.296    11852.801     5113.412        9.256        2.160      376.670       66.901        0.032      337.451        9.430      855.303
09/21/2013  23:13:00     -375.013      -11.431      -12.783      145.412      126.805       68.469    21144.623    16079.557     4688.021        9.141        2.096      375.187       74.301        0.039      337.446        9.422      855.331
09/21/2013  23:14:00     -104.616      -26.063       12.106      119.963       73.496       45.653    14391.029     5401.603     2084.240        1.682        1.094      107.813       51.969        0.232      337.536        9.574      855.337
09/21/2013  23:15:00     -309.195       31.179       -4.781      164.637      114.595       50.710    27105.331    13132.083     2571.488        6.969        2.140      310.763       59.790        0.037      337.465        9.454      855.364
09/21/2013  23:16:00     -192.968     -108.926       -9.261      123.025       81.597       60.831    15135.189     6658.145     3700.407        3.734        1.275      221.589       66.251        0.089      337.481        9.482      855.375
09/21/2013  23:17:00     -307.558     -121.442       12.482      156.808       88.400       65.052    24588.847     7814.540     4231.746        7.306        1.832      330.666       79.109        0.057      337.469        9.461      855.392
09/21/2013  23:18:00     -253.447     -107.164       -3.740      105.523      104.154       63.516    11135.114    10848.038     4034.327        5.087        1.301      275.172       58.609        0.045      337.474        9.469      855.430
09/21/2013  23:19:00     -223.710      -10.664       -5.361       77.747       72.782       45.698     6044.664     5297.174     2088.309        3.181        0.672      223.964       38.420        0.029      337.466        9.456      855.459
09/21/2013  23:20:00     -271.907      -16.382      -34.202       99.202      107.096       50.157     9841.132    11469.646     2515.752        4.959        1.191      272.400       49.821        0.033      337.455        9.437      855.458
09/21/2013  23:21:00     -140.632      -37.688       15.958      119.062      106.948       58.105    14175.692    11437.899     3376.174        2.522        1.449      145.594       52.018        0.128      337.496        9.508      855.491
09/21/2013  23:22:00     -273.710      -10.741       -1.281       93.671      114.277       66.076     8774.166    13059.160     4366.062        5.061        1.310      273.921       53.809        0.039      337.447        9.423      855.507
09/21/2013  23:23:00     -269.419      -47.328       -8.582      129.291      129.295       57.527    16716.282    16717.218     3309.348        5.581        1.837      273.544       66.036        0.058      337.431        9.397      855.507
09/21/2013  23:24:00     -212.216      -44.736       13.799      164.583       87.352       57.009    27087.502     7630.440     3250.042        4.259        1.898      216.880       70.225        0.105      337.462        9.450      855.504
09/21/2013  23:25:00     -443.322     -131.376      -24.826      122.953      104.854       61.384    15117.521    10994.461     3768.017       12.214        1.494      462.378       57.135        0.015      337.388        9.325      855.517
09/21/2013  23:26:00     -370.075      -64.893      -17.433       87.137       85.131       51.182     7592.859     7247.287     2619.639        7.946        0.873      375.722       31.799        0.007      337.411        9.363      855.533
09/21/2013  23:27:00     -287.652       99.741      -13.536      142.389      140.031       69.283    20274.500    19608.801     4800.125        6.877        2.234      304.453       61.349        0.041      337.424        9.386      855.551
09/21/2013  23:28:00     -238.532       16.335      -23.134       78.508       92.925       40.985     6163.510     8635.140     1679.747        3.709        0.824      239.091       29.355        0.015      337.445        9.421      855.549
09/21/2013  23:29:00     -315.026      -78.008      -11.736      120.684       99.467       47.371    14564.584     9893.728     2243.982        6.608        1.335      324.541       43.966        0.018      337.434        9.402      855.568
09/21/2013  23:30:00     -348.392     -133.852      -16.089      117.094      112.145       62.636    13710.962    12576.575     3923.315        8.488        1.511      373.220       59.760        0.026      337.419        9.377      855.596
09/21/2013  23:31:00     -313.428      -23.029      -29.830      109.117       99.896       51.246    11906.479     9979.268     2626.117        6.208        1.226      314.273       33.134        0.011      337.439        9.410      855.645
09/21/2013  23:32:00     -291.949       20.935      -28.615       94.843      103.057       47.353     8995.120    10620.787     2242.259        5.417        1.093      292.699       49.285        0.028      337.425        9.386      855.669
09/21/2013  23:33:00     -177.074     -110.250      -11.552      114.133       77.984       54.099    13026.267     6081.512     2926.705        3.283        1.102      208.591       43.480        0.043      337.456        9.440      855.660
09/21/2013  23:34:00     -131.085      -80.889        5.524      126.945       83.764       43.384    16115.029     7016.411     1882.149        2.438        1.251      154.034       59.117        0.147      337.500        9.512      855.685
09/21/2013  23:35:00     -200.058      -61.663        4.617      152.543       86.346       48.129    23269.451     7455.574     2316.398        3.844        1.652      209.346       50.954        0.059      337.480        9.481      855.674
09/21/2013  23:36:00     -240.363     -125.533        4.346      141.724      115.648       70.211    20085.701    13374.351     4929.580        5.596        1.919      271.170       76.698        0.080      337.456        9.439      855.665
09/21/2013  23:37:00     -262.491     -153.360       -2.919      178.310      130.452       67.724    31794.496    17017.803     4586.537        7.290        2.670      304.009       76.273        0.063      337.457        9.440      855.661
09/21/2013  23:38:00     -232.689      -82.529      -10.664       85.995      102.564       55.531     7395.087    10519.305     3083.698        4.103        1.050      246.891       43.267        0.031      337.479        9.477      855.661
09/21/2013  23:39:00     -264.201     -104.021       -6.464      130.875      132.373       58.178    17128.292    17522.590     3384.720        5.934        1.902      283.941       43.248        0.023      337.442        9.415      855.657
09/21/2013  23:40:00     -208.091      -63.948      -21.343       98.504       89.164       47.852     9703.032     7950.216     2289.859        3.389        0.997      217.695       42.850        0.039      337.438        9.409      855.644
09/21/2013  23:41:00     -247.996      -50.586       -7.240      121.112      104.467       60.226    14668.226    10913.422     3627.145        4.666        1.460      253.103       59.906        0.056      337.421        9.381      855.644
09/21/2013  23:42:00     -281.445      -26.535      -11.896      114.221      100.215       55.582    13046.445    10043.101     3089.409        5.311        1.309      282.693       44.611        0.025      337.437        9.407      855.657
09/21/2013  23:43:00     -147.277      -19.861       18.909      129.667      105.283       66.925    16813.587    11084.463     4478.924        2.740        1.619      148.610       66.601        0.201      337.478        9.476      855.664
09/21/2013  23:44:00     -269.552      -83.547       -3.709      112.486       81.271       54.431    12653.083     6604.997     2962.752        5.093        1.111      282.202       52.932        0.035      337.458        9.443      855.676
09/21/2013  23:45:00     -269.980      -46.183       -7.976      169.025      109.865       57.003    28569.295    12070.304     3249.352        5.948        2.194      273.901       60.306        0.048      337.409        9.361      855.691
09/21/2013  23:46:00     -399.397       -1.260      -39.298      110.581      106.711       41.747    12228.236    11387.316     1742.829        9.321        1.268      399.399       37.197        0.009      337.393        9.333      855.685
09/21/2013  23:47:00     -289.114      -59.512        0.403      160.009      113.536       62.569    25602.771    12890.448     3914.888        6.476        2.120      295.175       83.273        0.080      337.410        9.362      855.722
09/21/2013  23:48:00     -462.701      -35.810      -35.837      140.635      135.875       61.907    19778.235    18461.902     3832.445       12.936        2.104      464.084       61.324        0.017      337.378        9.308      855.749
09/21/2013  23:49:00     -353.245     -104.789      -27.719      127.940      104.132       63.294    16368.652    10843.548     4006.097        8.387        1.561      368.460       58.010        0.025      337.379        9.309      855.771
09/21/2013  23:50:00     -448.988       20.217      -24.795      172.815      118.260       66.749    29865.087    13985.420     4455.369       12.545        2.415      449.443       78.188        0.030      337.382        9.316      855.799
09/21/2013  23:51:00     -296.362      -32.126      -22.646      170.097      135.543       69.849    28932.878    18372.000     4878.833        7.077        2.609      298.098       66.773        0.050      337.395        9.336      855.803
09/21/2013  23:52:00     -218.890      -75.998       -8.591      129.635      104.904       61.725    16805.114    11004.950     3809.925        4.268        1.581      231.708       53.030        0.052      337.420        9.378      855.832
09/21/2013  23:53:00     -290.872      -77.013      -13.227      101.598       56.470       45.708    10322.151     3188.835     2089.233        5.315        0.780      300.895       50.537        0.028      337.381        9.313      855.855
09/21/2013  23:54:00     -250.526      -54.338       -3.592      146.986       91.502       55.894    21604.943     8372.694     3124.129        4.941        1.655      256.351       60.810        0.056      337.434        9.402      855.871
09/21/2013  23:55:00     -290.153      -57.564      -21.206      118.111       91.022       52.166    13950.118     8285.060     2721.253        5.645        1.248      295.808       53.600        0.033      337.394        9.334      855.874
09/21/2013  23:56:00      -67.314      -15.802        6.102       75.812       84.036       37.721     5747.460     7062.015     1422.910        0.952        0.712       69.144       35.020        0.257      337.446        9.423      855.878
09/21/2013  23:57:00      -69.396       27.060       -5.909       57.568       31.836       24.266     3314.061     1013.554      588.824        0.525        0.246       74.485       20.176        0.073      337.443        9.420      855.868
09/21/2013  23:58:00     -171.023       33.752      -19.397      132.098       99.821       50.996    17449.788     9964.177     2600.602        3.038        1.501      174.321       45.763        0.069      337.420        9.379      855.854
09/21/2013  23:59:00     -149.546       12.600      -22.983       77.823       72.972       36.461     6056.437     5324.854     1329.390        1.788        0.636      150.076       13.929        0.009      337.439        9.411      855.870
